[[{"header":{"parameterUnit":"m.s-1","parameterCategory":1,"la1":30.6,"la2":29.2853,"lo1":-89.7004,"lo2":-87.6739,"dy":0.0162,"dx":0.0183,"nx":112,"ny":82,"refTime":"2024-08-07T06:00:00:Z","depth":0,"parameterNumber":2,"parameterNumberName":"U-component_of_WINDS"},"data":[0.0,0.0,0.0,0.0,0.0,0.0,0.0,0.0,0.0,0.0,0.0,0.0,0.0,0.0,0.0,0.0,0.0,0.0,0.0,0.0,0.0,0.0,0.0,0.0,0.0,0.0,0.0,0.0,0.0,0.0,0.0,0.0,0.0,0.0,0.0,0.0,0.0,0.0,0.0,0.0,0.0,0.0,0.0,0.0,0.0,0.0,0.0,0.0,0.0,0.0,0.0,0.0,0.0,0.0,0.0,0.0,0.0,0.0,0.0,0.0,0.0,0.0,0.0,0.0,0.0,0.0,0.0,0.0,0.0,0.0,0.0,0.0,0.0,0.0,0.0,0.0,0.0,0.0,0.0,0.0,0.0,0.0,0.0,0.0,0.0,0.0,0.0,0.0,0.0,0.0,3.1099,3.4148,3.7432,3.9436,3.9424,3.8428,3.6137,3.2169,0.0,0.0,0.0,0.0,0.0,0.0,0.0,0.0,0.0,0.0,0.0,0.0,0.0,0.0,0.0,0.0,0.0,0.0,0.0,0.0,0.0,0.0,0.0,0.0,0.0,0.0,0.0,0.0,0.0,0.0,0.0,0.0,0.0,0.0,0.0,0.0,0.0,0.0,0.0,0.0,0.0,0.0,0.0,0.0,0.0,0.0,0.0,0.0,0.0,0.0,0.0,0.0,0.0,0.0,0.0,0.0,0.0,0.0,0.0,0.0,0.0,0.0,0.0,0.0,0.0,0.0,0.0,0.0,0.0,0.0,0.0,0.0,0.0,0.0,0.0,0.0,0.0,0.0,0.0,0.0,0.0,0.0,0.0,0.0,0.0,0.0,0.0,0.0,0.0,0.0,0.0,0.0,0.0,0.0,0.0,0.0,0.0,0.0,0.0,0.0,0.0,0.0,0.0,0.0,3.23,3.8131,3.9265,3.9802,4.0431,3.8338,3.5546,3.2198,0.0,0.0,0.0,0.0,0.0,0.0,0.0,0.0,0.0,0.0,0.0,0.0,0.0,0.0,0.0,0.0,0.0,0.0,0.0,0.0,0.0,0.0,0.0,0.0,0.0,0.0,0.0,0.0,0.0,0.0,0.0,0.0,0.0,0.0,0.0,0.0,0.0,0.0,0.0,0.0,0.0,0.0,0.0,0.0,0.0,0.0,0.0,0.0,0.0,0.0,0.0,0.0,0.0,0.0,0.0,0.0,0.0,0.0,0.0,0.0,0.0,0.0,0.0,0.0,0.0,0.0,0.0,0.0,0.0,0.0,0.0,0.0,0.0,0.0,0.0,0.0,0.0,0.0,0.0,0.0,0.0,0.0,0.0,0.0,0.0,0.0,0.0,0.0,0.0,0.0,0.0,0.0,0.0,0.0,0.0,0.0,0.0,0.0,0.0,0.0,0.0,0.0,0.0,3.0684,3.4034,3.9258,3.9735,3.9792,4.009,3.8147,3.5516,3.2268,2.8858,0.0,0.0,0.0,0.0,0.0,0.0,0.0,0.0,0.0,0.0,0.0,0.0,0.0,0.0,0.0,0.0,0.0,0.0,0.0,0.0,0.0,0.0,0.0,0.0,0.0,0.0,0.0,0.0,0.0,0.0,0.0,0.0,0.0,0.0,0.0,0.0,0.0,0.0,0.0,0.0,0.0,0.0,0.0,0.0,0.0,0.0,0.0,0.0,0.0,0.0,0.0,0.0,0.0,0.0,0.0,0.0,0.0,0.0,0.0,0.0,0.0,0.0,0.0,0.0,0.0,0.0,0.0,0.0,0.0,0.0,0.0,0.0,0.0,0.0,0.0,0.0,0.0,0.0,0.0,0.0,0.0,0.0,0.0,0.0,0.0,0.0,0.0,0.0,0.0,0.0,0.0,0.0,0.0,0.0,0.0,0.0,0.0,0.0,0.0,0.0,0.0,0.0,3.4429,3.5799,3.9556,3.9848,3.9739,3.9623,3.7667,3.5221,3.2332,2.7675,0.0,0.0,0.0,0.0,0.0,0.0,0.0,0.0,0.0,0.0,0.0,0.0,0.0,0.0,0.0,0.0,0.0,0.0,0.0,0.0,0.0,0.0,0.0,0.0,0.0,0.0,0.0,0.0,0.0,0.0,0.0,0.0,0.0,0.0,0.0,0.0,0.0,0.0,0.0,0.0,0.0,0.0,0.0,0.0,0.0,0.0,0.0,0.0,0.0,0.0,0.0,0.0,0.0,0.0,0.0,0.0,0.0,0.0,0.0,0.0,0.0,0.0,0.0,0.0,0.0,0.0,0.0,0.0,0.0,0.0,0.0,0.0,0.0,0.0,0.0,0.0,0.0,0.0,0.0,0.0,0.0,0.0,0.0,0.0,0.0,0.0,0.0,0.0,0.0,0.0,0.0,0.0,0.0,0.0,0.0,0.0,0.0,0.0,0.0,0.0,0.0,0.0,3.4885,3.7259,3.9811,4.0077,3.9975,3.9717,3.6707,3.4124,3.2411,2.6091,0.0,0.0,0.0,0.0,0.0,0.0,0.0,0.0,0.0,0.0,0.0,0.0,0.0,0.0,0.0,0.0,0.0,0.0,0.0,0.0,0.0,0.0,0.0,0.0,0.0,0.0,0.0,0.0,0.0,0.0,0.0,0.0,0.0,0.0,0.0,0.0,0.0,0.0,0.0,0.0,0.0,0.0,0.0,0.0,0.0,0.0,0.0,0.0,0.0,0.0,0.0,0.0,0.0,0.0,0.0,0.0,0.0,0.0,0.0,0.0,0.0,0.0,0.0,0.0,0.0,0.0,0.0,0.0,0.0,0.0,0.0,0.0,0.0,0.0,0.0,0.0,0.0,0.0,0.0,0.0,0.0,0.0,0.0,0.0,0.0,0.0,0.0,0.0,0.0,0.0,0.0,0.0,0.0,0.0,0.0,0.0,0.0,0.0,0.0,0.0,0.0,0.0,3.4445,3.6854,0.0,4.0157,4.0057,3.9954,3.7293,3.451,3.1839,0.0,0.0,0.0,0.0,0.0,0.0,0.0,0.0,0.0,0.0,0.0,0.0,0.0,0.0,0.0,0.0,0.0,0.0,0.0,0.0,0.0,0.0,0.0,0.0,0.0,0.0,0.0,0.0,0.0,0.0,0.0,0.0,0.0,0.0,0.0,0.0,0.0,0.0,0.0,0.0,0.0,0.0,0.0,0.0,0.0,0.0,0.0,0.0,0.0,0.0,0.0,0.0,0.0,0.0,0.0,0.0,0.0,0.0,0.0,0.0,0.0,0.0,0.0,0.0,0.0,0.0,0.0,0.0,0.0,0.0,0.0,0.0,0.0,0.0,0.0,0.0,0.0,0.0,0.0,0.0,0.0,0.0,0.0,0.0,0.0,0.0,0.0,0.0,0.0,0.0,0.0,0.0,0.0,0.0,0.0,0.0,0.0,0.0,0.0,0.0,0.0,0.0,3.19,3.4636,3.7101,0.0,4.0215,4.0022,3.9717,3.7091,3.4167,3.1067,0.0,0.0,0.0,0.0,0.0,0.0,0.0,0.0,0.0,0.0,0.0,0.0,0.0,0.0,0.0,0.0,0.0,0.0,0.0,0.0,0.0,0.0,0.0,0.0,0.0,0.0,0.0,0.0,0.0,0.0,0.0,0.0,0.0,0.0,0.0,0.0,0.0,0.0,0.0,0.0,0.0,0.0,0.0,0.0,0.0,0.0,0.0,0.0,0.0,0.0,0.0,0.0,0.0,0.0,0.0,0.0,0.0,0.0,0.0,0.0,0.0,0.0,0.0,0.0,0.0,0.0,0.0,0.0,0.0,0.0,0.0,0.0,0.0,0.0,0.0,0.0,0.0,0.0,0.0,0.0,0.0,0.0,0.0,0.0,0.0,0.0,0.0,0.0,0.0,0.0,0.0,0.0,0.0,0.0,0.0,0.0,0.0,0.0,0.0,0.0,0.0,0.0,3.2058,3.5627,3.8362,4.0119,4.031,3.9891,3.888,3.5796,3.2806,0.0,0.0,0.0,0.0,0.0,0.0,0.0,0.0,0.0,0.0,0.0,0.0,0.0,0.0,0.0,0.0,0.0,0.0,0.0,0.0,0.0,0.0,0.0,0.0,0.0,0.0,0.0,0.0,0.0,0.0,0.0,0.0,0.0,0.0,0.0,0.0,0.0,0.0,0.0,0.0,0.0,0.0,0.0,0.0,0.0,0.0,0.0,0.0,0.0,0.0,0.0,0.0,0.0,0.0,0.0,0.0,0.0,0.0,0.0,0.0,0.0,0.0,0.0,0.0,0.0,0.0,0.0,0.0,0.0,0.0,0.0,0.0,0.0,0.0,0.0,0.0,0.0,0.0,0.0,0.0,0.0,0.0,0.0,0.0,0.0,0.0,0.0,0.0,0.0,0.0,0.0,0.0,0.0,0.0,0.0,0.0,0.0,0.0,0.0,0.0,0.0,0.0,0.0,3.2053,3.563,3.8362,4.0119,4.031,3.9929,3.9032,3.6417,3.3478,3.0333,0.0,0.0,0.0,0.0,0.0,0.0,0.0,0.0,0.0,0.0,0.0,0.0,0.0,0.0,0.0,0.0,0.0,0.0,0.0,0.0,0.0,0.0,0.0,0.0,0.0,0.0,0.0,0.0,0.0,0.0,0.0,0.0,0.0,0.0,0.0,0.0,0.0,0.0,0.0,0.0,0.0,0.0,0.0,0.0,0.0,0.0,0.0,0.0,0.0,0.0,0.0,0.0,0.0,0.0,0.0,0.0,0.0,0.0,0.0,0.0,0.0,0.0,0.0,0.0,0.0,0.0,0.0,0.0,0.0,0.0,0.0,0.0,0.0,0.0,0.0,0.0,0.0,0.0,0.0,0.0,0.0,0.0,0.0,0.0,0.0,0.0,0.0,0.0,0.0,0.0,0.0,0.0,0.0,0.0,0.0,0.0,0.0,0.0,0.0,0.0,0.0,0.0,3.2057,3.563,3.8362,4.0119,4.031,3.9947,3.9069,3.6986,3.414,3.0428,0.0,0.0,0.0,0.0,0.0,0.0,0.0,0.0,0.0,0.0,0.0,0.0,0.0,0.0,0.0,0.0,0.0,0.0,0.0,0.0,0.0,0.0,0.0,0.0,0.0,0.0,0.0,0.0,0.0,0.0,0.0,0.0,0.0,0.0,0.0,0.0,0.0,0.0,0.0,0.0,0.0,0.0,0.0,0.0,0.0,0.0,0.0,0.0,0.0,0.0,0.0,0.0,0.0,0.0,0.0,0.0,0.0,0.0,0.0,0.0,0.0,0.0,0.0,0.0,0.0,0.0,0.0,0.0,0.0,0.0,0.0,0.0,0.0,0.0,0.0,0.0,0.0,0.0,0.0,0.0,0.0,0.0,0.0,0.0,0.0,0.0,0.0,0.0,0.0,0.0,0.0,0.0,0.0,0.0,0.0,0.0,0.0,0.0,0.0,0.0,0.0,0.0,3.2076,3.563,3.8362,4.01,4.0291,3.9947,3.9069,3.7464,3.4767,3.0699,0.0,0.0,0.0,0.0,0.0,0.0,0.0,0.0,0.0,0.0,0.0,0.0,0.0,0.0,0.0,0.0,0.0,0.0,0.0,0.0,0.0,0.0,0.0,0.0,0.0,0.0,0.0,0.0,0.0,0.0,0.0,0.0,0.0,0.0,0.0,0.0,0.0,0.0,0.0,0.0,0.0,0.0,0.0,0.0,0.0,0.0,0.0,0.0,0.0,0.0,0.0,0.0,0.0,0.0,0.0,0.0,0.0,0.0,0.0,0.0,3.0403,2.8771,0.0,0.0,0.0,0.0,0.0,0.0,0.0,0.0,0.0,0.0,0.0,0.0,0.0,0.0,0.0,0.0,0.0,0.0,0.0,0.0,0.0,0.0,0.0,0.0,0.0,0.0,0.0,0.0,0.0,0.0,0.0,0.0,0.0,0.0,0.0,0.0,0.0,0.0,0.0,0.0,3.2211,3.5698,3.8433,4.0117,4.0308,3.9964,3.9159,3.7477,3.5273,3.244,2.8452,0.0,0.0,0.0,0.0,0.0,0.0,0.0,0.0,0.0,0.0,0.0,0.0,0.0,0.0,0.0,0.0,0.0,0.0,0.0,0.0,0.0,0.0,0.0,0.0,0.0,0.0,0.0,0.0,0.0,0.0,0.0,0.0,0.0,0.0,0.0,0.0,0.0,0.0,0.0,0.0,0.0,0.0,0.0,0.0,0.0,0.0,0.0,0.0,0.0,0.0,0.0,0.0,0.0,0.0,0.0,0.0,0.0,0.0,0.0,3.5093,3.338,0.0,0.0,0.0,0.0,0.0,0.0,0.0,0.0,0.0,0.0,0.0,0.0,0.0,0.0,0.0,0.0,0.0,0.0,0.0,0.0,0.0,0.0,0.0,0.0,0.0,0.0,0.0,0.0,0.0,0.0,0.0,0.0,0.0,0.0,0.0,0.0,0.0,0.0,0.0,0.0,3.2896,3.6323,3.8925,4.0208,4.0362,4.0189,3.9768,3.8503,3.668,3.4213,3.1232,0.0,0.0,0.0,0.0,0.0,0.0,0.0,0.0,0.0,0.0,0.0,0.0,0.0,0.0,0.0,0.0,0.0,0.0,0.0,0.0,0.0,0.0,0.0,0.0,0.0,0.0,0.0,0.0,0.0,0.0,0.0,0.0,0.0,0.0,0.0,0.0,0.0,0.0,0.0,0.0,0.0,0.0,0.0,0.0,0.0,0.0,0.0,0.0,0.0,0.0,0.0,0.0,0.0,4.0252,4.1153,4.2533,4.248,4.3244,4.4377,4.0098,3.8598,3.8895,3.5134,0.0,0.0,0.0,0.0,0.0,0.0,0.0,0.0,0.0,0.0,0.0,0.0,0.0,0.0,0.0,0.0,0.0,0.0,0.0,0.0,0.0,0.0,3.5948,3.584,3.7492,3.7626,3.2428,0.0,0.0,0.0,0.0,0.0,0.0,0.0,0.0,0.0,0.0,0.0,3.3849,3.7102,3.9454,4.0319,4.0415,4.0415,4.0415,3.961,3.8127,3.5792,3.4063,3.1487,0.0,0.0,0.0,0.0,0.0,0.0,0.0,0.0,0.0,0.0,0.0,0.0,0.0,0.0,0.0,0.0,0.0,0.0,0.0,0.0,0.0,0.0,0.0,0.0,0.0,0.0,0.0,0.0,0.0,0.0,0.0,0.0,2.7233,2.7579,0.0,0.0,0.0,0.0,0.0,0.0,0.0,0.0,0.0,0.0,0.0,0.0,0.0,3.9082,4.1537,4.306,4.4309,4.5304,4.6822,4.7668,4.7881,4.7883,4.8,4.8176,4.7493,0.0,4.1774,4.0447,0.0,0.0,0.0,0.0,0.0,0.0,0.0,0.0,0.0,0.0,0.0,0.0,0.0,0.0,0.0,0.0,0.0,0.0,0.0,0.0,0.0,0.0,4.2013,4.1203,4.1796,4.2073,4.0412,3.6203,3.2306,3.0893,2.8905,2.6814,0.0,0.0,0.0,0.0,0.0,0.0,3.4875,3.7548,3.9522,4.0406,4.0485,4.0485,4.0485,3.9679,3.8443,3.6727,3.5039,3.3246,3.1291,2.9158,0.0,0.0,0.0,0.0,0.0,0.0,0.0,0.0,0.0,0.0,0.0,0.0,0.0,0.0,0.0,0.0,0.0,0.0,0.0,0.0,0.0,0.0,0.0,0.0,0.0,0.0,0.0,0.0,0.0,2.7136,3.0373,3.0335,3.1201,3.1051,0.0,0.0,0.0,0.0,0.0,0.0,0.0,0.0,0.0,4.2108,4.2674,4.3926,4.6022,4.6803,4.7637,4.8509,4.9277,4.9873,5.0311,5.0311,5.0309,5.0307,5.0307,4.892,4.6495,4.4196,4.201,3.9887,0.0,0.0,0.0,0.0,3.7282,3.7602,3.9955,4.0199,3.9306,3.8364,0.0,0.0,0.0,0.0,0.0,0.0,0.0,3.7762,3.9511,4.1734,4.3522,4.3569,4.4217,4.4672,4.4083,4.1591,3.8568,3.5588,3.4587,3.2903,2.8753,2.8849,0.0,0.0,0.0,3.572,3.7268,3.933,4.0803,4.1187,4.0784,4.0511,4.0546,4.02,3.9518,3.8387,3.7178,3.5785,3.4206,3.2152,3.0073,0.0,0.0,0.0,0.0,0.0,0.0,0.0,0.0,0.0,0.0,0.0,0.0,0.0,0.0,0.0,0.0,0.0,0.0,0.0,0.0,0.0,0.0,0.0,0.0,0.0,0.0,0.0,0.0,3.0159,3.294,3.2878,3.4617,3.4792,0.0,0.0,0.0,0.0,0.0,0.0,4.0125,4.1279,4.3237,4.621,4.7148,4.832,4.9862,5.0096,5.0524,5.1164,5.1179,5.1498,5.207,5.207,5.2067,5.203,5.203,5.1615,5.0701,4.753,4.5518,4.4195,4.1587,4.0421,4.0268,4.1119,4.1429,4.1841,4.4672,4.5073,4.4141,4.2889,4.1879,4.0704,3.8109,0.0,0.0,0.0,0.0,4.0227,4.1952,4.3324,4.4421,4.5017,4.5643,4.6047,4.5822,4.5291,4.3708,3.9769,3.9442,3.8227,3.3321,3.3561,0.0,3.2704,3.6008,3.8916,3.9663,4.1152,4.2047,4.1816,4.1235,4.0789,4.0607,4.0626,4.0217,3.9224,3.8595,3.7537,3.5971,3.4465,3.2686,3.0604,0.0,0.0,0.0,0.0,0.0,0.0,0.0,0.0,0.0,0.0,0.0,0.0,0.0,0.0,0.0,0.0,0.0,0.0,0.0,0.0,0.0,0.0,0.0,0.0,0.0,0.0,0.0,0.0,0.0,3.5514,3.768,0.0,0.0,0.0,0.0,3.7972,4.1188,4.3611,4.4616,4.63,4.802,4.9797,5.0695,5.1574,5.2492,5.3332,5.3761,5.3802,5.3808,5.3828,5.3867,5.3867,5.3838,5.3765,5.3765,5.3695,5.331,5.0786,4.8682,4.7002,4.681,4.6232,4.5606,4.6419,4.6709,4.6864,4.7865,4.7632,4.6897,4.682,4.4595,4.1925,4.1802,4.071,0.0,0.0,4.277,4.3825,4.5506,4.6011,4.6084,4.6125,4.6157,4.6162,4.6027,4.6044,4.5405,4.3022,4.1915,4.0787,3.8977,0.0,3.8788,3.8735,3.9673,4.0652,4.1462,4.2417,4.272,4.1893,4.1809,4.1493,4.0665,4.066,4.0,3.8369,3.8345,3.7631,3.5973,3.5075,3.4171,3.3236,2.9882,0.0,0.0,0.0,0.0,0.0,0.0,0.0,0.0,0.0,0.0,0.0,0.0,0.0,0.0,0.0,0.0,0.0,0.0,0.0,0.0,0.0,0.0,0.0,0.0,0.0,0.0,0.0,0.0,3.9573,4.1936,0.0,4.0639,4.1547,4.2491,4.3078,4.4861,4.6775,4.8758,4.9439,5.0577,5.2308,5.2658,5.2961,5.3273,5.3593,5.3749,5.3749,5.3747,5.3752,5.3735,5.3735,5.372,5.3695,5.3716,5.3662,5.3503,5.2618,5.1252,4.9707,4.9722,4.8817,4.754,4.7831,4.7947,4.7985,4.8295,4.8198,4.7947,4.7947,4.7115,4.6032,4.5576,4.5049,4.4639,4.4848,4.5137,4.5502,4.6111,4.6257,4.6249,4.6201,4.6206,4.6151,4.6026,4.6046,4.5813,4.4901,4.4037,4.2857,4.108,4.1201,4.1201,4.0123,4.1673,4.3037,4.3344,4.3744,4.3867,4.358,4.2642,4.1925,4.1644,4.0612,3.9772,3.926,3.8215,3.7129,3.6016,3.5149,3.4027,3.2597,3.0821,2.8349,0.0,0.0,0.0,0.0,0.0,0.0,0.0,0.0,0.0,0.0,0.0,0.0,0.0,0.0,0.0,0.0,0.0,0.0,0.0,0.0,0.0,0.0,0.0,0.0,0.0,0.0,4.1716,4.253,4.4974,4.5873,4.4122,4.5577,4.6905,4.7481,4.8664,5.0098,5.1787,5.1884,5.2408,5.356,5.389,5.4045,5.4032,5.4304,5.4453,5.444,5.4472,5.4485,5.4485,5.4477,5.4463,5.4405,5.4397,5.4362,5.4323,5.4323,5.3493,5.2249,5.1959,5.1109,5.0027,4.9753,4.9653,4.9614,4.9339,4.9068,4.8836,4.8836,4.8609,4.828,4.7816,4.7711,4.7645,4.7221,4.6932,4.6734,4.6749,4.6527,4.6287,4.6245,4.623,4.6206,4.6118,4.6103,4.6068,4.5929,4.5382,4.4531,4.3297,4.3551,4.3532,4.2429,4.3724,4.4842,4.4842,4.4924,4.4858,4.4588,4.3601,4.2768,4.2226,4.09,4.002,3.9814,3.8196,3.6991,3.6465,3.531,3.4159,3.3007,3.1529,2.9472,2.684,0.0,0.0,0.0,0.0,0.0,0.0,0.0,0.0,0.0,0.0,0.0,0.0,0.0,0.0,0.0,0.0,0.0,0.0,0.0,0.0,0.0,0.0,0.0,3.9233,4.1433,4.3386,4.4267,4.6627,4.7548,4.5951,4.8916,5.0945,5.0964,5.2607,5.3605,5.3644,5.3644,5.3644,5.3663,5.4479,5.4925,5.4925,5.5696,5.6084,5.6084,5.6141,5.6191,5.6175,5.6174,5.6111,5.598,5.598,5.5943,5.5885,5.5885,5.5384,5.4535,5.3667,5.332,5.3204,5.2428,5.2116,5.1981,5.118,5.0403,4.9745,4.9745,4.9115,4.8388,4.8433,4.8534,4.8646,4.8687,4.8183,4.7637,4.7637,4.699,4.6339,4.6345,4.6323,4.63,4.6303,4.6303,4.6264,4.6128,4.5944,4.5801,4.5801,4.5863,4.5906,4.5906,4.5898,0.0,4.5899,4.5901,4.5615,4.4819,4.4724,4.4039,4.24,4.1528,4.0733,3.9823,3.8203,3.7282,3.7262,3.5642,3.4725,3.4686,3.2133,3.0335,2.9373,0.0,0.0,0.0,0.0,0.0,0.0,0.0,0.0,0.0,0.0,0.0,0.0,0.0,0.0,0.0,0.0,0.0,0.0,0.0,0.0,0.0,3.8486,4.1508,4.1817,4.4594,4.6935,4.7857,4.9163,5.0029,5.0164,5.1049,5.1895,5.2512,5.3031,5.359,5.4207,5.4246,5.4516,5.5094,5.5345,5.548,5.548,5.5711,5.5789,5.575,5.5767,5.5745,5.5684,5.5737,5.5737,5.572,5.5763,5.5765,5.5745,5.5745,5.5611,5.5323,5.4555,5.386,5.3281,5.305,5.2605,5.1987,5.1117,5.0726,5.0568,5.0568,5.041,5.0082,4.9502,4.9446,4.9421,4.8858,4.8613,4.8535,4.8535,4.789,4.7246,4.7244,4.6752,4.63,4.6306,4.6307,4.6287,4.6248,4.6202,4.6098,4.591,4.5889,4.5911,4.5901,4.5901,4.5905,4.5907,4.5977,4.5959,4.5745,4.5231,4.4485,4.3379,4.1948,4.0483,3.9022,3.7897,3.7028,3.6384,3.5896,3.5295,3.4569,3.3688,3.2483,0.0,0.0,0.0,0.0,0.0,0.0,0.0,0.0,0.0,0.0,0.0,0.0,0.0,0.0,0.0,0.0,0.0,0.0,0.0,0.0,0.0,0.0,4.1604,4.4278,4.4934,4.7019,4.8795,4.9719,5.0604,5.1335,5.1816,5.2528,5.3203,5.3703,5.4068,5.4472,5.4972,5.4991,5.5222,5.5684,5.5703,5.5703,5.566,5.566,5.581,5.6107,5.6107,5.6256,5.6597,5.6668,5.6499,5.6153,5.622,5.603,5.5703,5.5703,5.5703,5.5645,0.0,0.0,0.0,0.0,5.3301,5.249,5.1641,5.137,5.1329,5.0982,5.0844,5.0784,5.0275,5.0212,5.0225,4.9783,4.9524,4.9375,4.9433,4.8807,4.8041,4.769,4.7206,4.6738,4.6386,4.6306,4.6303,4.6303,4.6308,0.0,4.6093,4.6064,4.6064,4.6062,4.6072,4.6072,4.6066,4.6136,4.6175,4.6171,4.5797,4.519,4.4312,4.2971,0.0,0.0,0.0,3.7819,3.6504,3.6465,0.0,0.0,0.0,0.0,0.0,0.0,0.0,0.0,3.3544,3.3486,0.0,0.0,0.0,0.0,0.0,0.0,0.0,0.0,0.0,0.0,0.0,0.0,0.0,0.0,0.0,0.0,4.4337,4.6981,4.8072,4.8825,4.9557,5.0405,5.1267,5.187,5.2062,5.3567,5.453,5.4626,5.5299,5.5703,5.5682,5.5758,0.0,0.0,0.0,5.5948,5.5884,5.5884,5.6241,5.6937,5.6937,5.7339,5.8067,5.816,5.7719,5.6966,5.7036,5.6598,5.5823,5.575,5.5673,5.5618,5.5662,5.5703,5.5588,5.4802,5.4053,5.332,5.251,0.0,0.0,5.1198,5.087,5.0793,5.072,5.0779,5.0908,5.0977,5.0581,5.0156,5.0273,4.968,4.8837,4.8076,4.7816,4.751,4.6632,4.6446,4.6417,4.6319,4.63,4.63,4.63,4.6301,4.6308,4.6308,4.6306,4.6303,4.6303,4.6293,4.6284,4.63,4.6297,0.0,4.507,4.4286,4.3427,4.2451,4.0984,3.9394,3.7707,3.7732,3.7646,3.7363,3.8084,3.915,4.0521,4.1283,4.1686,4.1667,3.7101,3.6528,0.0,0.0,0.0,0.0,0.0,0.0,0.0,0.0,0.0,0.0,0.0,0.0,0.0,0.0,0.0,4.3379,4.5606,4.7712,4.9301,4.9894,5.0401,5.1066,5.1526,5.2351,5.3772,5.4257,5.4739,5.5349,5.5542,5.5596,5.5551,5.6199,5.6582,5.6582,5.7254,5.7618,5.7618,5.7618,5.7665,5.7768,5.7768,0.0,5.7959,5.8011,5.7779,5.7301,5.7423,5.7178,5.662,5.6128,5.557,5.5037,5.5508,5.5703,5.5588,5.4801,5.4397,5.4147,5.3281,5.257,5.1991,5.1818,5.1316,5.0793,5.072,5.0789,0.0,5.0924,5.0947,5.0978,5.1008,5.0441,4.9829,4.9661,4.9114,4.8415,4.7533,4.7354,4.7139,4.6436,4.6292,4.6308,4.6308,4.63,4.629,4.629,4.63,4.6292,4.6296,4.6249,4.6249,4.6284,4.6245,4.5884,4.507,4.4792,4.4026,4.2505,4.1948,4.1457,4.0981,4.1583,4.1561,4.0771,4.1464,4.1665,4.1284,4.2145,4.2889,4.3482,4.1858,4.1036,0.0,0.0,0.0,0.0,0.0,0.0,0.0,0.0,0.0,0.0,0.0,3.8277,3.9745,0.0,4.4735,4.635,4.7791,4.9032,4.99,5.0398,5.086,5.142,5.2058,5.2783,5.3666,5.4196,5.4642,5.5015,5.5434,5.5709,5.5899,5.6501,5.693,5.7134,5.7377,5.7471,5.7441,5.7441,5.762,5.7927,5.7927,5.8173,5.8559,5.8634,5.8306,5.7697,5.7807,5.7497,5.6832,5.6153,5.5599,5.5246,5.5178,5.5282,5.547,5.5198,5.5107,5.4972,5.4145,5.3589,5.3185,5.2743,5.2069,5.1375,5.1279,5.1028,5.0769,5.0833,5.0965,5.1128,5.1186,5.0988,5.0633,5.0206,4.9791,4.9269,4.8391,4.7864,4.7411,4.6933,4.6493,4.6189,4.6196,4.6196,4.6215,4.624,4.6255,4.625,4.6255,4.6216,4.6216,4.6245,4.6138,4.5881,4.5487,4.4954,4.4316,4.3489,4.2957,4.259,4.2458,4.2849,4.2794,4.2272,4.3006,4.3196,4.2756,4.3595,4.4204,4.4586,4.4164,4.3745,0.0,0.0,0.0,0.0,0.0,0.0,0.0,0.0,3.5959,3.7636,3.9789,4.206,4.408,4.5972,4.7627,4.8931,4.9673,5.017,5.0402,5.0643,5.1026,5.1649,5.2555,5.3155,5.3357,5.4043,5.4503,5.4471,5.5244,5.5813,5.6128,5.6757,5.7234,5.7559,5.7437,5.7328,5.7277,5.7277,5.7561,5.8127,5.8127,5.8539,5.9196,5.9251,5.8856,5.8108,5.8071,5.7657,5.6887,5.623,5.5889,5.5679,5.4966,5.4947,5.5301,5.5519,5.5596,5.5481,5.491,5.4583,5.4334,5.3642,5.276,5.1914,5.1794,5.1219,5.0606,5.0699,5.0839,5.097,5.1064,5.1199,5.1101,5.0404,5.0256,5.0017,4.9133,4.8418,4.7853,4.7455,4.6804,4.6263,4.6075,4.6047,4.6074,4.6157,4.617,4.6144,4.6131,4.6131,4.6105,4.6098,4.5939,4.585,4.585,4.5105,4.4639,4.4653,4.4001,4.355,4.3417,4.34,4.3367,4.3251,4.388,4.4204,4.4223,4.4848,4.517,4.517,4.5125,4.5148,2.9735,3.1255,3.3144,3.5343,3.5536,3.6712,0.0,0.0,4.1393,4.466,4.6132,4.7108,4.8085,4.905,4.9745,4.9927,5.0035,5.0387,5.1264,5.083,5.0798,5.1678,5.2565,5.3414,5.4185,5.4382,5.4471,5.4425,5.5164,5.5582,5.5585,5.6998,5.7824,5.786,5.8557,5.8933,5.8933,5.8933,5.8971,5.9065,5.9065,5.9121,5.9215,5.9196,5.8951,5.852,5.8134,5.7666,5.708,5.694,5.6459,5.5825,5.5324,5.5171,5.52,5.5247,5.5191,5.5107,5.5322,5.4933,5.4319,5.4223,5.3072,5.173,5.1708,5.1154,5.0502,5.0523,5.0625,5.0731,5.0742,5.0816,5.0829,5.0752,5.0772,5.0569,4.9703,4.9575,4.9177,4.762,4.7232,4.6882,4.598,4.5828,4.5902,4.6074,4.6054,4.5979,4.5867,4.5852,4.5803,4.5692,4.5655,4.563,4.563,4.5538,4.5382,4.5226,4.5111,4.4997,4.4865,4.4865,4.4862,4.484,4.4935,4.4973,4.4973,4.5068,4.5125,4.5125,4.5103,4.5103,3.5267,3.6574,0.0,0.0,4.056,4.1677,4.3924,4.4039,4.4109,4.585,4.6831,4.7393,4.7269,4.7939,4.8615,0.0,4.9524,5.0209,5.1389,5.0937,5.0805,5.1533,5.1584,5.1917,5.2902,5.3014,5.3218,5.3682,5.4888,5.5691,5.5883,5.7193,5.8085,5.829,5.8442,5.8479,5.8479,5.8437,5.8394,5.8394,5.8394,5.8394,5.8394,5.8479,5.8412,5.8257,5.807,5.784,5.7582,5.7095,5.6691,5.6337,5.5225,5.4766,5.4735,5.4792,5.4769,5.472,5.4867,5.4817,5.4702,5.4702,5.4044,5.3104,5.2518,5.1767,5.104,5.0482,5.0425,5.0529,5.0568,5.0638,5.0677,5.0665,5.0716,5.0616,5.0268,4.9853,4.9151,4.7844,4.7175,4.6494,4.5473,4.5284,4.5303,4.5389,4.5519,4.5578,4.5534,4.5436,4.5353,4.5266,4.5323,4.5342,4.5264,4.5244,4.5223,4.5199,4.518,4.5156,4.5084,4.5103,4.4995,4.4814,4.4995,4.4905,4.4501,4.4669,4.4643,4.4465,4.4411,4.4411,3.7895,0.0,0.0,4.2347,4.4121,4.5381,4.5049,4.5368,4.591,4.6426,4.6842,4.7084,4.675,4.7204,4.7836,4.8539,4.9205,4.9995,5.112,5.056,5.0229,5.0631,4.9981,4.9871,5.0732,5.1475,5.2223,5.3048,5.4587,5.56,5.5905,5.7169,5.8006,5.8289,5.8033,5.7904,5.7904,5.7792,5.7745,5.7745,5.7745,5.7745,5.7745,5.7886,5.795,5.795,5.7997,5.7997,5.7941,5.7373,5.7134,5.6969,5.5404,5.4779,5.4669,5.4298,5.4206,5.4307,5.4425,5.4659,5.4943,5.4914,5.4611,5.4087,5.3334,5.2373,5.1395,5.0716,5.0417,5.0281,5.0317,5.0308,5.0296,5.0293,5.0333,5.0353,5.0353,4.9874,4.9182,4.8233,4.752,4.665,4.5399,4.5157,4.5014,4.4762,4.4878,4.5012,4.5112,4.501,4.4919,4.4881,4.495,4.4985,4.487,4.4846,4.4895,4.4967,4.49,4.4876,4.4924,4.4833,4.4643,4.4419,4.4643,4.4519,4.4058,4.4252,4.4223,4.3986,4.3924,4.3943,0.0,0.0,4.1313,4.2743,4.4631,4.6516,4.7718,4.7457,4.7142,4.7736,4.7474,4.7332,4.8084,4.8363,4.8644,4.924,4.9486,4.9837,5.0465,4.9451,4.8637,4.8705,4.7836,4.7438,4.7779,5.0119,5.193,5.2751,5.4301,5.5212,5.524,5.6726,5.7601,5.7649,5.7601,5.7601,5.7601,5.7601,5.7601,5.7601,5.7601,5.7601,5.7601,5.7745,5.7792,5.7792,5.795,5.7997,5.7997,5.796,5.796,5.7795,5.618,5.5556,5.5354,5.3818,5.3422,5.3795,5.4158,5.4528,5.4806,5.4716,5.4392,5.4001,5.3903,5.2715,5.1402,5.1383,5.0677,4.9906,4.9906,4.975,4.9539,4.9539,4.9608,4.9721,4.9749,4.9815,4.9657,4.8827,4.8549,4.7903,4.6157,4.576,4.5359,4.4477,4.4221,4.426,4.4676,4.4602,4.4524,4.4524,4.4524,4.4524,4.4515,4.4515,4.4578,4.4693,4.4412,4.4308,4.443,4.4125,4.3943,4.3912,4.3943,4.3943,4.3912,4.3912,4.3912,4.3912,4.3912,4.3943,0.0,0.0,4.4058,4.4759,4.5961,4.6906,4.676,4.6229,4.5577,4.4854,4.4224,4.3721,4.3488,4.3879,4.4603,4.5808,4.6818,4.795,4.9567,4.8959,4.8335,4.8347,4.8025,4.7897,4.8129,4.9253,5.0416,5.142,5.3263,5.4647,5.5176,5.6726,5.7601,5.7601,5.7601,5.7601,5.7601,5.7486,5.7455,5.7455,5.7455,5.7486,5.7601,5.7649,5.7649,5.7697,5.7792,5.7792,5.7745,5.7839,5.7792,5.7635,5.6575,5.5825,5.5222,5.4206,5.3586,5.3258,5.3502,5.372,5.3941,5.3905,5.4119,5.4216,5.3615,5.2807,5.198,5.1272,5.0431,4.9731,4.9596,4.9488,4.9427,4.9427,4.9427,4.9427,4.9408,4.9382,4.91,4.8209,4.7997,4.7579,4.6326,4.5629,4.4965,4.4103,4.4048,4.4121,4.4221,4.4306,4.4296,4.406,4.4132,4.4114,4.3912,4.3893,4.3924,4.3986,4.3844,4.3844,4.4004,4.3912,4.3754,4.3557,4.3786,4.3689,4.3249,4.3474,4.3456,4.3249,4.3249,4.3523,4.1205,4.3003,4.4398,4.5695,4.6082,4.6035,4.5692,4.4967,4.3994,4.2477,4.1517,4.07,4.0011,4.0092,4.0857,4.2785,4.429,4.5935,4.7934,4.8044,4.7928,4.7916,4.7997,4.8107,0.0,0.0,0.0,5.1018,5.3159,5.461,5.5073,5.66,5.7455,5.7455,5.722,5.712,5.712,5.6845,5.667,5.667,5.6897,5.7069,5.717,5.7388,5.7553,5.7553,5.7697,5.7697,5.7601,5.7697,5.7697,5.751,5.6726,5.5924,5.5103,5.4409,5.3606,5.2955,5.3103,5.3281,5.351,5.345,5.3814,5.4127,5.3484,5.2888,5.2222,5.1337,5.0434,4.9677,4.9364,4.9225,4.9193,4.9141,4.9075,4.9042,4.9042,4.899,4.872,4.8153,4.799,4.7714,4.6796,4.5771,4.4837,4.4064,4.3915,4.3855,4.3697,4.3726,4.3693,4.3456,4.3623,4.3656,4.3471,4.3456,4.3471,4.352,4.3437,4.3403,4.3539,4.3422,4.3301,4.3196,4.3406,4.3284,4.2862,4.3124,4.3087,4.288,4.319,4.3607,4.2623,4.2733,4.2895,4.5456,4.5093,4.4234,4.4554,4.3647,4.2214,4.0546,3.9279,3.8225,3.7504,0.0,3.7825,4.0258,4.219,4.3961,4.5767,4.6843,4.7433,0.0,0.0,0.0,0.0,0.0,0.0,5.1505,5.3691,5.4935,5.4832,5.6273,5.7087,5.7087,5.6528,5.6257,5.6257,5.5676,5.5385,5.5402,5.5961,5.6257,5.6257,5.6966,5.7338,5.7338,5.7486,5.7553,5.7601,5.7601,5.7601,5.7528,5.6715,5.5913,5.5075,5.431,5.349,5.2806,5.2955,5.318,5.3431,5.3281,5.3487,5.374,5.353,5.2878,5.2102,5.1583,5.0638,4.9713,4.9166,4.8857,4.8697,4.8642,4.8587,4.855,4.8587,4.8587,4.8587,4.8587,4.8513,4.8181,4.7408,4.6172,4.5022,4.4282,4.38,4.3396,4.3123,4.2904,4.2772,4.2754,4.2976,4.3123,4.3123,4.3123,4.3178,4.3301,4.2995,4.2902,4.3051,4.2768,4.2649,4.2783,4.2783,4.2783,4.2783,4.2862,4.288,4.2874,4.3713,4.4132,4.2441,4.4246,4.593,4.4715,4.4553,4.4151,4.1984,4.0799,3.9231,3.5848,3.4456,3.3386,3.1856,3.391,0.0,3.7437,4.0925,0.0,4.4915,4.6597,0.0,4.7242,0.0,4.9588,4.912,5.05,0.0,5.1511,5.2752,5.375,5.412,5.5242,5.5848,5.5848,5.5733,5.5618,5.5618,5.5461,5.5385,5.5385,5.556,5.5618,5.5618,5.583,5.6184,5.6582,5.674,5.6966,5.7307,5.7406,5.7388,5.727,5.7071,5.6182,5.4948,5.4807,5.3844,5.2572,5.2618,5.2717,5.2839,5.2717,5.29,5.3083,5.2938,5.2518,5.2077,5.1775,5.053,4.9273,4.9358,4.8495,4.7761,4.8458,4.8307,4.8075,4.8438,4.8419,4.8286,4.8286,4.7897,4.7157,4.5968,4.5445,4.4965,4.4155,4.3774,4.3342,4.2724,4.26,4.2483,4.2221,4.2279,4.2216,4.2044,4.2002,4.2044,4.205,4.211,4.221,4.2356,4.245,4.2566,4.2649,4.2649,4.2649,4.2649,4.2688,4.2994,4.3548,4.3786,4.4548,4.3218,4.4509,4.5362,4.3914,4.3288,4.2309,3.9107,3.7714,3.597,3.1995,3.042,0.0,2.8026,3.022,0.0,0.0,0.0,0.0,4.322,4.5365,4.6797,0.0,4.8828,0.0,4.9901,5.1256,5.2083,0.0,5.2849,5.3497,5.3729,5.4615,5.5154,5.5154,5.4887,5.4658,5.4408,5.4488,5.4568,5.4568,5.4844,5.4948,5.4948,5.5266,5.556,5.5904,5.5999,5.6184,5.6402,5.651,5.6456,5.6402,5.6402,5.5579,5.4389,5.4403,5.3513,5.234,5.234,5.2369,5.2397,5.234,5.2444,5.2481,5.2278,5.2027,5.1736,5.1176,5.0046,4.8991,4.8919,4.798,4.7132,4.7638,4.747,4.7255,4.7512,4.7488,4.7403,4.7403,4.7106,4.6613,4.5846,4.554,4.515,4.4395,4.3959,4.3444,4.2685,4.251,4.2253,4.1683,4.1753,4.177,4.1604,4.1604,4.1604,4.1604,4.1719,4.1805,4.1892,4.2121,4.2287,4.2391,4.2508,4.2566,4.2566,4.2929,4.3324,4.3732,4.4492,4.5366,4.406,4.393,4.3302,4.3014,4.176,3.9755,3.6409,3.4578,3.2501,2.8426,0.0,2.5855,2.5063,2.6595,2.8926,3.155,0.0,3.8659,4.1395,4.3735,4.5493,4.6184,4.8349,4.9902,5.0204,5.1408,5.2252,5.2395,5.3111,5.3505,5.3479,5.4129,5.4555,5.4555,5.4055,5.36,5.3179,5.3348,5.3433,5.3433,5.3929,5.42,5.42,5.4826,5.5147,5.5207,5.5207,5.5249,5.5308,5.5308,5.5308,5.5308,5.5308,5.4592,5.3565,5.3565,5.2871,5.1938,5.192,5.192,5.1987,5.2054,5.2036,5.1938,5.1571,5.1418,5.1258,5.0444,4.9561,4.8777,4.8342,4.7404,4.6571,4.6624,4.6466,4.6336,4.6383,4.6383,4.6336,4.6288,4.624,4.624,4.6143,4.5833,4.5355,4.4696,4.425,4.3748,4.291,4.2612,4.2141,4.136,4.1475,4.1576,4.1471,4.1515,4.1471,4.1426,4.1453,4.1453,4.1408,4.1596,4.178,4.2015,4.2263,4.2436,4.2525,4.331,4.3685,4.3725,4.5203,4.6006,4.2993,4.3328,4.3533,4.1697,4.0586,3.8811,3.452,3.2105,0.0,0.0,2.3189,2.2431,2.0917,2.3901,2.7454,3.0036,0.0,0.0,0.0,0.0,4.468,0.0,0.0,0.0,4.9552,5.0039,0.0,0.0,5.1475,5.1905,5.2738,5.3061,5.3264,5.3264,5.3162,5.3025,5.2972,5.2989,5.2972,5.2989,5.3093,5.3162,5.3145,5.3483,5.3798,5.4154,5.4247,5.4527,5.4922,5.4922,5.4922,5.4922,5.4922,5.3997,5.2712,5.2712,5.2049,5.1158,5.0858,5.1052,5.1487,5.1808,5.179,5.1571,5.1384,5.1158,5.0893,5.0735,4.9415,4.8137,4.8461,4.6915,4.5477,4.6257,4.6112,4.5933,4.6336,4.6353,4.6147,4.5597,4.5494,4.5355,4.4998,4.4869,4.4725,4.4589,4.4644,4.4354,4.3518,4.2979,4.2329,4.1593,4.1656,4.1495,4.0892,4.0965,4.0871,4.0534,4.0676,4.0642,4.0302,4.0446,4.0882,4.1501,4.1698,4.2106,4.2662,4.2964,4.3461,4.4019,4.4329,4.4866,4.104,4.1207,4.116,3.9706,3.821,3.5963,3.143,0.0,0.0,0.0,2.0322,1.9674,1.9182,0.0,0.0,0.0,0.0,0.0,0.0,0.0,0.0,0.0,0.0,0.0,0.0,4.9135,4.9615,5.0025,5.0213,5.0935,5.2428,5.2587,5.264,5.264,5.2711,5.2764,5.2764,5.2834,5.2903,5.2903,5.2903,5.2903,5.2903,5.2972,5.3162,5.3399,5.3449,5.3615,5.3795,5.3795,5.3795,5.3744,5.3417,5.2706,5.1863,5.139,5.0845,5.022,4.9959,5.0033,5.0276,5.048,5.0804,5.1088,5.0892,5.0729,5.0547,5.0324,4.9007,4.7738,4.7833,4.6384,4.5015,4.5477,4.532,4.5196,4.5407,4.5425,4.5354,4.4998,4.4944,4.4852,4.4626,4.4587,4.4587,4.4587,4.4626,4.4546,4.4173,4.3529,4.2854,4.2245,4.1937,4.1611,4.1273,4.1118,4.0845,4.0282,4.0492,4.0578,4.0389,4.0561,4.1053,4.1731,4.2023,4.2245,4.2603,4.3151,4.358,4.3871,4.4353,4.4853,3.8831,3.8799,3.8513,3.7707,3.5905,3.3257,2.8824,2.6054,0.0,0.0,1.8223,1.7702,1.8289,0.0,2.2473,0.0,0.0,0.0,0.0,0.0,0.0,0.0,0.0,0.0,4.7357,4.8164,0.0,4.8779,4.9215,5.0119,5.1745,5.1802,5.1891,5.2142,5.2197,5.234,5.257,5.2694,5.2694,5.2537,5.2537,5.2449,5.2219,5.2274,5.2362,5.2537,5.2537,5.2677,5.2764,5.2764,5.2594,5.2237,5.1879,5.1279,5.057,4.9981,4.9588,4.9291,4.9076,4.9059,4.918,4.9059,4.9629,5.0328,5.0062,5.0022,4.9999,4.9573,4.8453,4.7381,4.7233,4.5954,4.4737,4.4737,4.4682,4.4587,4.4587,4.457,4.4514,4.4514,4.4514,4.4514,4.4514,4.4514,4.4514,4.4514,4.4514,4.4497,4.4367,4.3839,4.3298,4.2736,4.205,4.1587,4.1438,4.1253,4.0852,4.0196,4.0442,4.0569,4.0569,4.0733,4.1214,4.1988,4.2223,4.2399,4.2567,4.3359,4.363,4.3504,4.4296,4.4657,3.688,3.6971,3.6905,3.6286,3.4794,3.2457,2.8255,0.0,0.0,1.8512,1.7193,1.6906,1.7569,1.8668,0.0,0.0,0.0,0.0,0.0,0.0,0.0,0.0,0.0,0.0,4.6256,4.6653,4.7148,4.7843,4.8712,4.936,4.9978,4.9884,5.0213,5.1194,5.1268,5.1582,5.2373,5.2445,5.2053,5.1268,5.1268,5.0859,5.0119,5.0242,5.0659,5.1268,5.1475,5.1875,5.2445,5.2445,5.1641,5.0408,5.1123,4.9969,4.808,4.8672,4.8761,4.8463,4.8161,4.84,4.8821,4.8256,4.8509,4.8989,4.863,4.8759,4.9046,4.8606,4.7825,4.706,4.7003,4.5841,4.4626,4.4626,4.4626,4.4587,4.4587,4.444,4.431,4.431,4.4212,4.4172,4.4172,4.4172,4.4212,4.431,4.431,4.4162,4.3647,4.3571,4.3267,4.2574,4.1971,4.132,4.0684,4.0662,4.057,4.0123,4.0123,4.0096,4.0055,4.0116,4.0619,4.1634,4.1814,4.2201,4.2872,4.3087,4.3164,4.3164,4.3229,4.3262,3.4257,3.4651,3.477,3.4017,3.2294,2.9732,2.5938,0.0,2.065,1.7556,1.6492,1.6414,1.7291,1.7885,1.9147,0.0,2.3211,2.5306,2.9484,0.0,0.0,0.0,0.0,0.0,0.0,0.0,4.6403,4.6784,4.7016,4.7347,4.7888,4.8743,4.944,4.9852,4.9931,5.0103,5.0691,5.0691,5.0538,5.0306,5.0306,5.0135,4.9805,4.9868,5.0041,5.0306,5.0368,5.0522,5.0659,5.0209,4.9613,4.8882,4.8355,4.7611,4.6703,4.6509,4.6619,4.6932,4.6673,4.6932,4.7272,4.7017,4.6949,4.7137,4.7539,4.7835,4.7933,4.7638,4.6664,4.5682,4.5636,4.4699,4.3814,4.3814,4.4064,4.4286,4.4286,4.4212,4.4212,4.4212,4.4155,4.4097,4.4097,4.4097,4.3964,4.3588,4.3512,4.3317,4.2691,4.2316,4.2078,4.1836,4.1645,4.1422,4.115,4.1008,4.0642,4.0055,4.0214,4.0356,4.0325,4.0325,4.0785,4.1868,4.1947,4.2217,4.2696,4.2883,4.2945,4.2805,4.2945,4.3007,3.1158,3.2034,3.25,3.193,2.9861,2.7263,0.0,2.1827,1.9235,1.7163,1.6266,1.616,1.7191,1.7579,1.8382,0.0,2.1269,2.2987,2.64,2.9201,0.0,0.0,0.0,4.2175,0.0,4.5547,4.597,4.6135,4.597,4.606,4.6417,4.7518,4.83,4.8712,4.8712,4.8957,4.9392,4.9392,4.9311,4.9231,4.9231,4.9085,4.8841,4.8841,4.9004,4.9231,4.9231,4.9202,4.9047,4.8624,4.795,4.7168,4.6421,4.577,4.5325,4.4936,4.5153,4.5551,4.53,4.5447,4.5593,4.5447,4.5243,4.5184,4.5977,4.6609,4.6968,4.6678,4.5726,4.461,4.414,4.3488,4.2909,4.2909,4.3185,4.3502,4.3502,4.3443,4.3383,4.3383,4.3383,4.3323,4.3323,4.3323,4.3185,4.2675,4.2613,4.2363,4.1804,4.1459,4.1142,4.0956,4.1075,4.1142,4.1209,4.1039,4.0717,4.0168,4.0388,4.052,4.0651,4.0651,4.1083,4.1916,4.198,4.2109,4.2429,4.2571,4.2634,4.2634,4.2775,4.2837,2.754,2.894,3.0098,3.0098,2.8007,2.5681,0.0,2.1158,1.7877,1.7383,1.6543,1.6201,1.7151,1.7772,1.8542,1.9612,2.0843,2.3008,2.6777,2.8935,0.0,0.0,0.0,4.0075,4.2748,4.4763,4.588,4.588,4.588,4.588,4.588,4.588,4.655,4.7758,4.7843,4.8232,4.9103,4.9103,4.8712,4.7843,4.7843,4.7377,4.6594,4.6594,4.7061,4.7843,4.7843,4.7947,4.8184,4.8215,4.6949,4.512,4.5834,4.5126,4.3741,4.454,4.4706,4.451,4.4205,4.4113,4.4037,4.3446,4.3225,4.3319,4.3521,4.4887,4.6214,4.5841,4.5091,4.4071,4.2719,4.2141,4.1997,4.1997,4.1997,4.1997,4.1997,4.1869,4.1723,4.1723,4.1625,4.1525,4.1525,4.1525,4.1575,4.1658,4.1723,4.1543,4.106,4.1008,4.0752,4.0066,4.0207,4.0331,4.0524,4.0524,4.0524,4.0524,4.0524,4.0646,4.1055,4.1122,4.1256,4.1588,4.1588,4.1785,4.2109,4.2109,4.2302,4.2634,4.2634,4.2634,2.3413,2.465,2.5496,2.4625,2.3604,2.2477,2.0798,1.8868,1.7145,1.6234,1.5992,1.6213,1.7111,1.7772,1.9023,2.156,0.0,0.0,0.0,0.0,0.0,3.4998,3.9745,4.3372,0.0,0.0,4.588,4.588,4.5459,4.5198,4.5198,4.4821,4.5142,4.6432,4.6093,4.6223,4.7088,4.6741,4.667,4.6989,4.6989,4.6577,4.5902,4.5902,4.5448,4.4791,4.5365,4.5232,4.4596,4.4802,4.4039,4.2678,4.2436,4.1619,4.0632,4.0647,4.1026,4.1414,4.1136,4.1274,4.1604,4.2114,4.2091,4.1874,4.2342,4.3066,4.3592,4.2924,4.2759,4.2416,4.1055,4.094,4.1111,4.1111,4.1377,4.1641,4.1641,4.1641,4.1559,4.1559,4.1509,4.1525,4.1525,4.1525,4.1393,4.0925,4.0857,4.0653,4.0021,4.0021,4.0021,3.9839,3.9996,4.0137,4.0347,4.047,4.0524,4.0524,4.0524,4.0524,4.0662,4.0662,4.0867,4.1256,4.1272,4.139,4.1785,4.1785,4.1916,4.2238,4.2492,4.2634,0.0,2.0952,2.2023,2.1523,2.0749,1.9811,1.8733,1.7137,1.5722,1.5324,1.5252,1.5565,1.6528,1.7399,1.865,2.0807,2.1858,0.0,0.0,0.0,0.0,3.4133,0.0,0.0,0.0,4.4407,4.4888,4.4888,4.4498,4.4267,4.4267,4.3643,4.3875,4.5037,4.4763,4.4836,4.5317,4.4631,4.4543,4.5022,4.4726,4.4317,4.3916,4.3916,4.3347,4.2519,4.3093,4.2789,0.0,4.2077,4.1592,4.0628,4.0124,3.9536,3.9006,3.8711,3.8925,3.9399,3.9149,3.9297,3.9532,4.0106,4.0206,4.0134,4.0062,4.1042,4.182,4.0867,4.0761,4.0632,3.9254,3.9334,3.9748,3.9748,4.0239,4.0737,4.0737,4.0737,4.0737,4.0737,4.0737,4.0737,4.0737,4.0737,4.0531,4.0146,4.0076,3.995,3.9481,3.9481,3.9625,3.9625,3.9783,3.9925,4.0051,4.0191,4.0331,4.0331,4.0401,4.0401,4.0401,4.0455,4.0593,4.0867,4.0867,4.107,4.139,4.1522,4.1573,4.1607,4.2158,4.2142,0.0,1.7663,1.9263,2.0118,1.8829,1.7491,1.8006,1.5863,0.0,1.4578,1.444,1.4532,1.5608,1.6762,1.7762,1.8403,0.0,0.0,0.0,2.7054,0.0,0.0,3.723,0.0,3.9881,4.1812,4.3062,4.3062,4.3019,4.3005,4.3005,4.2298,4.2331,4.3242,4.3459,4.3705,4.3892,4.2814,4.234,4.2382,4.154,4.1039,4.0998,4.0998,4.0985,4.0838,4.0944,4.0645,3.9974,4.0065,3.9726,3.9019,3.8725,3.8622,3.8532,3.8249,3.8145,3.8145,3.7808,3.7834,3.7834,3.7704,3.7912,3.8105,3.7232,3.8898,4.0855,3.9548,3.9126,3.8762,3.7438,3.7615,3.8127,3.8127,3.8649,3.9192,3.9192,3.9192,3.9192,3.9192,3.9192,3.9192,3.9192,3.9192,3.9265,3.9337,3.9337,3.9337,3.9337,3.9337,3.9352,3.9352,3.9553,3.9696,3.9696,3.9854,4.0011,4.0011,4.0207,4.0277,4.0277,4.0401,4.0455,4.0455,4.0385,4.0593,4.0919,4.1241,4.1142,4.0622,4.1541,4.1245,1.1473,0.0,1.4601,1.4637,1.4484,1.441,0.0,1.3847,1.327,0.0,0.0,1.4779,1.6673,1.7608,1.9102,2.2124,0.0,0.0,2.736,0.0,0.0,3.6497,3.8149,3.9371,4.0224,4.0732,4.1066,4.1053,4.0631,4.0282,4.0282,3.964,3.937,3.9652,3.9652,4.0755,4.2842,4.1474,4.1009,4.1448,4.1251,4.0835,4.0427,4.0427,3.9715,3.8648,3.9348,3.8996,3.807,3.8863,3.8498,3.7468,3.7468,3.6938,3.6332,3.6036,3.5928,3.5833,3.4739,3.4751,3.5355,3.5916,3.6351,3.6701,3.6539,3.8209,3.9626,3.7367,3.7757,3.8454,3.6702,3.671,3.7218,3.7218,3.7357,3.751,3.751,3.751,3.751,3.751,3.751,3.751,3.751,3.751,3.7677,3.8352,3.8501,3.8501,3.8501,3.9031,3.9192,3.8575,3.9104,3.9481,3.9481,3.9783,4.0011,4.0011,4.0066,4.0137,4.0277,3.9895,3.9737,3.9895,3.9451,3.922,3.9349,3.9677,3.9804,3.9647,4.0124,4.0178,0.9814,1.1303,1.2819,1.3403,1.3543,1.3616,1.3922,0.0,0.0,0.0,0.0,0.0,1.5703,0.0,0.0,0.0,2.4084,0.0,0.0,0.0,3.4304,3.6081,3.7222,3.7997,3.8483,3.8897,3.9177,3.9243,3.8859,3.8687,3.8687,3.8005,3.7821,3.8262,3.7547,3.8215,4.0584,3.9382,3.8938,3.9217,3.8778,3.8447,3.808,3.808,3.7632,3.6803,3.682,3.642,3.5891,3.5792,3.5399,3.4872,3.4776,3.4435,3.3895,3.3697,3.3499,3.34,3.2566,3.2465,3.2767,3.3032,3.3307,3.3592,3.4009,3.5132,3.6014,3.5226,3.5716,3.6161,3.4638,3.4817,3.548,3.5748,3.6146,3.6554,3.6802,3.688,3.688,3.688,3.688,3.688,3.688,3.688,3.7049,3.7539,3.7615,3.7615,3.7615,3.7994,3.8084,3.7615,3.7994,3.8234,3.8234,3.8442,3.8767,3.9177,3.922,3.9133,3.8884,3.8664,3.8679,3.8972,3.8679,3.8605,3.8782,3.8987,3.8899,3.8664,3.929,3.9218,0.958,1.1056,1.2771,1.3852,1.392,1.3914,1.4218,0.0,0.0,0.0,0.0,0.0,0.0,0.0,0.0,0.0,0.0,0.0,3.13,3.2659,3.3669,3.4703,3.5571,3.6036,3.6036,3.6883,3.7348,3.7348,3.7348,3.7348,3.7348,3.6709,3.6777,3.756,3.6225,3.6213,3.7873,3.7099,3.6752,3.6752,3.5966,3.5512,3.532,3.532,3.5211,3.5005,3.4091,3.3685,3.3586,3.2655,3.2241,3.214,3.1971,3.1971,3.1869,3.144,3.1235,3.1224,3.0781,3.0596,3.0411,3.0317,3.0224,3.0421,3.1165,3.1427,3.1807,3.2829,3.3392,3.3568,3.2396,3.2784,3.35,3.4113,3.4844,3.548,3.6067,3.6225,3.6225,3.6318,3.6411,3.6411,3.6489,3.6503,3.6568,3.6738,3.6738,3.6738,3.6738,3.6802,3.688,3.6724,3.6802,3.688,3.688,3.688,3.7141,3.781,3.8055,3.7814,3.7127,3.7295,3.751,3.7724,3.7724,3.7904,3.8323,3.8412,3.8188,3.7658,3.8517,3.8352,1.0057,1.2064,1.3575,1.253,1.2814,1.3322,0.0,0.0,0.0,0.0,0.0,0.0,0.0,0.0,0.0,0.0,0.0,2.9641,0.0,0.0,3.3669,3.4703,0.0,3.5017,3.5017,3.5199,3.5295,3.5295,3.5295,3.5295,3.5295,3.5102,3.5199,3.5283,3.5017,3.5102,3.5367,3.5679,3.5787,3.5787,3.5704,3.5114,3.4299,3.4299,3.3674,3.2844,3.2644,3.2454,3.2275,3.2072,3.1869,3.1666,3.1677,3.1677,3.1462,3.0202,2.9632,2.9538,2.9036,2.8906,2.9102,2.9713,2.9922,3.0026,3.013,3.0003,2.9621,2.9466,3.1329,3.3036,3.1805,3.1965,3.255,3.2636,3.2722,3.287,3.2955,3.3041,3.3224,3.3784,3.3953,3.4121,3.4703,3.4786,3.5019,3.5736,3.5896,3.5896,3.5896,3.6503,3.666,3.5976,3.6503,3.688,3.688,3.688,3.666,3.6136,3.6738,3.6894,3.6452,3.661,3.6545,3.6097,3.6097,3.6097,3.6177,3.6601,3.6693,3.6628,3.7134,3.748,0.9252,1.0762,1.2261,1.2422,1.4012,1.5539,0.0,0.0,0.0,0.0,0.0,0.0,0.0,0.0,0.0,2.7008,0.0,3.0462,3.2452,3.2919,3.3551,0.0,3.4823,3.4823,3.4823,3.4823,3.4823,3.4823,3.4823,3.4823,3.4823,3.4823,3.4823,3.4823,3.4823,3.4519,3.3918,3.4213,3.4617,3.5126,3.4617,3.4005,3.3598,3.2989,3.2376,3.1858,3.1235,3.0607,2.986,2.9242,2.8493,2.7611,2.7611,2.7494,2.7261,2.6587,2.6245,2.6037,2.5837,2.6118,2.6617,2.7041,2.759,2.8213,2.859,2.8304,2.8056,2.8229,2.9672,3.0997,3.0137,3.0554,3.127,3.1625,3.1725,3.1889,3.2227,3.2302,3.2401,3.276,3.2846,3.2932,3.3177,3.3262,3.342,3.3817,3.3901,3.3998,3.4454,3.4759,3.4828,3.4538,3.4759,3.4979,3.4979,3.4979,3.5237,3.5669,3.5575,3.5494,3.5264,3.5345,3.5359,3.5399,3.5399,3.548,3.571,3.5884,3.6058,3.6058,3.6534,3.7079,0.8684,0.9717,1.11,1.2367,0.0,0.0,0.0,0.0,0.0,0.0,0.0,0.0,0.0,0.0,0.0,2.8573,2.9839,3.0932,3.2402,3.2592,3.303,3.415,3.4258,3.4258,3.4354,3.4366,3.4366,3.4366,3.4486,3.4546,3.4449,3.4569,3.464,3.464,3.4421,3.3808,3.2989,3.2789,3.3089,3.4017,3.3201,3.2689,3.2376,3.1575,3.1062,3.0639,2.9817,2.8744,2.7542,2.6608,2.5516,2.4172,2.4172,2.383,2.3263,2.3263,2.3159,2.283,2.283,2.3519,2.4334,2.4334,2.4948,2.5811,2.6536,2.638,2.6212,2.7013,2.7918,2.8603,2.8427,2.8899,2.9738,3.0476,3.0656,3.0925,3.1613,3.1789,3.1877,3.2052,3.2052,3.214,3.2302,3.2302,3.2302,3.2302,3.2302,3.2488,3.3031,3.3129,3.3129,3.3129,3.3129,3.3129,3.3129,3.33,3.3882,3.5101,3.4716,3.4397,3.4397,3.4397,3.4577,3.4908,3.4908,3.5072,3.5386,3.548,3.5562,3.5575,3.6266,3.6893,0.9372,1.0434,1.1473,1.2022,0.0,0.0,0.0,0.0,0.0,0.0,0.0,0.0,0.0,2.4052,2.6801,2.7163,2.9297,3.1125,3.1689,3.1772,3.1971,3.263,3.27,3.2783,3.2971,3.3076,3.3076,3.3076,3.3458,3.3636,3.3408,3.3891,3.4174,3.4174,3.3101,3.2577,3.2465,3.144,3.1235,3.1779,3.1779,3.1165,3.012,3.0026,2.9303,2.8165,2.8057,2.7168,2.5726,2.5735,2.4948,2.383,2.383,2.2927,2.1813,2.1813,2.1601,2.1395,2.1395,2.2191,2.3087,2.3087,2.2983,2.3031,2.4088,2.3894,2.3624,2.4766,2.5471,2.6207,2.7105,2.7379,2.7662,2.862,2.891,2.9187,3.0114,3.0397,3.0566,3.1205,3.1395,3.156,3.2227,3.2302,3.2302,3.2302,3.2302,3.2314,3.2401,3.2401,3.2401,3.2401,3.2401,3.2401,3.2401,3.3031,3.3484,3.3556,3.4063,3.4397,3.4397,3.4397,3.4397,3.4481,3.4481,3.4481,3.4481,3.4908,3.5154,3.5154,3.6033,3.704,0.8778,1.0279,1.1943,1.2798,0.0,0.0,0.0,0.0,0.0,0.0,0.0,0.0,0.0,0.0,2.6939,2.7554,2.9229,3.0775,3.139,3.1552,3.1739,3.243,3.2489,3.2583,3.2676,3.2676,3.2676,3.2676,3.2274,3.1995,3.1888,3.1465,3.1261,3.1261,3.0844,3.0249,2.9658,2.9154,2.8799,2.8595,2.9579,2.9817,2.9398,2.7883,2.6924,2.64,2.5726,2.4616,2.3407,2.3407,2.262,2.1266,2.1152,2.0709,2.0256,2.0256,2.0148,2.0046,2.0046,2.0708,2.1541,2.1541,2.1868,2.2201,2.229,2.2241,2.2291,2.2894,2.3435,2.4106,2.5664,2.6617,2.7274,2.7463,2.8143,2.8817,2.9198,2.9749,3.0306,3.0578,3.0578,3.0668,3.0913,3.1003,3.1003,3.1003,3.1003,3.1181,3.1637,3.1637,3.1637,3.1637,3.1637,3.1637,3.1637,3.2326,3.276,3.276,3.3797,3.423,3.381,3.381,3.3543,3.3091,3.3543,3.381,3.381,3.4397,3.4647,3.466,3.5375,3.6275,0.8781,1.0188,1.192,0.0,0.0,0.0,0.0,0.0,0.0,0.0,0.0,0.0,0.0,0.0,0.0,0.0,2.9319,3.0433,3.0985,3.1043,3.1251,3.1681,3.1809,3.1809,3.1902,3.1902,3.1809,3.1425,3.0891,3.0481,3.0108,2.9547,2.9218,2.9218,2.8911,2.8325,2.7643,2.7258,2.6699,2.5862,2.6844,2.7632,2.7902,2.5936,2.4956,2.4837,2.4053,2.295,2.1851,2.1851,2.0945,1.9584,1.9004,1.8771,1.8765,1.8298,1.8181,1.8169,1.8075,1.8479,1.907,1.9326,1.9747,2.0197,2.0416,2.0475,2.0651,2.1232,2.1582,2.1996,2.3176,2.4856,2.6244,2.632,2.6999,2.7673,2.8049,2.8609,2.9165,2.9165,2.9452,2.9749,2.9749,3.0034,3.0216,3.0216,3.0216,3.0397,3.0847,3.0937,3.0937,3.0937,3.0937,3.0937,3.0937,3.1637,3.1965,3.1965,3.3091,3.353,3.3031,3.3031,3.2859,3.2302,3.3031,3.3398,3.3398,3.3894,3.4063,3.4076,3.4379,3.4979,0.9533,1.0253,0.0,0.0,0.0,0.0,0.0,0.0,0.0,0.0,0.0,0.0,0.0,0.0,0.0,2.7905,2.9319,3.0216,3.0216,3.0216,3.0216,3.0216,3.0216,3.0306,3.0578,3.0578,3.0204,2.9176,2.9504,2.9211,2.799,2.8406,2.8645,2.8645,2.7522,2.7016,2.7016,2.5947,2.4814,2.3728,2.3622,2.4329,2.5507,2.4378,2.359,2.3375,2.3375,2.2492,2.1167,2.1167,2.0493,1.9243,1.7923,1.7449,1.7331,1.6037,1.5564,1.5531,1.5406,1.5313,1.5391,1.6411,1.6261,1.626,1.8527,1.8745,1.8589,1.9723,2.0033,1.993,1.9627,2.1887,2.4341,2.5099,2.5294,2.5577,2.6597,2.6788,2.6788,2.6788,2.7851,2.8724,2.8724,2.9566,3.0216,3.0216,3.0216,3.0216,3.0216,3.0216,3.0216,3.0216,3.0216,3.0216,3.0216,3.0847,3.1306,3.1306,3.1889,3.2302,3.2302,3.2302,3.2302,3.2314,3.3031,3.3398,3.3398,3.3398,3.3398,3.3398,3.3091,3.3368,0.9234,1.103,0.0,0.0,0.0,0.0,0.0,0.0,0.0,0.0,0.0,0.0,0.0,0.0,0.0,2.701,2.8854,3.0216,3.0216,3.0216,3.0216,3.0216,3.0216,3.0216,3.0306,2.9658,2.9187,2.8817,2.761,2.6734,2.6366,2.5799,2.557,2.557,2.5182,2.4992,2.4992,2.3886,2.3305,2.3237,2.165,2.1676,2.3104,2.19,2.1251,2.1141,2.0265,1.9731,1.9186,1.8493,1.7464,1.646,1.5926,1.5851,1.587,1.5347,1.5172,1.5161,1.4858,1.4611,1.4457,1.4611,1.4323,1.4348,1.5534,1.6016,1.6387,1.8073,1.87,1.9005,1.942,2.0444,2.1464,2.2282,2.3791,2.5089,2.5363,2.6021,2.6481,2.6481,2.7547,2.8226,2.7463,2.898,2.9932,2.9279,2.9749,3.0216,3.0216,3.0216,3.0216,3.0216,3.0216,3.0216,3.0216,3.0397,3.0487,3.0487,3.0746,3.1104,3.156,3.1637,3.1371,3.0824,3.1548,3.1913,3.1913,3.2413,3.2673,3.2575,3.2562,3.2822,1.0149,0.0,0.0,0.0,0.0,0.0,0.0,0.0,0.0,0.0,0.0,0.0,2.4272,2.5447,0.0,2.6806,2.8043,2.898,2.898,2.898,2.9176,2.9566,2.9268,2.9176,2.9566,2.8713,2.7966,2.7589,2.636,2.5499,2.5118,2.4538,2.4152,2.4152,2.4152,2.3945,2.3546,2.2828,2.2223,2.1498,2.0144,1.9835,2.0255,1.9772,1.9573,1.9566,1.836,1.7811,1.7693,1.6558,1.5733,1.5161,1.4334,1.4137,1.4129,1.3417,1.3141,1.3127,1.2932,1.2707,1.259,1.2726,1.2612,1.262,1.3593,1.425,1.4905,1.618,1.6922,1.7555,1.7969,1.8596,1.9324,2.0349,2.176,2.2968,2.3384,2.3962,2.4534,2.4944,2.6118,2.6798,2.6118,2.7547,2.8495,2.8038,2.8516,2.898,2.898,2.9371,2.9566,2.9566,2.9566,2.9566,2.9566,2.9566,2.9566,2.9566,2.9943,3.0397,3.0847,3.0847,3.0668,3.0216,3.0937,3.1306,3.1306,3.1725,3.1889,3.1889,3.1613,3.1613,0.0,0.0,0.0,0.0,0.0,0.0,0.0,0.0,0.0,0.0,0.0,2.3994,2.5334,2.5361,2.5585,2.6843,2.7094,2.7189,2.7189,2.7189,2.7568,2.8434,2.7767,2.7568,2.8434,2.7662,2.6723,2.579,2.5596,2.5118,2.4251,2.4152,2.4152,2.4152,2.4053,2.3546,2.2526,2.2316,2.1183,1.9124,1.9124,1.8506,1.7602,1.8156,1.841,1.8183,1.7049,1.6486,1.6263,1.5233,1.4676,1.4466,1.2989,1.2429,1.2328,1.0831,1.0256,1.0237,1.0085,1.0029,1.0115,1.0945,1.1105,1.1105,1.229,1.3166,1.3948,1.4164,1.4922,1.5785,1.5891,1.663,1.7786,1.9013,1.942,1.9834,2.0869,2.1081,2.1395,2.2426,2.3809,2.4688,2.459,2.5635,2.6481,2.6693,2.6979,2.7094,2.7094,2.7955,2.8527,2.8527,2.8527,2.8527,2.8527,2.8527,2.8527,2.8527,2.9474,3.0034,3.0034,3.0125,3.0216,3.0216,3.0847,3.1217,3.1217,3.1217,3.1217,3.1205,3.0487,3.0216,0.0,0.0,0.0,0.0,0.0,0.0,0.0,0.0,0.0,0.0,2.4079,2.4141,2.4421,2.5139,2.5673,2.5954,2.6723,2.7189,2.7189,2.7189,2.7284,2.7474,2.7379,2.7284,2.7474,2.6628,2.5974,2.5693,2.4922,2.444,2.4251,2.4152,2.4152,2.4152,2.3338,2.2728,2.2526,2.0775,1.9539,1.8923,1.8199,1.7687,1.7285,1.7616,1.7342,1.6466,1.6144,1.5058,1.3317,1.2874,1.2206,1.1448,1.0747,1.0551,1.065,1.0077,0.9921,0.9917,0.9658,0.9539,0.9529,0.9493,0.9372,0.9588,1.0777,1.1324,1.1873,1.3727,1.4385,1.4815,1.5678,1.6105,1.6311,1.6617,1.7969,1.9324,1.9642,1.9642,1.9746,1.9952,2.1744,2.295,2.2181,2.4436,2.6386,2.6481,2.6577,2.6577,2.6577,2.6979,2.7169,2.7169,2.7379,2.7474,2.7474,2.7474,2.7474,2.7474,2.8434,2.9002,2.9002,2.9749,3.0216,3.0216,3.0397,3.0397,3.0397,3.0397,3.0397,3.0397,3.0306,3.0216,0.0,0.0,0.0,0.0,0.0,0.0,0.0,0.0,0.0,2.3538,2.3886,2.4152,2.4152,2.4637,2.502,2.502,2.5392,2.5771,2.5771,2.5771,2.5954,2.6436,2.6051,2.5964,2.6446,2.5586,2.502,2.502,2.4538,2.4152,2.4152,2.3529,2.3229,2.3338,2.1996,2.1073,2.0775,1.9428,1.8499,1.7779,1.7364,1.6836,1.6199,1.6399,1.5855,1.4669,1.4024,1.3053,1.1869,1.1223,1.063,1.0162,0.9739,0.9647,0.9709,0.9518,0.9379,0.9379,0.9158,0.9158,0.9158,0.894,0.894,0.9047,0.9699,1.0241,1.1,1.22,1.2965,1.3614,1.4809,1.5137,1.5244,1.5785,1.6829,1.7772,1.8304,1.8408,1.861,1.9124,2.0231,2.1041,2.1081,2.3176,2.4767,2.4767,2.4865,2.4963,2.4963,2.5548,2.5935,2.5935,2.6031,2.6137,2.6137,2.6137,2.6137,2.6137,2.7074,2.7558,2.7558,2.8215,2.9073,3.0216,2.9749,2.9749,3.0216,3.0216,3.0216,3.0216,3.0216,2.9932,0.0,0.0,0.0,0.0,0.0,0.0,0.0,0.0,0.0,2.2848,2.3538,2.4051,2.4051,2.4106,2.4152,2.4152,2.4152,2.4152,2.4152,2.4152,2.4538,2.5304,2.4735,2.4538,2.5401,2.4637,2.4152,2.4152,2.4053,2.3945,2.3746,2.2702,2.1996,2.2106,2.0554,1.942,1.8715,1.829,1.7562,1.663,1.6411,1.5761,1.4572,1.4669,1.4019,1.294,1.1973,1.1433,1.1109,1.0139,0.9706,0.9706,0.9379,0.9268,0.9268,0.9047,0.894,0.894,0.894,0.894,0.894,0.894,0.894,0.894,0.894,0.9588,1.0457,1.0672,1.1324,1.2417,1.3619,1.4056,1.4493,1.5351,1.5779,1.6205,1.7054,1.7265,1.7575,1.8499,1.8812,1.9332,2.0364,2.1607,2.2325,2.2325,2.2526,2.2728,2.2728,2.3393,2.398,2.398,2.4079,2.4177,2.4285,2.4393,2.4393,2.4599,2.5538,2.6098,2.6098,2.631,2.7453,2.9543,2.8806,2.891,2.9932,2.9749,2.9738,2.9943,2.9749,2.9279,0.0,0.0,0.0,0.0,0.0,0.0,0.0,0.0,2.2511,0.0,2.3308,2.362,2.362,2.3914,2.4152,2.4152,2.4152,2.4152,2.4152,2.4152,2.4251,2.4341,2.4251,2.4251,2.435,2.4053,2.3845,2.3845,2.3646,2.3029,2.2097,2.1895,2.1277,2.0341,1.9213,1.8596,1.8499,1.7457,1.6736,1.6324,1.5339,1.4245,1.3043,1.2077,1.1647,1.176,1.1542,1.0895,1.0033,0.9596,0.9489,0.9379,0.9047,0.894,0.894,0.894,0.894,0.894,0.894,0.894,0.894,0.894,0.894,0.894,0.894,0.9047,0.9372,1.0457,1.0781,1.1214,1.2309,1.3398,1.4277,1.4379,1.5137,1.5891,1.6099,1.6099,1.6205,1.6311,1.7153,1.8199,1.9228,1.9539,1.9746,1.9746,1.9746,1.9738,1.9738,2.004,2.0341,2.0341,2.0538,2.1049,2.208,2.2089,2.2501,2.3538,2.4501,2.508,2.508,2.5178,2.5838,2.7263,2.7369,2.7861,2.891,2.8049,2.8049,2.891,2.8038,2.7568,0.0,0.0,0.0,0.0,0.0,0.0,0.0,0.0,2.1024,2.1331,2.2195,2.2933,2.3076,2.3363,2.3483,2.3483,2.3483,2.3483,2.3483,2.3377,2.3363,2.3581,2.3519,2.3511,2.3728,2.3655,2.3338,2.271,2.3138,2.2619,2.0853,2.0656,2.0135,1.9109,1.7765,1.7041,1.7252,1.663,1.5885,1.5137,1.3932,1.2733,1.1642,1.1105,1.0566,1.0025,1.0025,0.9809,0.9265,0.9158,0.9158,0.9158,0.894,0.894,0.894,0.894,0.894,0.894,0.894,0.894,0.894,0.894,0.894,0.894,0.894,0.894,0.9047,0.9588,0.9699,0.9915,1.1109,1.1873,1.2417,1.3073,1.4051,1.4922,1.4922,1.5458,1.5891,1.5891,1.6842,1.7786,1.8199,1.8812,1.9228,1.9228,1.9228,1.9228,1.9228,1.9324,1.9428,1.9428,1.9531,2.004,2.1183,2.1285,2.17,2.2846,2.3338,2.3619,2.3619,2.3926,2.4313,2.4875,2.5751,2.6713,2.7861,2.7379,2.7474,2.7861,2.7379,2.6904,0.0,0.0,0.0,0.0,0.0,0.0,0.0,0.0,1.9276,0.0,2.0516,2.1296,2.1608,2.2326,2.2857,2.2857,2.2857,2.2762,2.2753,2.2555,2.2568,2.2865,2.2716,2.2638,2.2705,2.2641,2.2127,2.1002,2.172,2.1311,1.9271,1.8972,1.8458,1.7542,1.6311,1.5828,1.6113,1.5642,1.4917,1.3727,1.2526,1.1546,1.0672,1.0347,0.9695,0.894,0.894,0.894,0.8826,0.8605,0.8491,0.8491,0.8491,0.8491,0.8491,0.8826,0.894,0.894,0.894,0.894,0.894,0.894,0.894,0.894,0.894,0.894,0.894,0.894,0.894,0.9154,1.0021,1.0457,1.0891,1.176,1.3073,1.4277,1.46,1.5351,1.5891,1.5891,1.663,1.716,1.716,1.7877,1.8394,1.8394,1.8394,1.8394,1.8394,1.8394,1.8394,1.8394,1.8394,1.8812,1.9952,2.0063,2.0577,2.1615,2.2021,2.2131,2.2131,2.2846,2.3247,2.3347,2.4223,2.5382,2.6809,2.6426,2.6426,2.6713,2.6426,2.5858,0.0,0.0,0.0,0.0,0.0,0.0,0.0,0.0,1.7733,1.8047,1.8198,1.8226,1.8211,2.0806,2.2857,2.265,2.265,2.2555,2.2271,2.2271,2.228,2.2203,2.2203,2.1813,2.0942,2.0652,2.0063,1.9071,1.8784,1.82,1.7027,1.6927,1.6439,1.5346,1.5149,1.527,1.5517,1.4697,1.3727,1.2526,1.1324,1.0781,1.0672,0.9482,0.8937,0.894,0.894,0.894,0.8826,0.7709,0.7152,0.7152,0.7152,0.7152,0.7374,0.8491,0.894,0.894,0.894,0.894,0.894,0.894,0.894,0.894,0.894,0.894,0.894,0.894,0.894,0.894,0.8937,0.9805,1.0672,1.0781,1.2526,1.4493,1.5565,1.5891,1.5891,1.5891,1.5998,1.5998,1.5998,1.5992,1.6099,1.6099,1.6099,1.6099,1.6099,1.6099,1.6099,1.6099,1.6099,1.6524,1.7681,1.7793,1.8199,1.9332,2.0364,2.0987,2.0987,2.2021,2.2745,2.3046,2.3046,2.4026,2.579,2.4322,2.4223,2.5392,2.4421,2.3845,0.0,0.0,0.0,0.0,0.0,0.0,0.0,1.4777,1.5918,1.627,1.6961,1.7567,1.7727,1.8819,1.9715,1.9621,1.9621,1.9613,1.9528,1.9909,2.0374,2.0523,2.0462,2.0363,2.0192,1.9521,1.8641,1.7563,1.805,1.7563,1.5802,1.6386,1.6293,1.5107,1.5107,1.4844,1.4202,1.3138,1.2126,1.0966,0.9804,0.933,0.9432,0.9005,0.8845,0.894,0.894,0.894,0.8826,0.838,0.782,0.7152,0.7152,0.7152,0.7152,0.7598,0.8266,0.894,0.894,0.894,0.894,0.894,0.894,0.894,0.894,0.894,0.894,0.894,0.894,0.894,0.894,0.9265,0.9699,1.0566,1.1328,1.2526,1.4379,1.5351,1.5891,1.5891,1.5891,1.5891,1.5891,1.5891,1.5891,1.5891,1.5891,1.5891,1.5891,1.5891,1.5891,1.5891,1.5891,1.6311,1.7477,1.7582,1.8101,1.9124,1.9539,1.9849,1.9849,2.1089,2.1497,2.0869,2.1489,2.271,2.4233,2.2911,2.2501,2.2985,2.1878,2.1269,0.0,0.0,0.0,0.0,0.0,0.0,1.1427,0.0,1.387,1.4398,1.5183,1.5871,1.6199,1.6366,1.6764,1.7717,1.794,1.7848,1.7755,1.8226,1.8682,1.891,1.8761,1.8658,1.849,1.7925,1.7058,1.5999,1.6576,1.638,1.4935,1.5518,1.5611,1.4835,1.4613,1.3836,1.271,1.1658,1.0556,0.9522,0.8689,0.8431,0.8632,0.8632,0.8689,0.8784,0.8679,0.8736,0.8826,0.8491,0.7595,0.648,0.648,0.6258,0.6035,0.6816,0.7598,0.838,0.8716,0.894,0.894,0.894,0.894,0.894,0.894,0.894,0.894,0.894,0.894,0.894,0.894,0.894,0.9154,1.0457,1.0672,1.1328,1.3732,1.4815,1.5458,1.5785,1.5891,1.5891,1.5891,1.5891,1.5891,1.5891,1.5891,1.5891,1.5891,1.5891,1.5891,1.5891,1.5891,1.6205,1.6948,1.7054,1.7364,1.808,1.8401,1.861,1.861,1.9952,2.0254,1.9531,2.0254,2.1081,2.2005,2.1277,2.0869,2.0963,2.0238,1.9826,0.0,0.0,0.0,0.0,0.0,0.0,0.9758,0.0,1.1586,1.2457,1.2816,1.309,1.3381,1.3483,1.4377,1.7143,1.7524,1.7446,1.7282,1.7188,1.7282,1.7289,1.7296,1.6828,1.5886,1.5798,1.533,1.4388,1.4298,1.4298,1.4298,1.4298,1.4298,1.4292,1.3543,1.2363,1.0956,1.0137,0.9194,0.8056,0.8056,0.8266,0.8476,0.8476,0.8479,0.8482,0.8171,0.8441,0.8816,0.7593,0.6478,0.5472,0.5472,0.4693,0.3804,0.6146,0.7041,0.7263,0.838,0.883,0.883,0.8937,0.894,0.894,0.894,0.894,0.894,0.894,0.894,0.894,0.894,0.894,0.9154,1.0347,1.0672,1.1328,1.3619,1.4056,1.4487,1.5678,1.5891,1.5891,1.5891,1.5891,1.5891,1.5891,1.5891,1.5891,1.5891,1.5891,1.5891,1.5891,1.5891,1.5891,1.5891,1.5891,1.5891,1.5891,1.6948,1.7582,1.7582,1.861,1.9124,1.9124,1.9124,1.9124,1.9124,1.9124,1.9324,1.9524,1.9524,1.9524,0.4244,0.0,0.0,0.0,0.0,0.0,0.0,0.0,0.9826,1.0985,1.1447,1.1854,1.2512,1.2801,1.3212,1.418,1.4495,1.4701,1.4814,1.5484,1.6023,1.6142,1.617,1.6075,1.5798,1.514,1.458,1.4298,1.4298,1.4298,1.4298,1.4298,1.3908,1.3216,1.2894,1.1845,0.9677,0.943,0.8758,0.7452,0.7452,0.7607,0.7808,0.7808,0.7865,0.7963,0.7858,0.8017,0.8324,0.8084,0.7078,0.5819,0.6151,0.4693,0.2347,0.3016,0.4355,0.6031,0.7149,0.7598,0.7712,0.8605,0.894,0.894,0.894,0.894,0.894,0.894,0.894,0.894,0.894,0.894,0.8937,0.9372,0.9372,0.9805,1.1328,1.1655,1.2521,1.5345,1.5891,1.5891,1.5891,1.5891,1.5891,1.5891,1.5891,1.5891,1.5891,1.5891,1.5891,1.5891,1.5891,1.5891,1.5891,1.5891,1.5891,1.5891,1.6211,1.6418,1.6418,1.747,1.7674,1.6829,1.7569,1.7674,1.6829,1.7674,1.8094,1.8094,1.7351,1.6929,0.0,0.0,0.0,0.0,0.0,0.0,0.7364,0.8018,0.8775,0.0,1.0604,1.0997,1.1685,1.1938,1.2131,1.2415,1.2681,1.3061,1.3658,1.4283,1.4707,1.4775,1.4795,1.4839,1.4961,1.4508,1.4177,1.4286,1.4298,1.4298,1.4298,1.3908,1.3318,1.2732,1.1853,1.0681,0.9217,0.8623,0.7932,0.7238,0.7039,0.7181,0.736,0.736,0.7403,0.748,0.7376,0.7522,0.77,0.7874,0.7568,0.7149,0.6146,0.3944,0.1426,0.1655,0.2653,0.4203,0.6352,0.7152,0.7265,0.8491,0.894,0.894,0.894,0.894,0.894,0.894,0.894,0.894,0.894,0.894,0.894,0.894,0.894,0.9265,1.0457,1.0672,1.1433,1.3932,1.4476,1.4476,1.4476,1.4476,1.4476,1.4476,1.4476,1.4476,1.4476,1.4476,1.4476,1.4476,1.4476,1.4476,1.4476,1.4917,1.5137,1.5137,1.5678,1.5891,1.5891,1.6524,1.663,1.5891,1.6524,1.6524,1.5891,1.6524,1.6842,1.6842,1.6205,1.5891,0.0,0.0,0.0,0.0,0.5089,0.0,0.6615,0.7288,0.799,0.0,0.9781,1.0101,1.0615,1.0733,1.0834,1.1076,1.1384,1.204,1.3278,1.3453,1.3483,1.3513,1.3513,1.3513,1.3647,1.3671,1.3766,1.3897,1.3843,1.3872,1.3902,1.3022,1.2436,1.2237,1.0485,0.941,0.892,0.7829,0.7135,0.7135,0.6842,0.6842,0.7138,0.7138,0.7138,0.7135,0.6842,0.6917,0.7138,0.693,0.7559,0.8478,0.5979,0.3304,0.0855,0.1514,0.1738,0.2285,0.5526,0.678,0.7114,0.8352,0.8803,0.8916,0.8933,0.894,0.894,0.894,0.894,0.894,0.894,0.894,0.894,0.894,0.894,0.9154,1.0237,1.0457,1.0785,1.1764,1.22,1.2417,1.2417,1.2417,1.2417,1.2417,1.2417,1.2417,1.2417,1.2417,1.2417,1.2417,1.2417,1.2417,1.2417,1.3398,1.3948,1.3948,1.4917,1.5559,1.5559,1.5559,1.5559,1.5559,1.5559,1.5559,1.5559,1.5779,1.5891,1.5891,1.5785,1.5678,0.4422,0.4766,0.5058,0.4504,0.4858,0.0,0.5492,0.578,0.6312,0.0,0.7588,0.7819,0.8348,0.8649,0.8784,0.8831,0.9275,1.0379,1.254,1.3055,1.3278,1.3489,1.3513,1.3253,1.2551,1.2464,1.2108,1.1218,1.1104,1.1082,1.1142,1.1161,1.0676,0.9592,0.96,0.8817,0.7238,0.7238,0.6939,0.6537,0.6537,0.6537,0.6537,0.6537,0.6537,0.6537,0.6537,0.6461,0.6396,0.4661,0.5384,0.7602,0.793,0.4805,0.0213,0.0749,0.1285,0.1926,0.3649,0.4725,0.5699,0.6975,0.7991,0.8777,0.8903,0.894,0.894,0.894,0.894,0.894,0.894,0.894,0.894,0.894,0.894,0.8937,0.9154,0.9265,0.9265,0.9592,1.1114,1.2417,1.2417,1.2417,1.2417,1.2417,1.2417,1.2417,1.2417,1.2417,1.2417,1.2417,1.2417,1.2417,1.2417,1.2635,1.2743,1.2743,1.296,1.3063,1.3063,1.3063,1.3063,1.3063,1.3063,1.3063,1.3063,1.5018,1.5891,1.5891,1.4922,1.4493,0.4792,0.4917,0.5095,0.4745,0.4862,0.0,0.0,0.5478,0.5768,0.6903,0.6945,0.6947,0.7481,0.7642,0.7741,0.7849,0.8318,0.9045,1.0351,1.1024,1.1283,1.1316,1.1332,1.1239,1.0746,1.0766,1.0585,1.0246,1.0175,1.0125,1.032,0.9951,0.9409,0.8803,0.8517,0.7928,0.7042,0.7042,0.6842,0.6639,0.6437,0.6437,0.6437,0.6437,0.6437,0.6437,0.6437,0.6448,0.6364,0.5249,0.4286,0.3631,0.4259,0.2596,-0.0,0.0315,0.0947,0.179,0.2333,0.3296,0.4576,0.6435,0.731,0.7965,0.8471,0.8764,0.8825,0.8825,0.8879,0.894,0.894,0.894,0.894,0.894,0.894,0.8826,0.8712,0.8712,0.8602,0.8491,0.9364,1.0233,1.0453,1.0453,1.0453,1.0233,1.0457,1.057,1.0453,1.0566,1.068,1.068,1.068,1.068,1.068,1.1,1.1324,1.1324,1.1751,1.1969,1.1969,1.1969,1.1969,1.1969,1.1969,1.2082,1.22,1.3393,1.404,1.4148,1.3614,1.329,0.5196,0.5131,0.5169,0.5138,0.0,0.5081,0.0,0.0,0.0,0.6585,0.6536,0.6379,0.0,0.0,0.0,0.6981,0.0,0.0,0.0,0.8295,0.0,0.9124,0.9091,0.9096,0.9024,0.8764,0.8831,0.9146,0.9146,0.9146,0.9403,0.863,0.8243,0.8364,0.7614,0.7138,0.7039,0.6842,0.6742,0.6742,0.6537,0.6437,0.6442,0.6437,0.6437,0.6442,0.6437,0.6445,0.6358,0.6372,0.4137,0.0605,0.0202,-0.0,-0.0,0.0103,0.062,0.1345,0.1572,0.2316,0.3476,0.58,0.6666,0.7106,0.7951,0.8249,0.835,0.8595,0.8692,0.8679,0.8709,0.8716,0.8716,0.8716,0.8716,0.8716,0.8488,0.8374,0.8377,0.8045,0.7934,0.8045,0.8374,0.8484,0.8374,0.8045,0.8491,0.8823,0.8488,0.8602,0.8826,0.8716,0.8716,0.8716,0.8716,0.9364,0.9798,0.9798,1.0441,1.087,1.087,1.087,1.087,1.087,1.087,1.0983,1.1214,1.1214,1.1651,1.2413,1.2195,1.2091,0.0,0.0,0.0,0.0,0.5508,0.5644,0.4859,0.0,0.5123,0.5043,0.0,0.0,0.0,0.0,0.0,0.0,0.0,0.0,0.5282,0.5751,0.6734,0.8586,0.8722,0.8385,0.7881,0.6658,0.5959,0.6353,0.6102,0.6025,0.6382,0.6715,0.6851,0.6577,0.6979,0.6936,0.6537,0.6742,0.6642,0.6437,0.6437,0.6445,0.6358,0.6442,0.6445,0.6358,0.6442,0.6437,0.6442,0.6366,0.4947,0.2619,0.0706,-0.0,0.0101,0.0506,0.0507,0.0304,0.132,0.1725,0.2233,0.4538,0.6076,0.6895,0.7001,0.6909,0.6945,0.8031,0.8183,0.8001,0.8125,0.8156,0.8156,0.8156,0.8156,0.8045,0.8045,0.8045,0.8045,0.8045,0.7826,0.7715,0.8045,0.8263,0.8374,0.8045,0.8491,0.8716,0.8156,0.8377,0.8488,0.8156,0.8156,0.8156,0.8156,0.8156,0.8263,0.8263,0.8371,0.8371,0.8371,0.8371,0.8371,0.8371,0.8371,0.8371,0.8484,0.8484,0.9794,1.2417,1.1324,1.0891,0.0,0.0,0.0,0.0,0.5521,0.5504,0.4972,0.4796,0.4806,0.5033,0.0,0.0,0.0,0.0,0.0,0.0,0.462,0.0,0.0,0.0,0.4616,0.6402,0.0,0.0,0.6054,0.5424,0.5157,0.5384,0.5272,0.532,0.5678,0.5954,0.6145,0.6263,0.651,0.6569,0.6437,0.6539,0.6539,0.6437,0.6448,0.6356,0.6364,0.5138,0.5238,0.6364,0.6356,0.6353,0.6353,0.6369,0.5866,0.475,0.1312,-0.0,0.0101,0.0909,0.1111,0.101,0.1415,0.1615,0.1918,0.417,0.522,0.5656,0.5656,0.6434,0.7458,0.7614,0.7852,0.7988,0.7923,0.7892,0.8069,0.8171,0.8066,0.7961,0.7961,0.7961,0.7961,0.7624,0.7402,0.7404,0.7513,0.7835,0.7826,0.7598,0.8045,0.8269,0.7826,0.8045,0.8156,0.8045,0.8045,0.8045,0.8045,0.7826,0.7715,0.7715,0.7601,0.7487,0.7487,0.7499,0.7504,0.7504,0.751,0.751,0.7504,0.7504,0.8279,0.9827,0.9368,0.914,0.601,0.0,0.0,0.5644,0.5477,0.5338,0.502,0.4823,0.4869,0.5169,0.5108,0.0,0.0,0.0,0.0,0.0,0.0,0.3911,0.0,0.3104,0.0,0.0,0.0,0.0,0.0,0.4632,0.4818,0.4779,0.4763,0.4913,0.5299,0.5581,0.582,0.6116,0.6219,0.6312,0.6399,0.6429,0.6445,0.6448,0.6361,0.6369,0.6369,0.4133,0.3728,0.4738,0.5854,0.6364,0.6366,0.5761,0.5869,0.5982,0.1717,-0.0,0.0101,0.1212,0.1617,0.1617,0.1617,0.1515,0.1615,0.3229,0.4131,0.4425,0.3919,0.4776,0.608,0.6313,0.6445,0.669,0.6708,0.7256,0.7697,0.7119,0.6924,0.6844,0.6844,0.6844,0.6733,0.6286,0.6175,0.6175,0.6175,0.6948,0.7388,0.7276,0.7718,0.7943,0.7504,0.7835,0.7946,0.7835,0.7835,0.7835,0.7835,0.7616,0.7504,0.7504,0.7271,0.7157,0.7165,0.7176,0.6842,0.6277,0.6172,0.6172,0.6165,0.6165,0.6391,0.6842,0.7616,0.7946,0.0,0.6458,0.6468,0.5589,0.5477,0.5389,0.4711,0.4985,0.5257,0.4989,0.5379,0.5684,0.0,0.0,0.0,0.0,0.0,0.0,0.0,0.0,0.0,0.0,0.0,0.0,0.0,0.4236,0.4583,0.4333,0.4183,0.4388,0.501,0.5366,0.5534,0.567,0.6092,0.6377,0.6401,0.641,0.6366,0.6374,0.6374,0.638,0.6287,0.4138,0.2115,0.0403,0.4638,0.6369,0.6274,0.4135,0.4545,0.5982,0.1717,-0.0,0.0101,0.1212,0.1617,0.1617,0.1617,0.121,0.0805,0.0908,0.232,0.3627,0.1509,0.1007,0.1417,0.35,0.3725,0.3431,0.3704,0.5506,0.6684,0.4259,0.3759,0.3692,0.3692,0.3692,0.3692,0.3692,0.3692,0.3692,0.3692,0.5708,0.7173,0.7192,0.7853,0.8072,0.7304,0.7642,0.7756,0.7307,0.7195,0.7195,0.7195,0.7195,0.7195,0.7195,0.7171,0.7168,0.7192,0.7187,0.6051,0.3805,0.3692,0.3692,0.3692,0.3692,0.3692,0.3805,0.6619,0.7979,0.6335,0.645,0.643,0.5761,0.5558,0.5428,0.4854,0.4497,0.4382,0.4836,0.4446,0.4127,0.4587,0.0,0.0,0.0,0.0,0.0,0.0,0.0,0.0,0.0,0.0,0.0,0.0,0.0,0.293,0.2819,0.351,0.412,0.4495,0.4929,0.5371,0.5649,0.4597,0.4837,0.6393,0.4999,0.4234,0.4338,0.5766,0.6388,0.6287,0.2726,0.0706,0.0101,0.1511,0.3734,0.6385,0.5567,0.5775,0.5989,0.1718,-0.0,-0.0,0.0404,0.101,0.1617,0.1617,0.101,0.0303,0.0303,0.0808,0.1211,0.0504,0.0303,0.0404,0.1118,0.1232,0.1142,0.1148,0.1802,0.3011,0.5382,0.3563,0.1192,0.1192,0.1203,0.1213,0.1213,0.256,0.359,0.359,0.426,0.5382,0.6969,0.6054,0.5146,0.4817,0.4929,0.5039,0.4817,0.4817,0.4817,0.4817,0.4817,0.5495,0.7083,0.5714,0.5487,0.7083,0.7198,0.686,0.5956,0.2801,0.1232,0.1232,0.1232,0.2017,0.359,0.4603,0.5048,0.6399,0.6389,0.6288,0.5786,0.5591,0.5381,0.5019,0.4683,0.4526,0.4877,0.4476,0.4036,0.3904,0.0,0.0,0.0,0.0,0.0,0.0,0.11,0.0,0.0,0.0,0.0,0.0,0.0,0.1329,0.1325,0.2094,0.0,0.0,0.3795,0.4442,0.5378,0.3751,0.3327,0.408,0.4257,0.3607,0.2116,0.3435,0.4147,0.4045,0.1212,-0.0,-0.0,-0.0,0.1613,0.4248,0.5775,0.5473,0.3848,0.1111,-0.0,-0.0,-0.0,0.0404,0.101,0.101,0.0606,-0.0,-0.0,-0.0,-0.0,-0.0,-0.0,-0.0,-0.0,-0.0,-0.0,-0.0,-0.0,0.0739,0.391,0.2229,-0.0,-0.0,-0.0,-0.0,-0.0,0.121,0.2336,0.2336,0.2346,0.2802,0.4374,0.4821,0.4258,0.2574,0.2351,0.2351,0.2351,0.2351,0.2351,0.2351,0.235,0.3022,0.4485,0.4032,0.3918,0.4599,0.6298,0.6412,0.4716,0.157,-0.0,-0.0,-0.0,0.0785,0.2356,0.2356,0.2354]},{"header":{"parameterUnit":"m.s-1","parameterCategory":1,"la1":30.6,"la2":29.2853,"lo1":-89.7004,"lo2":-87.6739,"dy":0.0162,"dx":0.0183,"nx":112,"ny":82,"refTime":"2024-08-07T06:00:00:Z","depth":0,"parameterNumber":3,"parameterNumberName":"V-component_of_WINDS"},"data":[0.0,0.0,0.0,0.0,0.0,0.0,0.0,0.0,0.0,0.0,0.0,0.0,0.0,0.0,0.0,0.0,0.0,0.0,0.0,0.0,0.0,0.0,0.0,0.0,0.0,0.0,0.0,0.0,0.0,0.0,0.0,0.0,0.0,0.0,0.0,0.0,0.0,0.0,0.0,0.0,0.0,0.0,0.0,0.0,0.0,0.0,0.0,0.0,0.0,0.0,0.0,0.0,0.0,0.0,0.0,0.0,0.0,0.0,0.0,0.0,0.0,0.0,0.0,0.0,0.0,0.0,0.0,0.0,0.0,0.0,0.0,0.0,0.0,0.0,0.0,0.0,0.0,0.0,0.0,0.0,0.0,0.0,0.0,0.0,0.0,0.0,0.0,0.0,0.0,0.0,0.7754,0.907,1.0822,1.1963,1.2336,1.2116,1.1394,1.0143,0.0,0.0,0.0,0.0,0.0,0.0,0.0,0.0,0.0,0.0,0.0,0.0,0.0,0.0,0.0,0.0,0.0,0.0,0.0,0.0,0.0,0.0,0.0,0.0,0.0,0.0,0.0,0.0,0.0,0.0,0.0,0.0,0.0,0.0,0.0,0.0,0.0,0.0,0.0,0.0,0.0,0.0,0.0,0.0,0.0,0.0,0.0,0.0,0.0,0.0,0.0,0.0,0.0,0.0,0.0,0.0,0.0,0.0,0.0,0.0,0.0,0.0,0.0,0.0,0.0,0.0,0.0,0.0,0.0,0.0,0.0,0.0,0.0,0.0,0.0,0.0,0.0,0.0,0.0,0.0,0.0,0.0,0.0,0.0,0.0,0.0,0.0,0.0,0.0,0.0,0.0,0.0,0.0,0.0,0.0,0.0,0.0,0.0,0.0,0.0,0.0,0.0,0.0,0.0,0.7606,1.0128,1.0797,1.1413,1.1976,1.1813,1.1123,0.9921,0.0,0.0,0.0,0.0,0.0,0.0,0.0,0.0,0.0,0.0,0.0,0.0,0.0,0.0,0.0,0.0,0.0,0.0,0.0,0.0,0.0,0.0,0.0,0.0,0.0,0.0,0.0,0.0,0.0,0.0,0.0,0.0,0.0,0.0,0.0,0.0,0.0,0.0,0.0,0.0,0.0,0.0,0.0,0.0,0.0,0.0,0.0,0.0,0.0,0.0,0.0,0.0,0.0,0.0,0.0,0.0,0.0,0.0,0.0,0.0,0.0,0.0,0.0,0.0,0.0,0.0,0.0,0.0,0.0,0.0,0.0,0.0,0.0,0.0,0.0,0.0,0.0,0.0,0.0,0.0,0.0,0.0,0.0,0.0,0.0,0.0,0.0,0.0,0.0,0.0,0.0,0.0,0.0,0.0,0.0,0.0,0.0,0.0,0.0,0.0,0.0,0.0,0.0,0.7225,0.8249,1.0062,1.0554,1.0942,1.1401,1.13,1.0689,0.9482,0.8685,0.0,0.0,0.0,0.0,0.0,0.0,0.0,0.0,0.0,0.0,0.0,0.0,0.0,0.0,0.0,0.0,0.0,0.0,0.0,0.0,0.0,0.0,0.0,0.0,0.0,0.0,0.0,0.0,0.0,0.0,0.0,0.0,0.0,0.0,0.0,0.0,0.0,0.0,0.0,0.0,0.0,0.0,0.0,0.0,0.0,0.0,0.0,0.0,0.0,0.0,0.0,0.0,0.0,0.0,0.0,0.0,0.0,0.0,0.0,0.0,0.0,0.0,0.0,0.0,0.0,0.0,0.0,0.0,0.0,0.0,0.0,0.0,0.0,0.0,0.0,0.0,0.0,0.0,0.0,0.0,0.0,0.0,0.0,0.0,0.0,0.0,0.0,0.0,0.0,0.0,0.0,0.0,0.0,0.0,0.0,0.0,0.0,0.0,0.0,0.0,0.0,0.0,0.8107,0.8677,0.9679,1.012,1.0463,1.0895,1.0712,1.01,0.9119,0.8001,0.0,0.0,0.0,0.0,0.0,0.0,0.0,0.0,0.0,0.0,0.0,0.0,0.0,0.0,0.0,0.0,0.0,0.0,0.0,0.0,0.0,0.0,0.0,0.0,0.0,0.0,0.0,0.0,0.0,0.0,0.0,0.0,0.0,0.0,0.0,0.0,0.0,0.0,0.0,0.0,0.0,0.0,0.0,0.0,0.0,0.0,0.0,0.0,0.0,0.0,0.0,0.0,0.0,0.0,0.0,0.0,0.0,0.0,0.0,0.0,0.0,0.0,0.0,0.0,0.0,0.0,0.0,0.0,0.0,0.0,0.0,0.0,0.0,0.0,0.0,0.0,0.0,0.0,0.0,0.0,0.0,0.0,0.0,0.0,0.0,0.0,0.0,0.0,0.0,0.0,0.0,0.0,0.0,0.0,0.0,0.0,0.0,0.0,0.0,0.0,0.0,0.0,0.7415,0.826,0.9283,0.9345,0.9689,1.0549,1.0007,0.9383,0.8836,0.7359,0.0,0.0,0.0,0.0,0.0,0.0,0.0,0.0,0.0,0.0,0.0,0.0,0.0,0.0,0.0,0.0,0.0,0.0,0.0,0.0,0.0,0.0,0.0,0.0,0.0,0.0,0.0,0.0,0.0,0.0,0.0,0.0,0.0,0.0,0.0,0.0,0.0,0.0,0.0,0.0,0.0,0.0,0.0,0.0,0.0,0.0,0.0,0.0,0.0,0.0,0.0,0.0,0.0,0.0,0.0,0.0,0.0,0.0,0.0,0.0,0.0,0.0,0.0,0.0,0.0,0.0,0.0,0.0,0.0,0.0,0.0,0.0,0.0,0.0,0.0,0.0,0.0,0.0,0.0,0.0,0.0,0.0,0.0,0.0,0.0,0.0,0.0,0.0,0.0,0.0,0.0,0.0,0.0,0.0,0.0,0.0,0.0,0.0,0.0,0.0,0.0,0.0,0.7322,0.7918,0.0,0.9087,0.9432,0.9777,0.9471,0.8844,0.8012,0.0,0.0,0.0,0.0,0.0,0.0,0.0,0.0,0.0,0.0,0.0,0.0,0.0,0.0,0.0,0.0,0.0,0.0,0.0,0.0,0.0,0.0,0.0,0.0,0.0,0.0,0.0,0.0,0.0,0.0,0.0,0.0,0.0,0.0,0.0,0.0,0.0,0.0,0.0,0.0,0.0,0.0,0.0,0.0,0.0,0.0,0.0,0.0,0.0,0.0,0.0,0.0,0.0,0.0,0.0,0.0,0.0,0.0,0.0,0.0,0.0,0.0,0.0,0.0,0.0,0.0,0.0,0.0,0.0,0.0,0.0,0.0,0.0,0.0,0.0,0.0,0.0,0.0,0.0,0.0,0.0,0.0,0.0,0.0,0.0,0.0,0.0,0.0,0.0,0.0,0.0,0.0,0.0,0.0,0.0,0.0,0.0,0.0,0.0,0.0,0.0,0.0,0.6708,0.7362,0.7886,0.0,0.8915,0.9148,0.9169,0.8905,0.8282,0.7387,0.0,0.0,0.0,0.0,0.0,0.0,0.0,0.0,0.0,0.0,0.0,0.0,0.0,0.0,0.0,0.0,0.0,0.0,0.0,0.0,0.0,0.0,0.0,0.0,0.0,0.0,0.0,0.0,0.0,0.0,0.0,0.0,0.0,0.0,0.0,0.0,0.0,0.0,0.0,0.0,0.0,0.0,0.0,0.0,0.0,0.0,0.0,0.0,0.0,0.0,0.0,0.0,0.0,0.0,0.0,0.0,0.0,0.0,0.0,0.0,0.0,0.0,0.0,0.0,0.0,0.0,0.0,0.0,0.0,0.0,0.0,0.0,0.0,0.0,0.0,0.0,0.0,0.0,0.0,0.0,0.0,0.0,0.0,0.0,0.0,0.0,0.0,0.0,0.0,0.0,0.0,0.0,0.0,0.0,0.0,0.0,0.0,0.0,0.0,0.0,0.0,0.0,0.6522,0.7492,0.8154,0.8528,0.8568,0.8661,0.8976,0.8182,0.7499,0.0,0.0,0.0,0.0,0.0,0.0,0.0,0.0,0.0,0.0,0.0,0.0,0.0,0.0,0.0,0.0,0.0,0.0,0.0,0.0,0.0,0.0,0.0,0.0,0.0,0.0,0.0,0.0,0.0,0.0,0.0,0.0,0.0,0.0,0.0,0.0,0.0,0.0,0.0,0.0,0.0,0.0,0.0,0.0,0.0,0.0,0.0,0.0,0.0,0.0,0.0,0.0,0.0,0.0,0.0,0.0,0.0,0.0,0.0,0.0,0.0,0.0,0.0,0.0,0.0,0.0,0.0,0.0,0.0,0.0,0.0,0.0,0.0,0.0,0.0,0.0,0.0,0.0,0.0,0.0,0.0,0.0,0.0,0.0,0.0,0.0,0.0,0.0,0.0,0.0,0.0,0.0,0.0,0.0,0.0,0.0,0.0,0.0,0.0,0.0,0.0,0.0,0.0,0.674,0.7573,0.8154,0.8528,0.8568,0.8578,0.8475,0.7907,0.7269,0.6655,0.0,0.0,0.0,0.0,0.0,0.0,0.0,0.0,0.0,0.0,0.0,0.0,0.0,0.0,0.0,0.0,0.0,0.0,0.0,0.0,0.0,0.0,0.0,0.0,0.0,0.0,0.0,0.0,0.0,0.0,0.0,0.0,0.0,0.0,0.0,0.0,0.0,0.0,0.0,0.0,0.0,0.0,0.0,0.0,0.0,0.0,0.0,0.0,0.0,0.0,0.0,0.0,0.0,0.0,0.0,0.0,0.0,0.0,0.0,0.0,0.0,0.0,0.0,0.0,0.0,0.0,0.0,0.0,0.0,0.0,0.0,0.0,0.0,0.0,0.0,0.0,0.0,0.0,0.0,0.0,0.0,0.0,0.0,0.0,0.0,0.0,0.0,0.0,0.0,0.0,0.0,0.0,0.0,0.0,0.0,0.0,0.0,0.0,0.0,0.0,0.0,0.0,0.6814,0.7573,0.8154,0.8528,0.8568,0.8491,0.8304,0.7862,0.7257,0.6398,0.0,0.0,0.0,0.0,0.0,0.0,0.0,0.0,0.0,0.0,0.0,0.0,0.0,0.0,0.0,0.0,0.0,0.0,0.0,0.0,0.0,0.0,0.0,0.0,0.0,0.0,0.0,0.0,0.0,0.0,0.0,0.0,0.0,0.0,0.0,0.0,0.0,0.0,0.0,0.0,0.0,0.0,0.0,0.0,0.0,0.0,0.0,0.0,0.0,0.0,0.0,0.0,0.0,0.0,0.0,0.0,0.0,0.0,0.0,0.0,0.0,0.0,0.0,0.0,0.0,0.0,0.0,0.0,0.0,0.0,0.0,0.0,0.0,0.0,0.0,0.0,0.0,0.0,0.0,0.0,0.0,0.0,0.0,0.0,0.0,0.0,0.0,0.0,0.0,0.0,0.0,0.0,0.0,0.0,0.0,0.0,0.0,0.0,0.0,0.0,0.0,0.0,0.6818,0.7573,0.8154,0.8524,0.8564,0.8491,0.8304,0.7963,0.7311,0.6246,0.0,0.0,0.0,0.0,0.0,0.0,0.0,0.0,0.0,0.0,0.0,0.0,0.0,0.0,0.0,0.0,0.0,0.0,0.0,0.0,0.0,0.0,0.0,0.0,0.0,0.0,0.0,0.0,0.0,0.0,0.0,0.0,0.0,0.0,0.0,0.0,0.0,0.0,0.0,0.0,0.0,0.0,0.0,0.0,0.0,0.0,0.0,0.0,0.0,0.0,0.0,0.0,0.0,0.0,0.0,0.0,0.0,0.0,0.0,0.0,0.1261,0.1005,0.0,0.0,0.0,0.0,0.0,0.0,0.0,0.0,0.0,0.0,0.0,0.0,0.0,0.0,0.0,0.0,0.0,0.0,0.0,0.0,0.0,0.0,0.0,0.0,0.0,0.0,0.0,0.0,0.0,0.0,0.0,0.0,0.0,0.0,0.0,0.0,0.0,0.0,0.0,0.0,0.6553,0.7344,0.7907,0.8253,0.8292,0.8222,0.7967,0.771,0.7176,0.6306,0.553,0.0,0.0,0.0,0.0,0.0,0.0,0.0,0.0,0.0,0.0,0.0,0.0,0.0,0.0,0.0,0.0,0.0,0.0,0.0,0.0,0.0,0.0,0.0,0.0,0.0,0.0,0.0,0.0,0.0,0.0,0.0,0.0,0.0,0.0,0.0,0.0,0.0,0.0,0.0,0.0,0.0,0.0,0.0,0.0,0.0,0.0,0.0,0.0,0.0,0.0,0.0,0.0,0.0,0.0,0.0,0.0,0.0,0.0,0.0,0.1302,0.1093,0.0,0.0,0.0,0.0,0.0,0.0,0.0,0.0,0.0,0.0,0.0,0.0,0.0,0.0,0.0,0.0,0.0,0.0,0.0,0.0,0.0,0.0,0.0,0.0,0.0,0.0,0.0,0.0,0.0,0.0,0.0,0.0,0.0,0.0,0.0,0.0,0.0,0.0,0.0,0.0,0.6618,0.7307,0.7743,0.7998,0.8028,0.7994,0.791,0.7659,0.7213,0.6496,0.5859,0.0,0.0,0.0,0.0,0.0,0.0,0.0,0.0,0.0,0.0,0.0,0.0,0.0,0.0,0.0,0.0,0.0,0.0,0.0,0.0,0.0,0.0,0.0,0.0,0.0,0.0,0.0,0.0,0.0,0.0,0.0,0.0,0.0,0.0,0.0,0.0,0.0,0.0,0.0,0.0,0.0,0.0,0.0,0.0,0.0,0.0,0.0,0.0,0.0,0.0,0.0,0.0,0.0,0.1318,0.1257,0.1485,0.1298,0.1227,0.1259,0.1225,0.1095,0.0934,-0.046,0.0,0.0,0.0,0.0,0.0,0.0,0.0,0.0,0.0,0.0,0.0,0.0,0.0,0.0,0.0,0.0,0.0,0.0,0.0,0.0,0.0,0.0,0.4016,0.3925,0.4603,0.5372,0.5499,0.0,0.0,0.0,0.0,0.0,0.0,0.0,0.0,0.0,0.0,0.0,0.6733,0.7296,0.758,0.7837,0.7856,0.7856,0.7856,0.7699,0.7239,0.6553,0.6236,0.5552,0.0,0.0,0.0,0.0,0.0,0.0,0.0,0.0,0.0,0.0,0.0,0.0,0.0,0.0,0.0,0.0,0.0,0.0,0.0,0.0,0.0,0.0,0.0,0.0,0.0,0.0,0.0,0.0,0.0,0.0,0.0,0.0,-0.0832,-0.1023,0.0,0.0,0.0,0.0,0.0,0.0,0.0,0.0,0.0,0.0,0.0,0.0,0.0,0.0085,0.1451,0.1504,0.1547,0.1582,0.1124,0.0832,0.094,0.0836,0.0838,0.0841,0.0829,0.0,0.1368,0.0441,0.0,0.0,0.0,0.0,0.0,0.0,0.0,0.0,0.0,0.0,0.0,0.0,0.0,0.0,0.0,0.0,0.0,0.0,0.0,0.0,0.0,0.0,0.4787,0.515,0.5874,0.6664,0.7126,0.5896,0.49,0.5656,0.5553,0.5151,0.0,0.0,0.0,0.0,0.0,0.0,0.6779,0.7044,0.7325,0.7489,0.7595,0.7595,0.7595,0.7444,0.7038,0.6311,0.61,0.534,0.3981,0.4293,0.0,0.0,0.0,0.0,0.0,0.0,0.0,0.0,0.0,0.0,0.0,0.0,0.0,0.0,0.0,0.0,0.0,0.0,0.0,0.0,0.0,0.0,0.0,0.0,0.0,0.0,0.0,0.0,0.0,-0.1957,-0.1858,-0.2854,-0.2593,-0.2512,0.0,0.0,0.0,0.0,0.0,0.0,0.0,0.0,0.0,-0.0367,-0.0372,0.0096,0.1105,0.1123,0.1351,0.1588,0.1398,0.0979,0.0329,0.0329,0.0549,0.0768,0.0768,-0.0747,-0.3149,-0.0482,-0.0367,-0.209,0.0,0.0,0.0,0.0,-0.5157,-0.5117,-0.4729,-0.4491,-0.4392,-0.4202,0.0,0.0,0.0,0.0,0.0,0.0,0.0,0.0906,0.2157,0.2918,0.3616,0.4387,0.494,0.5584,0.7081,0.6587,0.6195,0.6998,0.6723,0.6172,0.5719,0.5738,0.0,0.0,0.0,0.662,0.716,0.7289,0.7378,0.7448,0.7375,0.7234,0.7149,0.7088,0.6791,0.6338,0.6222,0.5908,0.5265,0.4019,0.2235,0.0,0.0,0.0,0.0,0.0,0.0,0.0,0.0,0.0,0.0,0.0,0.0,0.0,0.0,0.0,0.0,0.0,0.0,0.0,0.0,0.0,0.0,0.0,0.0,0.0,0.0,0.0,0.0,-0.3236,-0.3099,-0.4037,-0.3791,-0.381,0.0,0.0,0.0,0.0,0.0,0.0,-0.0963,-0.0901,-0.066,-0.0202,-0.0206,-0.0105,0.0326,0.0328,0.0551,0.0893,0.1117,0.0787,0.0,0.0,-0.0568,-0.1476,-0.1476,-0.327,-0.6001,-0.166,-0.0894,-0.2703,-0.4555,-0.5411,-0.5659,-0.5779,-0.5822,-0.5694,-0.509,-0.4837,-0.4737,-0.4508,-0.4402,-0.4368,-0.5017,0.0,0.0,0.0,0.0,0.079,0.1832,0.2176,0.2522,0.3543,0.3793,0.4332,0.6134,0.6265,0.6435,0.8001,0.7846,0.7344,0.6779,0.6676,0.0,0.6579,0.6674,0.6949,0.753,0.7534,0.7414,0.7373,0.7178,0.7009,0.6795,0.6799,0.664,0.63,0.5768,0.5443,0.5216,0.294,0.0785,-0.1136,0.0,0.0,0.0,0.0,0.0,0.0,0.0,0.0,0.0,0.0,0.0,0.0,0.0,0.0,0.0,0.0,0.0,0.0,0.0,0.0,0.0,0.0,0.0,0.0,0.0,0.0,0.0,0.0,0.0,-0.3263,-0.5128,0.0,0.0,0.0,0.0,-0.3824,-0.288,-0.1904,-0.1071,-0.0909,-0.0838,-0.0869,-0.0885,-0.09,-0.0916,-0.0931,-0.0938,-0.0822,-0.0235,0.0,0.0,0.0,-0.2704,-0.7437,-0.7437,-0.6118,-0.3962,-0.2328,-0.3511,-0.6292,-0.5127,-0.537,-0.641,-0.6524,-0.6564,-0.6586,-0.662,-0.6588,-0.6487,-0.6476,-0.6168,-0.5799,-0.5689,-0.4999,0.0,0.0,-0.056,0.0478,0.139,0.2009,0.2516,0.3124,0.3228,0.343,0.4331,0.3927,0.4472,0.8265,0.8909,0.8484,0.7576,0.0,0.7628,0.7179,0.7263,0.7443,0.7684,0.767,0.7533,0.7387,0.7184,0.6944,0.6805,0.6713,0.6514,0.6077,0.4199,0.2796,0.2121,0.0459,-0.0746,-0.1306,-0.1109,0.0,0.0,0.0,0.0,0.0,0.0,0.0,0.0,0.0,0.0,0.0,0.0,0.0,0.0,0.0,0.0,0.0,0.0,0.0,0.0,0.0,0.0,0.0,0.0,0.0,0.0,0.0,0.0,-0.5826,-0.6267,0.0,-0.7074,-0.6859,-0.6256,-0.5099,-0.4616,-0.4298,-0.4051,-0.4108,-0.4092,-0.4002,-0.4029,-0.4168,-0.4193,-0.41,-0.4112,-0.4112,-0.3876,-0.3523,-0.3169,-0.3169,-0.4228,-0.6118,-0.7788,-0.802,-0.7044,-0.6577,-0.6634,-0.6986,-0.6436,-0.6427,-0.6681,-0.6722,-0.6738,-0.6744,-0.6787,-0.6774,-0.6738,-0.6738,-0.6622,-0.6469,-0.6203,-0.5232,-0.3611,-0.1174,0.0,0.0695,0.1409,0.1716,0.1918,0.2118,0.2422,0.3025,0.4128,0.413,0.4512,0.651,0.6876,0.7076,0.7706,0.8009,0.8009,0.7618,0.7724,0.7976,0.8033,0.7222,0.6948,0.7488,0.6563,0.6079,0.6503,0.6523,0.5678,0.3694,0.284,0.1702,-0.0,-0.069,-0.104,-0.1138,-0.1076,-0.13,0.0,0.0,0.0,0.0,0.0,0.0,0.0,0.0,0.0,0.0,0.0,0.0,0.0,0.0,0.0,0.0,0.0,0.0,0.0,0.0,0.0,0.0,0.0,0.0,0.0,0.0,-0.6794,-0.7595,-0.7324,-0.7266,-0.7681,-0.7627,-0.7115,-0.6251,-0.576,-0.5597,-0.5786,-0.5797,-0.5855,-0.5748,-0.5783,-0.58,-0.5917,-0.5947,-0.5843,-0.5962,-0.6206,-0.6087,-0.5727,-0.6327,-0.6446,-0.6439,-0.8251,-0.8975,-0.8847,-0.8847,-0.8472,-0.7692,-0.765,-0.7524,-0.7365,-0.7214,-0.7089,-0.7083,-0.6934,-0.6896,-0.6864,-0.6864,-0.694,-0.6893,-0.6826,-0.5331,-0.3227,-0.0721,0.0307,0.0612,0.0918,0.1218,0.1414,0.1514,0.1917,0.2422,0.3225,0.3426,0.3626,0.4119,0.507,0.606,0.7051,0.719,0.7187,0.691,0.7219,0.7403,0.7403,0.7015,0.6804,0.6763,0.5643,0.5062,0.5465,0.593,0.5003,0.2348,0.1417,0.0323,-0.1194,-0.1233,-0.1193,-0.1153,-0.1446,-0.1867,-0.2466,0.0,0.0,0.0,0.0,0.0,0.0,0.0,0.0,0.0,0.0,0.0,0.0,0.0,0.0,0.0,0.0,0.0,0.0,0.0,0.0,0.0,0.0,0.0,-0.7893,-0.8148,-0.8335,-0.8304,-0.8431,-0.8384,-0.8102,-0.7529,-0.716,-0.7163,-0.6343,-0.5871,-0.5875,-0.5875,-0.5875,-0.5877,-0.5966,-0.6015,-0.6015,-0.5977,-0.6018,-0.6018,-0.6893,-0.7273,-0.7396,-0.9023,-0.9642,-0.9242,-0.9242,-0.9111,-0.8976,-0.8976,-0.8896,-0.876,-0.862,-0.8445,-0.8427,-0.7952,-0.7789,-0.7769,-0.7307,-0.7084,-0.6991,-0.6991,-0.7121,-0.7232,-0.7455,-0.553,-0.2869,-0.0637,0.0,0.0,0.0,0.041,0.091,0.1416,0.1516,0.1617,0.1516,0.1516,0.1515,0.151,0.3717,0.5522,0.5522,0.5327,0.5129,0.5129,0.5534,0.0,0.5839,0.6962,0.7021,0.5007,0.4208,0.3756,0.343,0.4732,0.4461,0.2174,-0.0083,-0.1302,-0.1301,-0.1245,-0.1213,-0.1211,-0.2177,-0.3055,-0.3737,0.0,0.0,0.0,0.0,0.0,0.0,0.0,0.0,0.0,0.0,0.0,0.0,0.0,0.0,0.0,0.0,0.0,0.0,0.0,0.0,0.0,-1.0312,-0.9487,-0.8318,-0.8466,-0.8699,-0.8654,-0.8669,-0.8821,-0.8845,-0.8772,-0.8684,-0.8787,-0.8518,-0.8488,-0.8586,-0.8592,-0.8634,-0.8726,-0.8766,-0.8787,-0.8787,-0.8699,-0.8836,-0.9079,-0.9332,-0.9579,-0.9819,-1.0079,-1.0079,-0.995,-0.9707,-0.9582,-0.9579,-0.9579,-0.9556,-0.9382,-0.8885,-0.8531,-0.8439,-0.8402,-0.8214,-0.8118,-0.7868,-0.7581,-0.7445,-0.7445,-0.7309,-0.7261,-0.7951,-0.6729,-0.4541,-0.0959,0.0,0.0,0.0,0.0104,0.0206,0.0412,0.0714,0.0909,0.0505,0.0404,0.0404,0.0404,0.1613,0.3224,0.4724,0.4924,0.4522,0.3512,0.3512,0.3714,0.3915,0.4022,0.4223,0.4203,0.237,0.0776,0.0,0.0641,0.0618,-0.0341,-0.0992,-0.1293,-0.1271,-0.1254,-0.1618,-0.2342,-0.3838,-0.4637,0.0,0.0,0.0,0.0,0.0,0.0,0.0,0.0,0.0,0.0,0.0,0.0,0.0,0.0,0.0,0.0,0.0,0.0,0.0,0.0,0.0,0.0,-1.2621,-1.1864,-1.0788,-0.9887,-0.9374,-0.9327,-0.9265,-0.9283,-0.937,-0.938,-0.9381,-0.9469,-0.9534,-0.9605,-0.9693,-0.9696,-0.9737,-0.9819,-0.9822,-0.9822,-1.0065,-1.0065,-1.0218,-1.0652,-1.0652,-1.0808,-1.1001,-1.0631,-1.0471,-1.0407,-1.004,-0.988,-0.9822,-0.9822,-0.9822,-0.9812,0.0,0.0,0.0,0.0,-0.8561,-0.8314,-0.8179,-0.8021,-0.79,-0.7847,-0.7712,-0.759,-0.8188,-0.7841,-0.6501,-0.2827,-0.0864,0.0,0.0,-0.0426,-0.0734,-0.0728,-0.0309,0.0,-0.0304,-0.0505,-0.0707,-0.0707,-0.0202,0.0,0.1912,0.2515,0.2515,0.1709,0.1408,0.1408,0.1609,0.1208,0.1209,0.1915,0.06,-0.069,-0.1451,-0.1219,0.0,0.0,0.0,-0.1569,-0.2073,-0.2071,0.0,0.0,0.0,0.0,0.0,0.0,0.0,0.0,-0.7053,-0.7041,0.0,0.0,0.0,0.0,0.0,0.0,0.0,0.0,0.0,0.0,0.0,0.0,0.0,0.0,0.0,0.0,-1.4727,-1.4476,-1.424,-1.206,-1.0534,-1.0484,-0.9965,-0.9614,-0.9649,-0.9566,-0.9615,-0.9632,-0.9751,-0.9822,-0.9943,-0.9957,0.0,0.0,0.0,-1.0117,-1.0358,-1.0358,-1.0678,-1.1196,-1.1196,-1.1275,-1.1419,-1.1042,-1.0958,-1.0944,-1.0571,-1.0362,-1.0472,-1.0333,-1.0318,-1.0183,-0.994,-0.9822,-0.9802,-0.9417,-0.8924,-0.8564,-0.8434,0.0,0.0,-0.8109,-0.8057,-0.8045,-0.8374,-0.8611,-0.8063,-0.547,-0.254,-0.0219,-0.011,-0.0867,-0.1705,-0.1679,-0.1252,-0.0933,-0.0916,-0.1318,-0.1621,-0.1618,-0.1617,-0.1617,-0.1617,-0.0808,-0.0202,-0.0202,-0.0505,-0.0707,-0.0707,-0.1212,-0.1515,-0.0909,-0.101,0.0,-0.1574,-0.1643,-0.1611,-0.1575,-0.161,-0.2151,-0.3299,-0.3467,-0.4123,-0.5417,-0.6373,-0.7079,-0.751,-0.8399,-0.8861,-0.8857,-0.7886,-0.7764,0.0,0.0,0.0,0.0,0.0,0.0,0.0,0.0,0.0,0.0,0.0,0.0,0.0,0.0,0.0,-1.676,-1.6374,-1.5964,-1.6138,-1.4898,-1.3387,-1.1672,-1.0366,-0.9703,-0.9966,-0.9811,-0.9775,-1.0134,-1.0169,-1.0304,-1.0547,-1.0797,-1.087,-1.087,-1.0999,-1.1069,-1.1069,-1.1069,-1.134,-1.1622,-1.1622,0.0,-1.2055,-1.1802,-1.215,-1.3229,-1.2599,-1.3069,-1.438,-1.3605,-1.3085,-1.2706,-1.0664,-0.9822,-0.9802,-0.954,-0.9469,-0.9426,-0.9275,-0.8915,-0.8584,-0.8555,-0.8357,-0.8045,-0.8374,-0.7817,0.0,-0.7838,-0.4793,-0.1335,-0.089,-0.088,-0.1196,-0.1626,-0.1608,-0.1479,-0.1556,-0.1654,-0.1646,-0.1622,-0.1819,-0.1921,-0.1921,-0.1617,-0.1313,-0.1313,-0.1617,-0.1819,-0.1718,-0.1918,-0.1918,-0.1515,-0.2019,-0.2204,-0.2066,-0.2152,-0.2211,-0.2135,-0.2933,-0.3901,-0.5032,-0.5844,-0.6397,-0.664,-0.7779,-0.8382,-0.8493,-0.8862,-0.9116,-0.9242,-0.8897,-0.8816,0.0,0.0,0.0,0.0,0.0,0.0,0.0,0.0,0.0,0.0,0.0,-1.6346,-1.7282,0.0,-1.7848,-1.8492,-1.8345,-1.8211,-1.8285,-1.7108,-1.5549,-1.3658,-1.2738,-1.2307,-1.239,-1.2263,-1.2239,-1.2449,-1.2544,-1.2478,-1.1882,-1.2785,-1.3013,-1.2274,-1.2983,-1.3533,-1.3658,-1.3658,-1.3833,-1.4309,-1.4309,-1.437,-1.46,-1.4212,-1.4402,-1.5056,-1.4547,-1.4736,-1.5494,-1.4784,-1.4508,-1.4159,-1.2612,-1.1499,-1.0657,-0.9981,-0.9717,-0.9693,-0.9547,-0.9329,-0.9139,-0.9063,-0.8713,-0.8482,-0.8927,-0.8425,-0.7814,-0.8165,-0.6258,-0.3799,-0.2123,-0.1669,-0.1768,-0.2192,-0.2283,-0.2151,-0.2113,-0.209,-0.2174,-0.2357,-0.2538,-0.2724,-0.2927,-0.2927,-0.2624,-0.212,-0.2222,-0.2323,-0.2222,-0.222,-0.222,-0.2019,-0.2923,-0.351,-0.3281,-0.3834,-0.417,-0.3996,-0.442,-0.5229,-0.6345,-0.6882,-0.7449,-0.8026,-0.875,-0.9083,-0.9088,-0.9366,-0.9598,-0.9681,-0.969,-0.9598,0.0,0.0,0.0,0.0,0.0,0.0,0.0,0.0,-1.783,-1.745,-1.7715,-1.8179,-1.9166,-1.916,-1.9242,-1.9769,-2.0069,-2.0143,-1.9981,-1.8809,-1.7445,-1.6038,-1.5194,-1.4866,-1.4797,-1.4734,-1.4604,-1.4723,-1.4932,-1.4694,-1.3605,-1.4943,-1.5202,-1.4085,-1.5122,-1.5899,-1.6154,-1.6154,-1.637,-1.6805,-1.6805,-1.6786,-1.6974,-1.6711,-1.6599,-1.68,-1.6789,-1.6533,-1.6312,-1.6124,-1.5894,-1.5703,-1.4986,-1.3827,-1.2513,-1.0917,-1.0304,-1.0283,-0.9929,-0.987,-0.9825,-0.97,-0.9303,-0.9037,-0.9599,-0.9377,-0.8923,-0.8257,-0.7485,-0.6371,-0.4131,-0.3356,-0.3349,-0.3525,-0.3404,-0.3169,-0.322,-0.3067,-0.3032,-0.3422,-0.3478,-0.3641,-0.4234,-0.4332,-0.4031,-0.2924,-0.2723,-0.2822,-0.3024,-0.3024,-0.3123,-0.3224,-0.4221,-0.492,-0.492,-0.5738,-0.6274,-0.6176,-0.6184,-0.6703,-0.7851,-0.7946,-0.8332,-0.9292,-0.9527,-0.9598,-0.9602,-0.9943,-1.0117,-1.0117,-1.0314,-1.0216,-1.2775,-1.3834,-1.4584,-1.5551,-1.5451,-1.5583,0.0,0.0,-1.7998,-1.8499,-1.8873,-1.9273,-1.9672,-1.9942,-2.0098,-2.0172,-2.0216,-2.023,-2.0193,-1.9639,-1.9119,-1.8937,-1.6448,-1.4813,-1.5027,-1.4826,-1.4723,-1.4966,-1.5298,-1.5545,-1.5677,-1.6209,-1.6444,-1.6318,-1.6653,-1.6899,-1.6899,-1.6899,-1.691,-1.6937,-1.6937,-1.6953,-1.698,-1.6974,-1.7602,-1.8732,-2.0017,-1.9997,-1.9237,-1.9467,-1.9303,-1.8679,-1.7179,-1.6473,-1.5959,-1.3009,-1.2109,-1.2217,-1.1004,-1.0554,-1.0436,-1.0417,-1.0196,-0.9938,-1.0051,-0.9828,-0.9702,-0.9592,-0.8699,-0.7808,-0.747,-0.6803,-0.6241,-0.6232,-0.5897,-0.5427,-0.5443,-0.4774,-0.4194,-0.4062,-0.4236,-0.4618,-0.534,-0.5627,-0.5331,-0.4031,-0.4029,-0.4427,-0.5125,-0.5427,-0.5827,-0.6218,-0.662,-0.6921,-0.6921,-0.7009,-0.7493,-0.8382,-0.8463,-0.8951,-1.0049,-1.0049,-1.0151,-1.0249,-1.0271,-1.028,-1.028,-1.0301,-1.0314,-1.0314,-1.0413,-1.0413,-1.4789,-1.5808,0.0,0.0,-1.7953,-1.8993,-1.9902,-2.077,-2.1394,-2.1137,-2.1342,-2.1474,-2.1417,-2.1595,-2.19,0.0,-2.2309,-2.2355,-2.1946,-2.136,-2.0656,-2.004,-1.8394,-1.7371,-1.7317,-1.7225,-1.7292,-1.7572,-1.7967,-1.7961,-1.7352,-1.8583,-1.8873,-1.8099,-1.8848,-1.9425,-1.9425,-1.9553,-1.968,-1.968,-1.968,-1.968,-1.968,-1.9425,-1.9686,-2.0202,-2.0849,-2.0909,-2.0532,-2.0499,-2.0354,-1.995,-1.8746,-1.8457,-1.8181,-1.481,-1.3655,-1.377,-1.3172,-1.253,-1.1877,-1.1877,-1.1118,-1.0443,-1.0685,-1.065,-1.05,-1.05,-0.9688,-0.8796,-0.8803,-0.802,-0.7235,-0.7459,-0.7241,-0.7114,-0.7065,-0.6785,-0.658,-0.7044,-0.7156,-0.7468,-0.8223,-0.8495,-0.8396,-0.7799,-0.7006,-0.6608,-0.6907,-0.74,-0.7895,-0.8594,-0.8502,-0.8609,-0.9209,-0.9308,-0.9406,-0.971,-0.9706,-0.9908,-1.0408,-1.0413,-1.0699,-1.1277,-1.0699,-1.0988,-1.2237,-1.176,-1.1858,-1.2436,-1.263,-1.263,-1.707,0.0,0.0,-1.9076,-2.0457,-2.1768,-2.2094,-2.3116,-2.3772,-2.3274,-2.3227,-2.3092,-2.2928,-2.3023,-2.3331,-2.3805,-2.3999,-2.3981,-2.3702,-2.2908,-2.1971,-2.1231,-2.0194,-1.9519,-1.9729,-1.9374,-1.9266,-1.957,-2.0138,-2.0099,-1.9113,-2.0526,-2.0969,-1.9928,-2.0836,-2.1362,-2.1362,-2.1607,-2.1734,-2.1734,-2.1734,-2.1734,-2.1734,-2.1355,-2.1235,-2.1235,-2.1109,-2.1109,-2.1089,-2.0882,-2.0795,-2.0735,-1.9892,-1.9668,-1.9628,-1.686,-1.5671,-1.5316,-1.4966,-1.4009,-1.2937,-1.3057,-1.2107,-1.1004,-1.1458,-1.1371,-1.1276,-1.136,-1.0716,-1.0116,-1.0237,-0.9779,-0.9322,-0.9548,-0.9442,-0.9332,-0.9332,-0.9131,-0.9115,-0.9704,-0.9776,-1.0022,-1.069,-1.0946,-1.1119,-1.1161,-1.0258,-0.9465,-0.9076,-0.9567,-1.0164,-1.0672,-1.0378,-1.0489,-1.1292,-1.1389,-1.1194,-1.09,-1.1091,-1.1189,-1.0993,-1.1282,-1.1858,-1.2528,-1.1858,-1.2242,-1.368,-1.3108,-1.3204,-1.3974,-1.4166,-1.4172,0.0,0.0,-2.1392,-2.2369,-2.2496,-2.2562,-2.3791,-2.379,-2.3633,-2.4191,-2.3799,-2.347,-2.3712,-2.3588,-2.3725,-2.4416,-2.427,-2.4307,-2.5023,-2.3985,-2.3199,-2.3101,-2.1298,-2.0504,-2.19,-2.0632,-1.9934,-2.0249,-2.0844,-2.1194,-2.1067,-2.1775,-2.2111,-2.1985,-2.2111,-2.2111,-2.2111,-2.2111,-2.2111,-2.2111,-2.2111,-2.2111,-2.2111,-2.1734,-2.1607,-2.1607,-2.1235,-2.1109,-2.1109,-2.1096,-2.1096,-2.1036,-2.0448,-2.0221,-2.0147,-1.9455,-1.8525,-1.722,-1.6042,-1.4738,-1.3665,-1.4023,-1.3058,-1.1972,-1.2321,-1.217,-1.1867,-1.1863,-1.205,-1.2327,-1.2327,-1.2866,-1.3506,-1.3506,-1.3176,-1.2743,-1.2635,-1.1959,-1.135,-1.1385,-1.1544,-1.1722,-1.1937,-1.2368,-1.2793,-1.2964,-1.3414,-1.3216,-1.1658,-1.216,-1.2662,-1.2662,-1.2662,-1.2662,-1.2764,-1.2764,-1.2467,-1.1975,-1.284,-1.3125,-1.2635,-1.3596,-1.4172,-1.4268,-1.4172,-1.4172,-1.4268,-1.4268,-1.4268,-1.4268,-1.4268,-1.4172,0.0,0.0,-2.3057,-2.2806,-2.3672,-2.4941,-2.6187,-2.696,-2.7521,-2.8028,-2.7634,-2.7187,-2.7043,-2.6365,-2.6142,-2.6983,-2.6759,-2.6579,-2.6633,-2.6032,-2.5162,-2.3842,-2.3165,-2.2846,-2.3085,-2.078,-1.9733,-2.0906,-2.0981,-2.0977,-2.118,-2.1775,-2.2111,-2.2111,-2.2111,-2.2111,-2.2111,-2.2355,-2.2487,-2.2487,-2.2487,-2.2355,-2.2111,-2.1985,-2.1985,-2.1859,-2.1607,-2.1607,-2.1734,-2.1481,-2.1607,-2.1692,-2.1293,-2.1011,-2.0784,-2.0267,-1.9636,-1.8991,-1.8292,-1.7455,-1.6492,-1.6609,-1.5263,-1.3769,-1.3991,-1.3289,-1.2479,-1.2903,-1.3042,-1.3093,-1.3521,-1.384,-1.4056,-1.4056,-1.4056,-1.4056,-1.4051,-1.3927,-1.3848,-1.4052,-1.4217,-1.432,-1.4607,-1.4606,-1.4502,-1.4437,-1.41,-1.3806,-1.3414,-1.3335,-1.3437,-1.3998,-1.3703,-1.3698,-1.4268,-1.4262,-1.4166,-1.3974,-1.4351,-1.4351,-1.398,-1.4268,-1.4746,-1.5317,-1.4651,-1.4937,-1.6278,-1.5609,-1.5602,-1.6278,-1.6278,-1.6381,-2.367,-2.4578,-2.5247,-2.5329,-2.6472,-2.7935,-2.8969,-2.9481,-2.9674,-2.9743,-2.9071,-2.8366,-2.7886,-2.7042,-2.6915,-2.8319,-2.808,-2.7874,-2.8376,-2.7878,-2.6979,-2.5746,-2.5386,-2.5176,0.0,0.0,0.0,-2.1919,-2.2019,-2.1926,-2.1555,-2.2153,-2.2487,-2.2487,-2.2973,-2.3223,-2.3223,-2.3837,-2.4201,-2.4201,-2.3713,-2.3347,-2.3098,-2.2606,-2.2237,-2.2237,-2.1859,-2.1859,-2.2111,-2.1859,-2.1859,-2.2076,-2.1775,-2.1467,-2.1152,-2.0614,-2.0309,-1.9931,-1.9591,-1.8868,-1.7904,-1.8144,-1.6968,-1.5521,-1.5843,-1.5165,-1.436,-1.4479,-1.4581,-1.4597,-1.4622,-1.4815,-1.4922,-1.5024,-1.5238,-1.5345,-1.5345,-1.5446,-1.5713,-1.5878,-1.6057,-1.6081,-1.6113,-1.6321,-1.6319,-1.5929,-1.5767,-1.553,-1.5153,-1.4949,-1.5045,-1.5602,-1.5127,-1.5032,-1.5501,-1.5602,-1.5501,-1.5305,-1.5596,-1.569,-1.5311,-1.5697,-1.6082,-1.6473,-1.5798,-1.6183,-1.7426,-1.6662,-1.6756,-1.7434,-1.745,-1.7618,-2.5232,-2.6444,-2.7723,-2.9661,-3.0559,-3.1117,-3.178,-3.1133,-3.025,-2.9458,-2.8277,-2.7266,-2.6628,0.0,-2.624,-2.8451,-2.8191,-2.8413,-3.0149,-2.9413,-2.8642,0.0,0.0,0.0,0.0,0.0,0.0,-2.3472,-2.4186,-2.4029,-2.2572,-2.3022,-2.3355,-2.3355,-2.4579,-2.5194,-2.5194,-2.6407,-2.7013,-2.7021,-2.5798,-2.5194,-2.5194,-2.3596,-2.2731,-2.2731,-2.2355,-2.2237,-2.2111,-2.2111,-2.2111,-2.2083,-2.1913,-2.1603,-2.1279,-2.0984,-2.0667,-2.027,-1.9931,-1.9094,-1.8137,-1.8868,-1.8156,-1.7202,-1.7781,-1.7821,-1.7433,-1.6636,-1.6698,-1.6755,-1.5857,-1.6111,-1.653,-1.663,-1.673,-1.6836,-1.673,-1.673,-1.673,-1.673,-1.706,-1.718,-1.6672,-1.7493,-1.8076,-1.7667,-1.8479,-1.8532,-1.677,-1.7008,-1.739,-1.7382,-1.7037,-1.677,-1.677,-1.677,-1.6574,-1.6082,-1.6936,-1.7225,-1.6741,-1.7606,-1.7994,-1.7721,-1.7721,-1.7721,-1.7721,-1.7426,-1.7434,-1.7759,-1.7772,-1.783,-2.7562,-2.8871,-2.9685,-3.0732,-3.1341,-3.1638,-3.1781,-3.1306,-3.0651,-3.008,-2.9428,-2.8515,-2.6968,-2.7582,0.0,-2.8468,-2.9734,0.0,-3.1743,-3.1578,0.0,-3.0533,0.0,-2.9796,-2.9514,-2.9599,0.0,-2.7389,-2.6301,-2.5637,-2.5814,-2.5907,-2.6042,-2.6042,-2.6286,-2.6529,-2.6529,-2.69,-2.7013,-2.7013,-2.665,-2.6529,-2.6529,-2.6034,-2.5309,-2.4456,-2.4085,-2.3596,-2.2863,-2.2613,-2.2606,-2.2849,-2.2769,-2.2414,-2.1922,-2.1589,-2.121,-2.0974,-2.0859,-2.05,-2.0019,-2.05,-1.991,-1.919,-1.953,-1.8856,-1.7932,-1.8207,-1.8267,-1.8178,-1.76,-1.8252,-1.8693,-1.7041,-1.7463,-1.8094,-1.7272,-1.7384,-1.7694,-1.7694,-1.8506,-1.9412,-1.9868,-2.0234,-2.0255,-2.0007,-2.0645,-2.0326,-1.7916,-1.7755,-1.8033,-1.8688,-1.8603,-1.8796,-1.9271,-1.9363,-1.9271,-1.9163,-1.908,-1.8904,-1.8527,-1.8458,-1.8288,-1.7994,-1.7994,-1.7994,-1.7994,-1.79,-1.8029,-1.8373,-1.8361,-1.8566,-2.9842,-3.1166,-3.2059,-3.2494,-3.3066,-3.3056,-3.1809,-3.1228,-3.0451,-2.8682,-2.812,0.0,-2.6249,-2.7091,0.0,0.0,0.0,0.0,-3.2865,-3.296,-3.2768,0.0,-3.2318,0.0,-3.1485,-3.1564,-3.1295,0.0,-2.8695,-2.7553,-2.7229,-2.7379,-2.7349,-2.7349,-2.7966,-2.8453,-2.8929,-2.882,-2.871,-2.871,-2.8095,-2.7847,-2.7847,-2.7254,-2.665,-2.592,-2.5668,-2.5309,-2.4818,-2.4571,-2.4695,-2.4818,-2.4818,-2.4166,-2.3227,-2.3093,-2.244,-2.1546,-2.1546,-2.1425,-2.1303,-2.1546,-2.1189,-2.0938,-2.1388,-2.102,-2.0379,-2.0676,-2.0602,-2.0293,-1.9641,-1.9874,-2.0128,-1.9005,-1.942,-1.9937,-1.9317,-1.9428,-1.9635,-1.9635,-2.0238,-2.0875,-2.1378,-2.1844,-2.2021,-2.1653,-2.2398,-2.2375,-2.0704,-1.9936,-1.9703,-1.9994,-1.9803,-1.9812,-2.0292,-2.0292,-2.0292,-2.0292,-2.0011,-1.9828,-1.9646,-1.9196,-1.8827,-1.8542,-1.8373,-1.8288,-1.8288,-1.8333,-1.8502,-1.8789,-1.9,-1.914,-3.1865,-3.3254,-3.429,-3.4369,-3.4886,-3.4558,-3.165,-3.0862,-2.9781,-2.6507,0.0,-2.5519,-2.4737,-2.5571,-2.6974,-2.891,0.0,-3.1586,-3.367,-3.3863,-3.3971,-3.4645,-3.4328,-3.3977,-3.3704,-3.3226,-3.281,-3.2581,-3.1285,-2.9811,-2.8137,-2.8328,-2.8399,-2.8399,-2.9502,-3.048,-3.1325,-3.1112,-3.1005,-3.1005,-2.9893,-2.9275,-2.9275,-2.8086,-2.7495,-2.7375,-2.7375,-2.7246,-2.7125,-2.7125,-2.7125,-2.7125,-2.7125,-2.6185,-2.4836,-2.4836,-2.3817,-2.2449,-2.2441,-2.2441,-2.2335,-2.223,-2.2222,-2.2449,-2.3231,-2.3568,-2.3495,-2.3255,-2.2979,-2.2487,-2.165,-2.1354,-2.1347,-2.1371,-2.1667,-2.1853,-2.1752,-2.1752,-2.1853,-2.1954,-2.2055,-2.2055,-2.2257,-2.2976,-2.3485,-2.3143,-2.3901,-2.425,-2.3908,-2.2657,-2.1704,-2.1302,-2.0905,-2.0616,-2.0564,-2.0473,-2.0564,-2.0654,-2.0555,-2.0555,-2.0645,-2.0175,-1.9928,-1.9704,-1.9261,-1.9116,-1.9156,-1.917,-1.9336,-1.9582,-2.0008,-2.0123,-3.2841,-3.4004,-3.4939,-3.5143,-3.4971,-3.4036,-3.1219,-2.9548,0.0,0.0,-2.4977,-2.4586,-2.2927,-2.5408,-2.7815,-2.8131,0.0,0.0,0.0,0.0,-3.5381,0.0,0.0,0.0,-3.6002,-3.5693,0.0,0.0,-3.3909,-3.3067,-3.1532,-3.1255,-3.1063,-3.1063,-3.1315,-3.1546,-3.1672,-3.1682,-3.1672,-3.1682,-3.1431,-3.1315,-3.1305,-3.0723,-3.0128,-2.9403,-2.9148,-2.8536,-2.7683,-2.7683,-2.7683,-2.7683,-2.7683,-2.7217,-2.6425,-2.6425,-2.5386,-2.3991,-2.4531,-2.4214,-2.3464,-2.2796,-2.2788,-2.3231,-2.3689,-2.4128,-2.4548,-2.4471,-2.4503,-2.4263,-2.3115,-2.3519,-2.38,-2.2064,-2.2366,-2.2776,-2.1853,-2.1862,-2.2383,-2.3484,-2.3683,-2.3989,-2.4815,-2.5128,-2.5304,-2.5227,-2.513,-2.4967,-2.4621,-2.3824,-2.3223,-2.2819,-2.25,-2.218,-2.1857,-2.1553,-2.1731,-2.2353,-2.1971,-2.1952,-2.257,-2.2189,-2.2082,-2.2416,-2.2171,-2.2153,-2.2564,-2.2366,-2.2384,-2.2793,-2.2831,-2.2984,-3.4589,-3.5506,-3.6097,-3.5909,-3.5632,-3.4427,-3.1021,0.0,0.0,0.0,-2.3378,-2.324,-2.2658,0.0,0.0,0.0,0.0,0.0,0.0,0.0,0.0,0.0,0.0,0.0,0.0,-3.7026,-3.6379,-3.5847,-3.5651,-3.4681,-3.2602,-3.2383,-3.2258,-3.2258,-3.2143,-3.2018,-3.2018,-3.1903,-3.1787,-3.1787,-3.1787,-3.1787,-3.1787,-3.1672,-3.1315,-3.083,-3.0704,-3.0334,-2.9973,-2.9973,-2.9973,-2.9944,-2.9609,-2.8916,-2.8013,-2.7903,-2.6893,-2.5726,-2.6145,-2.6045,-2.5617,-2.5168,-2.4642,-2.4231,-2.4684,-2.5017,-2.534,-2.578,-2.5647,-2.5249,-2.49,-2.4923,-2.4824,-2.38,-2.4097,-2.4412,-2.389,-2.3899,-2.4115,-2.4815,-2.4913,-2.5118,-2.5635,-2.5742,-2.5742,-2.5742,-2.5635,-2.546,-2.5247,-2.5385,-2.4992,-2.3537,-2.3727,-2.3903,-2.3709,-2.3859,-2.394,-2.4085,-2.3614,-2.3428,-2.3791,-2.3418,-2.3345,-2.3851,-2.3414,-2.3417,-2.3615,-2.3551,-2.3662,-2.3944,-2.4082,-2.41,-3.6369,-3.7142,-3.7354,-3.6893,-3.6378,-3.4893,-3.1045,-2.8683,0.0,0.0,-2.2009,-2.2056,-2.2686,0.0,-2.5179,0.0,0.0,0.0,0.0,0.0,0.0,0.0,0.0,0.0,-3.9212,-3.8311,0.0,-3.7429,-3.6918,-3.5749,-3.3604,-3.348,-3.3378,-3.3058,-3.2934,-3.2706,-3.2373,-3.2133,-3.2133,-3.2352,-3.2352,-3.2457,-3.2789,-3.2664,-3.2561,-3.2352,-3.2352,-3.2123,-3.2018,-3.2018,-3.2072,-3.2168,-3.1481,-3.066,-2.9788,-2.9441,-2.8486,-2.7463,-2.7766,-2.7756,-2.7542,-2.7756,-2.6806,-2.5643,-2.62,-2.6318,-2.6445,-2.7196,-2.672,-2.5994,-2.6182,-2.5867,-2.544,-2.544,-2.5538,-2.5742,-2.5742,-2.5732,-2.583,-2.583,-2.583,-2.583,-2.583,-2.583,-2.583,-2.583,-2.583,-2.582,-2.6004,-2.6733,-2.6533,-2.4923,-2.5391,-2.5735,-2.5643,-2.5903,-2.6025,-2.5855,-2.5394,-2.5228,-2.5228,-2.4961,-2.4886,-2.5229,-2.4871,-2.4726,-2.4825,-2.4782,-2.4937,-2.5117,-2.5189,-2.5266,-3.7529,-3.8285,-3.889,-3.8238,-3.6826,-3.4654,-3.138,0.0,0.0,-2.2657,-2.1712,-2.1541,-2.2087,-2.3259,0.0,0.0,0.0,0.0,0.0,0.0,0.0,0.0,0.0,0.0,-4.0565,-4.0377,-3.9737,-3.8742,-3.7547,-3.6692,-3.5979,-3.6077,-3.5651,-3.4368,-3.4256,-3.3818,-3.2727,-3.2612,-3.3161,-3.4256,-3.4256,-3.4792,-3.5749,-3.5508,-3.498,-3.4256,-3.3909,-3.3367,-3.2612,-3.2612,-3.2899,-3.3364,-3.2257,-3.2141,-3.2278,-3.1307,-3.0028,-2.8976,-2.9513,-2.9081,-2.8329,-2.9282,-2.886,-2.7999,-2.8502,-2.8436,-2.8174,-2.8774,-2.7751,-2.649,-2.6593,-2.6068,-2.5635,-2.5635,-2.5635,-2.5742,-2.5742,-2.5917,-2.61,-2.61,-2.6304,-2.641,-2.641,-2.641,-2.6304,-2.61,-2.61,-2.6274,-2.701,-2.7094,-2.7432,-2.8179,-2.778,-2.7349,-2.6928,-2.6786,-2.6853,-2.7447,-2.7447,-2.7557,-2.7787,-2.77,-2.7657,-2.7688,-2.7415,-2.7537,-2.7974,-2.7714,-2.7631,-2.7631,-2.7673,-2.7694,-3.7221,-3.8315,-3.8786,-3.8281,-3.6987,-3.5121,-3.2175,0.0,-2.55,-2.3087,-2.159,-2.1008,-2.2033,-2.2585,-2.3751,0.0,-2.6819,-2.7859,-3.0799,0.0,0.0,0.0,0.0,0.0,0.0,0.0,-4.0694,-4.0134,-3.9802,-3.9378,-3.8779,-3.7571,-3.6584,-3.6054,-3.5945,-3.5738,-3.5002,-3.5002,-3.5223,-3.5553,-3.5553,-3.5761,-3.6185,-3.6065,-3.5859,-3.5553,-3.5432,-3.5212,-3.498,-3.4669,-3.4739,-3.5028,-3.4016,-3.3648,-3.3776,-3.3175,-3.2341,-3.1359,-3.1779,-3.1359,-3.0845,-3.1268,-3.137,-3.1051,-3.0286,-2.9891,-2.9807,-3.0203,-2.9443,-2.8545,-2.8655,-2.7796,-2.6849,-2.6849,-2.6476,-2.6217,-2.6217,-2.6304,-2.6304,-2.6304,-2.64,-2.6496,-2.6496,-2.6496,-2.6678,-2.7105,-2.7189,-2.7463,-2.8391,-2.8947,-2.9326,-2.9704,-2.9432,-2.9139,-2.8948,-2.9116,-2.9258,-2.9236,-2.895,-2.8786,-2.8896,-2.8896,-2.8958,-2.8909,-2.8829,-2.8745,-2.8664,-2.8384,-2.829,-2.8466,-2.829,-2.8196,-3.6805,-3.8008,-3.856,-3.8222,-3.704,-3.521,0.0,-2.8966,-2.5759,-2.3623,-2.1882,-2.1155,-2.2506,-2.2601,-2.3213,0.0,-2.5801,-2.6677,-2.945,-3.0637,0.0,0.0,0.0,-3.8477,0.0,-4.101,-4.1211,-4.0997,-4.1211,-4.111,-4.0707,-3.9171,-3.8077,-3.7547,-3.7547,-3.7228,-3.6715,-3.6715,-3.6823,-3.693,-3.693,-3.7156,-3.7477,-3.7477,-3.7263,-3.693,-3.693,-3.6741,-3.6459,-3.598,-3.5969,-3.603,-3.498,-3.4804,-3.4936,-3.4481,-3.3871,-3.34,-3.3674,-3.3476,-3.3277,-3.3476,-3.3784,-3.3895,-3.2644,-3.1735,-3.1235,-3.1633,-3.0843,-2.9948,-2.9773,-2.8921,-2.8132,-2.8132,-2.7778,-2.7315,-2.7315,-2.741,-2.7505,-2.7505,-2.7505,-2.76,-2.76,-2.76,-2.7778,-2.838,-2.8473,-2.8844,-2.9681,-3.026,-3.0722,-3.1003,-3.0812,-3.0722,-3.0633,-3.0925,-3.0962,-3.0683,-3.0296,-3.012,-2.9943,-2.9943,-2.9848,-2.976,-2.9669,-2.9485,-2.9024,-2.885,-2.8757,-2.8757,-2.8581,-2.8488,-3.6547,-3.7715,-3.8523,-3.8523,-3.6831,-3.4547,0.0,-2.8856,-2.6011,-2.4258,-2.2769,-2.2197,-2.3607,-2.3585,-2.3733,-2.5102,-2.6321,-2.7911,-3.0265,-3.2135,0.0,0.0,0.0,-3.7698,-3.866,-4.0305,-4.1311,-4.1311,-4.1311,-4.1311,-4.1311,-4.1311,-4.0465,-3.8847,-3.8742,-3.8194,-3.7002,-3.7002,-3.7547,-3.8742,-3.8742,-3.9403,-4.0504,-4.0504,-3.984,-3.8742,-3.8742,-3.7799,-3.6145,-3.6168,-3.6188,-3.6051,-3.5011,-3.5098,-3.5738,-3.4642,-3.4459,-3.4775,-3.5005,-3.5089,-3.5185,-3.5974,-3.627,-3.6188,-3.6036,-3.4288,-3.251,-3.3001,-3.1867,-3.0289,-2.9223,-2.9235,-2.9407,-2.9407,-2.9407,-2.9407,-2.9407,-2.959,-2.9761,-2.9761,-2.9966,-3.017,-3.017,-3.017,-3.0068,-2.9852,-2.9761,-3.0045,-3.08,-3.0902,-3.127,-3.23,-3.2125,-3.1937,-3.1661,-3.1661,-3.1661,-3.1661,-3.1661,-3.1472,-3.0937,-3.0847,-3.0668,-3.0216,-3.0216,-2.9943,-2.9485,-2.9485,-2.9209,-2.8757,-2.8757,-2.8757,-3.3128,-3.4717,-3.5745,-3.4206,-3.3399,-3.24,-3.0403,-2.7842,-2.5659,-2.4879,-2.316,-2.2213,-2.366,-2.3585,-2.4348,-2.7596,0.0,0.0,0.0,0.0,0.0,-3.5927,-3.8214,-3.9918,0.0,0.0,-4.1311,-4.1311,-4.0932,-4.0697,-4.0697,-4.0357,-4.0291,-4.0541,-4.0068,-3.9828,-3.9687,-3.922,-3.9334,-3.9955,-3.9955,-3.9956,-3.9902,-3.9902,-3.9857,-3.9628,-3.9089,-3.8974,-3.911,-3.8095,-3.8114,-3.8766,-3.8043,-3.8304,-3.9067,-3.8911,-3.8425,-3.7949,-3.8193,-3.7986,-3.7625,-3.7259,-3.7403,-3.7704,-3.7296,-3.6458,-3.5458,-3.445,-3.3558,-3.2695,-3.1645,-3.0991,-3.0699,-3.0699,-3.0339,-2.9977,-2.9977,-2.9977,-3.0056,-3.0056,-3.0158,-3.017,-3.017,-3.017,-3.0351,-3.0979,-3.1069,-3.1335,-3.2264,-3.2264,-3.2264,-3.255,-3.2388,-3.2213,-3.195,-3.1761,-3.1661,-3.1661,-3.1661,-3.1661,-3.1484,-3.1484,-3.1217,-3.0668,-3.0679,-3.0487,-2.9943,-2.9943,-2.976,-2.9301,-2.8932,-2.8757,0.0,-3.1805,-3.2805,-3.1611,-3.0907,-3.0217,-2.8985,-2.69,-2.516,-2.4763,-2.3374,-2.2647,-2.4048,-2.3838,-2.4415,-2.7239,-2.823,0.0,0.0,0.0,0.0,-3.7414,0.0,0.0,0.0,-4.087,-4.0952,-4.0952,-4.0597,-4.0386,-4.0386,-4.0343,-4.038,-4.073,-4.0305,-4.0194,-4.0447,-4.0363,-4.046,-4.0717,-4.0984,-4.0967,-4.0595,-4.0595,-4.0776,-4.0881,-4.0361,-4.0428,0.0,-3.993,-3.9816,-4.0274,-3.995,-4.0232,-4.0746,-4.0972,-4.0661,-4.0092,-4.0363,-4.0164,-3.9878,-3.9412,-3.9338,-3.944,-3.9541,-3.8608,-3.7326,-3.5839,-3.5277,-3.4857,-3.3824,-3.3006,-3.2476,-3.2476,-3.1865,-3.1258,-3.1258,-3.1258,-3.1258,-3.1258,-3.1258,-3.1258,-3.1258,-3.1258,-3.1524,-3.2077,-3.2164,-3.2351,-3.2982,-3.2982,-3.281,-3.281,-3.2649,-3.2475,-3.2288,-3.2113,-3.1937,-3.1937,-3.1849,-3.1849,-3.1849,-3.1749,-3.1572,-3.1217,-3.1217,-3.0949,-3.0487,-3.0306,-3.0204,-3.0091,-2.9382,-2.9371,0.0,-2.8965,-2.9805,-3.0108,-2.9132,-2.7992,-2.7594,-2.6013,0.0,-2.4143,-2.3449,-2.337,-2.4978,-2.4503,-2.4225,-2.5329,0.0,0.0,0.0,-3.3859,0.0,0.0,-3.9577,0.0,-4.0055,-4.0377,-4.0509,-4.0509,-4.0469,-4.0455,-4.0455,-4.1026,-4.0879,-3.9972,-3.9823,-3.9698,-3.9695,-4.0629,-4.1066,-4.1107,-4.1904,-4.2312,-4.227,-4.227,-4.2256,-4.2289,-4.2214,-4.1906,-4.1576,-4.1488,-4.1137,-4.076,-4.0986,-4.1056,-4.114,-4.1377,-4.1446,-4.1446,-4.1807,-4.1835,-4.1835,-4.2058,-4.1738,-4.1403,-4.2268,-4.0633,-3.8265,-3.7203,-3.6967,-3.6784,-3.5683,-3.4924,-3.4481,-3.4481,-3.3894,-3.3326,-3.3326,-3.3326,-3.3326,-3.3326,-3.3326,-3.3326,-3.3326,-3.3326,-3.324,-3.3154,-3.3154,-3.3154,-3.3154,-3.3154,-3.3167,-3.3167,-3.2896,-3.2723,-3.2723,-3.2562,-3.24,-3.24,-3.2125,-3.2038,-3.2038,-3.1849,-3.1749,-3.1749,-3.1837,-3.1572,-3.1116,-3.0656,-3.0722,-3.1311,-3.0181,-3.0519,-2.4605,0.0,-2.7031,-2.5739,-2.5601,-2.5732,0.0,-2.4726,-2.4064,0.0,0.0,-2.3883,-2.7075,-2.5982,-2.6052,-3.0592,0.0,0.0,-3.4862,0.0,0.0,-4.2545,-4.2183,-4.1853,-4.2202,-4.2364,-4.234,-4.2326,-4.1892,-4.1713,-4.1713,-4.1409,-4.1127,-4.0882,-4.0882,-4.0755,-4.0656,-4.1113,-4.1549,-4.1994,-4.2161,-4.2102,-4.1681,-4.1681,-4.1851,-4.1992,-4.1283,-4.1454,-4.2096,-4.1312,-4.1465,-4.2164,-4.2164,-4.268,-4.3299,-4.3521,-4.3585,-4.3663,-4.4464,-4.4479,-4.4051,-4.357,-4.313,-4.2782,-4.2971,-4.1334,-3.9454,-3.9205,-3.8255,-3.7134,-3.6383,-3.5762,-3.5318,-3.5318,-3.5142,-3.4979,-3.4979,-3.4979,-3.4979,-3.4979,-3.4979,-3.4979,-3.4979,-3.4979,-3.4828,-3.423,-3.4063,-3.4063,-3.4063,-3.3484,-3.3326,-3.3979,-3.3398,-3.2982,-3.2982,-3.2649,-3.24,-3.24,-3.23,-3.2213,-3.2038,-3.245,-3.2612,-3.245,-3.2957,-3.3202,-3.3018,-3.2562,-3.2376,-3.2537,-3.1916,-3.1816,-2.3692,-2.5091,-2.643,-2.5611,-2.5471,-2.5609,-2.5911,0.0,0.0,0.0,0.0,0.0,-2.6792,0.0,0.0,0.0,-3.24,0.0,0.0,0.0,-4.1987,-4.3965,-4.339,-4.2948,-4.3117,-4.2823,-4.2567,-4.2453,-4.2222,-4.2035,-4.2035,-4.2024,-4.1821,-4.1392,-4.2068,-4.2071,-4.1118,-4.1682,-4.2123,-4.2424,-4.2878,-4.2887,-4.2665,-4.2665,-4.2723,-4.29,-4.2731,-4.3021,-4.3539,-4.3419,-4.3714,-4.4235,-4.4311,-4.4675,-4.5184,-4.5332,-4.5478,-4.5551,-4.608,-4.615,-4.5937,-4.5674,-4.5425,-4.5191,-4.4927,-4.3579,-4.1981,-4.1062,-4.0193,-3.9291,-3.8301,-3.7501,-3.6901,-3.6696,-3.6304,-3.5922,-3.5695,-3.5615,-3.5615,-3.5615,-3.5615,-3.5615,-3.5615,-3.5615,-3.5467,-3.5006,-3.4924,-3.4924,-3.4924,-3.4511,-3.4441,-3.4924,-3.4511,-3.4275,-3.4275,-3.4011,-3.37,-3.3313,-3.3202,-3.3275,-3.3505,-3.3759,-3.3771,-3.3433,-3.3771,-3.3856,-3.3713,-3.3445,-3.3518,-3.3759,-3.2968,-3.3054,-2.4166,-2.5733,-2.7232,-2.6896,-2.6597,-2.6446,-2.6882,0.0,0.0,0.0,0.0,0.0,0.0,0.0,0.0,0.0,0.0,0.0,-4.0062,-4.1801,-4.3094,-4.4418,-4.3927,-4.3521,-4.3521,-4.2805,-4.24,-4.24,-4.24,-4.24,-4.24,-4.2981,-4.2871,-4.2082,-4.3364,-4.3349,-4.1695,-4.2489,-4.2841,-4.2841,-4.363,-4.405,-4.4205,-4.4205,-4.4266,-4.4404,-4.5036,-4.5316,-4.539,-4.5992,-4.626,-4.633,-4.6518,-4.6518,-4.6588,-4.6831,-4.6968,-4.6952,-4.7174,-4.734,-4.7506,-4.7589,-4.7671,-4.7523,-4.7085,-4.6157,-4.4798,-4.2978,-4.2169,-4.1453,-4.0365,-3.9418,-3.8708,-3.8221,-3.7529,-3.6901,-3.6383,-3.6225,-3.6225,-3.616,-3.6094,-3.6094,-3.6015,-3.6029,-3.5935,-3.5789,-3.5789,-3.5789,-3.5789,-3.5695,-3.5615,-3.5775,-3.5695,-3.5615,-3.5615,-3.5615,-3.54,-3.4799,-3.4415,-3.465,-3.5386,-3.5237,-3.4979,-3.4719,-3.4719,-3.4581,-3.4204,-3.4134,-3.4384,-3.4964,-3.3927,-3.423,-2.5532,-2.7745,-2.8947,-2.555,-2.6128,-2.7163,0.0,0.0,0.0,0.0,0.0,0.0,0.0,0.0,0.0,0.0,0.0,-3.7938,0.0,0.0,-4.3094,-4.4418,0.0,-4.4419,-4.4419,-4.4251,-4.4174,-4.4174,-4.4174,-4.4174,-4.4174,-4.4328,-4.4251,-4.4159,-4.4419,-4.4328,-4.4066,-4.3864,-4.3801,-4.3801,-4.3895,-4.4343,-4.4902,-4.4902,-4.53,-4.5834,-4.5977,-4.6134,-4.6308,-4.6448,-4.6588,-4.6726,-4.6742,-4.6742,-4.6864,-4.7408,-4.7651,-4.7733,-4.8085,-4.8346,-4.8433,-4.8015,-4.7885,-4.7819,-4.7754,-4.7095,-4.6272,-4.5373,-4.3121,-4.0978,-4.0709,-4.0185,-3.9662,-3.9591,-3.952,-3.9346,-3.9275,-3.9203,-3.9073,-3.8694,-3.8546,-3.8397,-3.7872,-3.7796,-3.7553,-3.6844,-3.6688,-3.6688,-3.6688,-3.6029,-3.5869,-3.661,-3.6029,-3.5615,-3.5615,-3.5615,-3.5869,-3.6452,-3.5789,-3.5628,-3.6136,-3.5976,-3.607,-3.6573,-3.6573,-3.6573,-3.6494,-3.6125,-3.6058,-3.6152,-3.5548,-3.5723,-2.4419,-2.6975,-2.9062,-2.6792,-2.8413,-3.0333,0.0,0.0,0.0,0.0,0.0,0.0,0.0,0.0,0.0,-3.7689,0.0,-3.9699,-4.1913,-4.2515,-4.3137,0.0,-4.4572,-4.4572,-4.4572,-4.4572,-4.4572,-4.4572,-4.4572,-4.4572,-4.4572,-4.4572,-4.4572,-4.4572,-4.4572,-4.4783,-4.5216,-4.4993,-4.4708,-4.4358,-4.4708,-4.5126,-4.5405,-4.5825,-4.6237,-4.6571,-4.6968,-4.7357,-4.7785,-4.8189,-4.8613,-4.9052,-4.9052,-4.9095,-4.918,-4.9481,-4.962,-4.9751,-4.9899,-4.9907,-4.9797,-4.9546,-4.9265,-4.8866,-4.8056,-4.734,-4.6464,-4.5396,-4.3784,-4.2275,-4.1863,-4.1292,-4.0752,-4.0478,-4.0424,-4.027,-3.9975,-3.9889,-3.9834,-3.9565,-3.9493,-3.9421,-3.919,-3.9118,-3.8957,-3.8561,-3.8487,-3.8428,-3.8098,-3.7767,-3.7677,-3.8023,-3.7767,-3.751,-3.751,-3.751,-3.7295,-3.6936,-3.7,-3.7078,-3.7323,-3.7246,-3.726,-3.7303,-3.7303,-3.7226,-3.6978,-3.6836,-3.6693,-3.6693,-3.6855,-3.6918,-2.3859,-2.6164,-2.8543,-2.8443,0.0,0.0,0.0,0.0,0.0,0.0,0.0,0.0,0.0,0.0,0.0,-4.0243,-4.0509,-4.0863,-4.2419,-4.2667,-4.3046,-4.4106,-4.4245,-4.4245,-4.417,-4.4185,-4.4185,-4.4185,-4.4339,-4.4416,-4.4492,-4.4646,-4.4739,-4.4739,-4.4858,-4.5274,-4.5825,-4.5969,-4.5753,-4.5142,-4.5697,-4.604,-4.6237,-4.6811,-4.7153,-4.7406,-4.795,-4.8555,-4.918,-4.978,-5.0349,-5.0964,-5.0964,-5.1104,-5.1343,-5.1343,-5.1411,-5.1579,-5.1579,-5.1312,-5.1017,-5.1017,-5.0589,-4.9847,-4.862,-4.7592,-4.6567,-4.5404,-4.4462,-4.3627,-4.2948,-4.2443,-4.1884,-4.1374,-4.1241,-4.1039,-4.0462,-4.0324,-4.0255,-4.0115,-4.0115,-4.0045,-3.9889,-3.9889,-3.9889,-3.9889,-3.9889,-3.9763,-3.9364,-3.9307,-3.9307,-3.9307,-3.9307,-3.9307,-3.9307,-3.9162,-3.8634,-3.7477,-3.7886,-3.8202,-3.8202,-3.8202,-3.8066,-3.7763,-3.7763,-3.761,-3.7289,-3.7226,-3.7148,-3.7162,-3.7391,-3.7543,-2.575,-2.6832,-2.7698,-2.9204,0.0,0.0,0.0,0.0,0.0,0.0,0.0,0.0,0.0,-3.7755,-3.9548,-4.1629,-4.1454,-4.1304,-4.2053,-4.2162,-4.2427,-4.3105,-4.3198,-4.3111,-4.2968,-4.2911,-4.2911,-4.2911,-4.3603,-4.4033,-4.4133,-4.4771,-4.5145,-4.5145,-4.5769,-4.6095,-4.615,-4.6831,-4.6968,-4.6673,-4.6673,-4.7085,-4.7737,-4.7819,-4.8289,-4.9029,-4.909,-4.9521,-5.022,-5.0237,-5.0589,-5.1104,-5.1104,-5.1494,-5.2018,-5.2018,-5.2149,-5.2297,-5.2297,-5.1964,-5.1551,-5.1551,-5.1019,-5.0246,-4.9662,-4.8452,-4.7125,-4.6579,-4.5482,-4.427,-4.3588,-4.3393,-4.3213,-4.2632,-4.2459,-4.2269,-4.1638,-4.1456,-4.1307,-4.0851,-4.073,-4.0578,-3.9975,-3.9889,-3.9889,-3.9889,-3.9889,-3.9905,-3.9834,-3.9834,-3.9834,-3.9834,-3.9834,-3.9834,-3.9834,-3.9364,-3.9031,-3.8943,-3.8501,-3.8202,-3.8202,-3.8202,-3.8202,-3.8127,-3.8127,-3.8127,-3.8127,-3.7763,-3.7534,-3.7534,-3.6828,-3.704,-2.4116,-2.6095,-2.8136,-2.9086,0.0,0.0,0.0,0.0,0.0,0.0,0.0,0.0,0.0,0.0,-4.1285,-4.1629,-4.155,-4.159,-4.2228,-4.2254,-4.2504,-4.3036,-4.3114,-4.3043,-4.2972,-4.2972,-4.2972,-4.2972,-4.3615,-4.4038,-4.4091,-4.4729,-4.5062,-4.5062,-4.5301,-4.5701,-4.6109,-4.643,-4.6995,-4.7826,-4.7799,-4.795,-4.8208,-4.9033,-4.9588,-4.9913,-5.022,-5.0751,-5.1363,-5.1363,-5.1714,-5.2307,-5.2353,-5.2572,-5.2769,-5.2769,-5.2831,-5.2912,-5.2912,-5.2236,-5.1369,-5.1369,-5.0593,-4.9572,-4.891,-4.8245,-4.7533,-4.668,-4.5995,-4.5337,-4.4451,-4.3864,-4.3436,-4.3317,-4.2925,-4.2522,-4.2285,-4.19,-4.1522,-4.1323,-4.1323,-4.1256,-4.1024,-4.0956,-4.0956,-4.0956,-4.0956,-4.082,-4.0493,-4.0493,-4.0493,-4.0493,-4.0493,-4.0493,-4.0493,-3.992,-3.9565,-3.9565,-3.8708,-3.8352,-3.8723,-3.8723,-3.8929,-3.9262,-3.8929,-3.8723,-3.8723,-3.8202,-3.7976,-3.7991,-3.8102,-3.806,-2.3177,-2.5375,-2.7913,0.0,0.0,0.0,0.0,0.0,0.0,0.0,0.0,0.0,0.0,0.0,0.0,0.0,-4.1486,-4.1696,-4.2066,-4.2145,-4.2234,-4.262,-4.2598,-4.2598,-4.2528,-4.2528,-4.2598,-4.2858,-4.3508,-4.3939,-4.4219,-4.4853,-4.5208,-4.5208,-4.5382,-4.5773,-4.6234,-4.6507,-4.7189,-4.8385,-4.8429,-4.8591,-4.9067,-5.009,-5.0607,-5.0643,-5.0999,-5.1547,-5.2108,-5.2108,-5.2499,-5.3085,-5.3295,-5.3378,-5.3359,-5.3521,-5.3561,-5.3524,-5.3246,-5.2548,-5.1692,-5.1347,-5.0453,-4.9368,-4.8686,-4.8237,-4.7779,-4.686,-4.6548,-4.6376,-4.5732,-4.4841,-4.4112,-4.4021,-4.363,-4.3229,-4.2986,-4.2615,-4.2237,-4.2237,-4.2061,-4.19,-4.19,-4.172,-4.1588,-4.1588,-4.1588,-4.1456,-4.1122,-4.1055,-4.1055,-4.1055,-4.1055,-4.1055,-4.1055,-4.0493,-4.0185,-4.0185,-3.9262,-3.8914,-3.9364,-3.9364,-3.9508,-3.9889,-3.9364,-3.9104,-3.9104,-3.8649,-3.8501,-3.8516,-3.9029,-3.9019,-2.3596,-2.4906,0.0,0.0,0.0,0.0,0.0,0.0,0.0,0.0,0.0,0.0,0.0,0.0,0.0,-4.1371,-4.1486,-4.1588,-4.1588,-4.1588,-4.1588,-4.1588,-4.1588,-4.1522,-4.1323,-4.1323,-4.1573,-4.2253,-4.2929,-4.3717,-4.4577,-4.5239,-4.5619,-4.5619,-4.626,-4.6558,-4.6558,-4.7295,-4.7922,-4.8381,-4.8433,-4.9065,-5.0331,-5.0823,-5.1172,-5.1292,-5.1292,-5.1728,-5.2389,-5.2389,-5.2698,-5.323,-5.3565,-5.3701,-5.3739,-5.4139,-5.4277,-5.4165,-5.3286,-5.2967,-5.2803,-5.1655,-5.0801,-5.0042,-4.9226,-4.8516,-4.7802,-4.7324,-4.7194,-4.7237,-4.7385,-4.6406,-4.53,-4.4818,-4.4708,-4.4524,-4.3831,-4.3714,-4.3714,-4.3714,-4.3092,-4.2585,-4.2585,-4.2029,-4.1588,-4.1588,-4.1588,-4.1588,-4.1588,-4.1588,-4.1588,-4.1588,-4.1588,-4.1588,-4.1588,-4.1122,-4.0799,-4.0799,-4.027,-3.9889,-3.9889,-3.9889,-3.9889,-3.9905,-3.9364,-3.9104,-3.9104,-3.9104,-3.9104,-3.9104,-3.9262,-3.9591,-2.4697,-2.6465,0.0,0.0,0.0,0.0,0.0,0.0,0.0,0.0,0.0,0.0,0.0,0.0,0.0,-4.2193,-4.1787,-4.1588,-4.1588,-4.1588,-4.1588,-4.1588,-4.1588,-4.1588,-4.1522,-4.1964,-4.2269,-4.2522,-4.3548,-4.4273,-4.4539,-4.5139,-4.5426,-4.5426,-4.5665,-4.5792,-4.5792,-4.6378,-4.7,-4.7643,-4.8342,-4.8972,-4.9546,-5.0068,-5.0368,-5.0415,-5.0794,-5.1067,-5.1316,-5.1507,-5.2195,-5.3011,-5.2501,-5.2666,-5.315,-5.2653,-5.248,-5.2442,-5.2245,-5.1807,-5.1262,-5.0954,-5.0366,-4.9628,-4.9269,-4.893,-4.8621,-4.802,-4.7779,-4.7638,-4.747,-4.7017,-4.656,-4.6196,-4.5459,-4.4801,-4.4601,-4.4175,-4.3855,-4.3855,-4.324,-4.2847,-4.3317,-4.2364,-4.1769,-4.2206,-4.19,-4.1588,-4.1588,-4.1588,-4.1588,-4.1588,-4.1588,-4.1588,-4.1588,-4.1456,-4.139,-4.139,-4.1174,-4.0904,-4.0578,-4.0493,-4.0699,-4.1091,-4.0562,-4.0301,-4.0301,-3.9849,-3.9636,-3.9692,-3.9677,-3.964,-2.5601,0.0,0.0,0.0,0.0,0.0,0.0,0.0,0.0,0.0,0.0,0.0,-4.4471,-4.3855,0.0,-4.2899,-4.257,-4.2364,-4.2364,-4.2364,-4.2253,-4.2029,-4.219,-4.2253,-4.2029,-4.2569,-4.3064,-4.3306,-4.4088,-4.4614,-4.4852,-4.5194,-4.5423,-4.5423,-4.5423,-4.5511,-4.5718,-4.6038,-4.6592,-4.7447,-4.8037,-4.8482,-4.8901,-4.9876,-5.0332,-5.0314,-5.0787,-5.1003,-5.1023,-5.1341,-5.1865,-5.2442,-5.2128,-5.2303,-5.273,-5.2351,-5.2219,-5.2163,-5.1869,-5.1442,-5.0968,-5.0572,-5.0117,-4.9692,-4.9435,-4.929,-4.9137,-4.8711,-4.8458,-4.8233,-4.8059,-4.782,-4.753,-4.708,-4.6401,-4.5815,-4.5648,-4.5303,-4.4952,-4.477,-4.4118,-4.3731,-4.4118,-4.324,-4.2645,-4.297,-4.2678,-4.2364,-4.2364,-4.2142,-4.2029,-4.2029,-4.2029,-4.2029,-4.2029,-4.2029,-4.2029,-4.2029,-4.1785,-4.1456,-4.1122,-4.1122,-4.1256,-4.1588,-4.1055,-4.0799,-4.0799,-4.0424,-4.027,-4.027,-4.0462,-4.0462,0.0,0.0,0.0,0.0,0.0,0.0,0.0,0.0,0.0,0.0,0.0,-4.4422,-4.455,-4.3927,-4.3435,-4.3589,-4.3571,-4.3512,-4.3512,-4.3512,-4.3273,-4.2756,-4.3169,-4.3273,-4.2756,-4.3213,-4.3823,-4.4446,-4.4558,-4.4852,-4.5371,-4.5423,-4.5423,-4.5423,-4.5476,-4.5718,-4.6186,-4.6266,-4.6753,-4.7632,-4.7632,-4.7897,-4.8361,-4.9884,-5.0582,-5.0643,-5.0954,-5.1118,-5.119,-5.1424,-5.1606,-5.1726,-5.2096,-5.2273,-5.2357,-5.2647,-5.2762,-5.2666,-5.188,-5.1593,-5.1437,-5.0407,-5.0092,-5.0092,-4.9754,-4.957,-4.9457,-4.9396,-4.9193,-4.8943,-4.8909,-4.8642,-4.821,-4.7656,-4.747,-4.7299,-4.6873,-4.6799,-4.6678,-4.6235,-4.5494,-4.5001,-4.5054,-4.4401,-4.3855,-4.3773,-4.3597,-4.3571,-4.3571,-4.3047,-4.2694,-4.2694,-4.2694,-4.2694,-4.2694,-4.2694,-4.2694,-4.2694,-4.2093,-4.172,-4.172,-4.1654,-4.1588,-4.1588,-4.1122,-4.0867,-4.0867,-4.0867,-4.0867,-4.0851,-4.139,-4.1588,0.0,0.0,0.0,0.0,0.0,0.0,0.0,0.0,0.0,0.0,-4.5285,-4.5164,-4.5213,-4.4661,-4.4243,-4.4282,-4.3823,-4.3512,-4.3512,-4.3512,-4.3453,-4.3333,-4.3393,-4.3453,-4.3333,-4.3881,-4.4316,-4.4502,-4.4961,-4.5247,-4.5371,-4.5423,-4.5423,-4.5423,-4.5803,-4.6087,-4.6186,-4.6936,-4.7464,-4.7733,-4.8035,-4.8267,-4.8475,-4.873,-4.8973,-4.9213,-4.9319,-4.9641,-5.0136,-5.0232,-5.084,-5.1637,-5.1109,-5.1289,-5.1767,-5.1245,-5.1037,-5.1018,-5.0869,-5.0851,-5.0794,-5.0602,-5.0565,-5.0504,-5.0164,-5.0043,-4.9936,-4.9499,-4.9352,-4.9225,-4.8978,-4.8839,-4.875,-4.8605,-4.8059,-4.753,-4.7421,-4.7421,-4.7378,-4.7291,-4.6365,-4.578,-4.6244,-4.5005,-4.3913,-4.3855,-4.3797,-4.3797,-4.3797,-4.3597,-4.3479,-4.3479,-4.3393,-4.3333,-4.3333,-4.3333,-4.3333,-4.3333,-4.2756,-4.2396,-4.2396,-4.19,-4.1588,-4.1588,-4.1456,-4.1456,-4.1456,-4.1456,-4.1456,-4.1456,-4.1522,-4.1588,0.0,0.0,0.0,0.0,0.0,0.0,0.0,0.0,0.0,-4.4268,-4.4923,-4.5423,-4.5423,-4.514,-4.4906,-4.4906,-4.4652,-4.4412,-4.4412,-4.4412,-4.4282,-4.3997,-4.4226,-4.4299,-4.4013,-4.4541,-4.4906,-4.4906,-4.5194,-4.5423,-4.5423,-4.5684,-4.5837,-4.5803,-4.6376,-4.6781,-4.6936,-4.7488,-4.7879,-4.8192,-4.8364,-4.855,-4.8767,-4.8658,-4.8797,-4.9126,-4.9314,-4.958,-4.9917,-5.0106,-5.0554,-5.1089,-5.0694,-5.0811,-5.1137,-5.0736,-5.0603,-5.0603,-5.0643,-5.0643,-5.0643,-5.0702,-5.0702,-5.0663,-5.0483,-5.0336,-5.0135,-4.9857,-4.9684,-4.951,-4.9206,-4.9127,-4.9094,-4.8943,-4.8532,-4.8174,-4.7995,-4.7955,-4.7856,-4.7632,-4.7088,-4.671,-4.6799,-4.5732,-4.4912,-4.4912,-4.4858,-4.4804,-4.4804,-4.4473,-4.4249,-4.4249,-4.4192,-4.4152,-4.4152,-4.4152,-4.4152,-4.4152,-4.3538,-4.3257,-4.3257,-4.2831,-4.2301,-4.1588,-4.19,-4.19,-4.1588,-4.1588,-4.1588,-4.1588,-4.1588,-4.1769,0.0,0.0,0.0,0.0,0.0,0.0,0.0,0.0,0.0,-4.3197,-4.4268,-4.5234,-4.5234,-4.5337,-4.5423,-4.5423,-4.5423,-4.5423,-4.5423,-4.5423,-4.5194,-4.4725,-4.5086,-4.5194,-4.4669,-4.514,-4.5423,-4.5423,-4.5476,-4.5511,-4.5615,-4.6035,-4.6376,-4.6346,-4.699,-4.747,-4.7816,-4.7959,-4.8251,-4.8642,-4.8695,-4.8869,-4.9196,-4.9126,-4.9295,-4.9589,-4.9872,-5.0019,-5.0111,-5.0396,-5.0521,-5.0521,-5.0603,-5.0623,-5.0623,-5.0663,-5.0702,-5.0702,-5.0702,-5.0702,-5.0702,-5.0702,-5.0702,-5.0702,-5.0702,-5.0504,-5.0272,-5.0206,-5.0043,-4.9803,-4.9529,-4.9427,-4.9321,-4.9061,-4.8925,-4.8785,-4.8495,-4.842,-4.8288,-4.7879,-4.7756,-4.7548,-4.7115,-4.6602,-4.6284,-4.6284,-4.6186,-4.6087,-4.6087,-4.5665,-4.5338,-4.5338,-4.5285,-4.5233,-4.5197,-4.5161,-4.5161,-4.5072,-4.4456,-4.4085,-4.4085,-4.4004,-4.33,-4.1997,-4.2506,-4.2459,-4.1769,-4.19,-4.1884,-4.1785,-4.19,-4.2206,0.0,0.0,0.0,0.0,0.0,0.0,0.0,0.0,-4.2337,0.0,-4.3837,-4.4423,-4.4423,-4.4975,-4.5423,-4.5423,-4.5423,-4.5423,-4.5423,-4.5423,-4.5371,-4.53,-4.5371,-4.5371,-4.5318,-4.5476,-4.5563,-4.5563,-4.5667,-4.5938,-4.6328,-4.6424,-4.6689,-4.7062,-4.7554,-4.782,-4.7879,-4.8289,-4.8605,-4.8787,-4.9023,-4.9271,-4.9542,-4.9827,-4.9949,-4.9943,-4.9993,-5.0178,-5.0438,-5.0542,-5.0582,-5.0603,-5.0663,-5.0702,-5.0702,-5.0702,-5.0702,-5.0702,-5.0702,-5.0702,-5.0702,-5.0702,-5.0702,-5.0702,-5.0702,-5.0663,-5.0565,-5.0272,-5.0183,-5.0068,-4.983,-4.9569,-4.9384,-4.9334,-4.9127,-4.8909,-4.882,-4.882,-4.8785,-4.875,-4.8439,-4.8035,-4.7591,-4.7464,-4.7378,-4.7378,-4.7378,-4.736,-4.736,-4.7212,-4.7062,-4.7062,-4.6955,-4.6728,-4.6293,-4.631,-4.6133,-4.5701,-4.5125,-4.4783,-4.4783,-4.4729,-4.4305,-4.342,-4.3376,-4.3108,-4.2459,-4.2986,-4.2986,-4.2459,-4.297,-4.3273,0.0,0.0,0.0,0.0,0.0,0.0,0.0,0.0,-4.1261,-4.2091,-4.2635,-4.313,-4.3629,-4.394,-4.4165,-4.4165,-4.4165,-4.4165,-4.4165,-4.4198,-4.4405,-4.482,-4.494,-4.5165,-4.558,-4.5684,-4.5803,-4.6052,-4.5905,-4.6119,-4.6837,-4.6945,-4.715,-4.7596,-4.8155,-4.8458,-4.8383,-4.8642,-4.889,-4.9127,-4.9401,-4.9683,-4.993,-5.0092,-5.0249,-5.0399,-5.0399,-5.0462,-5.0604,-5.0643,-5.0643,-5.0643,-5.0702,-5.0702,-5.0702,-5.0702,-5.0702,-5.0702,-5.0702,-5.0702,-5.0702,-5.0702,-5.0702,-5.0702,-5.0702,-5.0702,-5.0663,-5.0504,-5.0483,-5.0421,-5.0111,-4.9936,-4.9803,-4.9655,-4.9408,-4.9193,-4.9193,-4.9027,-4.8909,-4.8909,-4.8569,-4.821,-4.8035,-4.7756,-4.7591,-4.7591,-4.7591,-4.7591,-4.7591,-4.753,-4.7488,-4.7488,-4.7446,-4.7212,-4.6753,-4.6707,-4.6537,-4.6073,-4.5803,-4.5615,-4.5615,-4.5477,-4.5249,-4.4875,-4.4378,-4.3806,-4.3108,-4.3393,-4.3333,-4.3108,-4.3393,-4.3689,0.0,0.0,0.0,0.0,0.0,0.0,0.0,0.0,-4.0186,0.0,-4.1603,-4.2021,-4.287,-4.3117,-4.3214,-4.3214,-4.3214,-4.3264,-4.3247,-4.3328,-4.3586,-4.4158,-4.4344,-4.4669,-4.5291,-4.5411,-4.562,-4.6084,-4.5794,-4.5964,-4.6813,-4.6957,-4.7161,-4.7551,-4.8049,-4.8354,-4.8507,-4.8866,-4.9174,-4.9499,-4.9776,-5.0012,-5.0206,-5.0294,-5.0464,-5.0702,-5.0702,-5.0702,-5.0702,-5.074,-5.074,-5.074,-5.074,-5.074,-5.074,-5.0702,-5.0702,-5.0702,-5.0702,-5.0702,-5.0702,-5.0702,-5.0702,-5.0702,-5.0702,-5.0702,-5.0702,-5.0702,-5.0702,-5.0624,-5.038,-5.0272,-5.0159,-4.9943,-4.9655,-4.9384,-4.9289,-4.9061,-4.8909,-4.8909,-4.8642,-4.8458,-4.8458,-4.8135,-4.7919,-4.7919,-4.7919,-4.7919,-4.7919,-4.7919,-4.7919,-4.7919,-4.7919,-4.7756,-4.7291,-4.7266,-4.7044,-4.6619,-4.6429,-4.6398,-4.6398,-4.6073,-4.5871,-4.5821,-4.5319,-4.4635,-4.3748,-4.398,-4.398,-4.3806,-4.398,-4.4339,0.0,0.0,0.0,0.0,0.0,0.0,0.0,0.0,-3.9139,-4.0774,-4.1114,-4.1421,-4.2386,-4.2896,-4.3214,-4.3279,-4.3279,-4.3328,-4.3475,-4.3475,-4.3492,-4.3576,-4.3576,-4.375,-4.4152,-4.4289,-4.4537,-4.4928,-4.507,-4.533,-4.5846,-4.5883,-4.6102,-4.6539,-4.6624,-4.6995,-4.7757,-4.8832,-4.9499,-4.9776,-5.0043,-5.0183,-5.0206,-5.0544,-5.0683,-5.0702,-5.0702,-5.0702,-5.0702,-5.0825,-5.0887,-5.0887,-5.0887,-5.0887,-5.0855,-5.074,-5.0702,-5.0702,-5.0702,-5.0702,-5.0702,-5.0702,-5.0702,-5.0702,-5.0702,-5.0702,-5.0702,-5.0702,-5.0702,-5.0702,-5.0683,-5.0442,-5.0206,-5.0183,-4.9776,-4.9321,-4.8993,-4.8909,-4.8909,-4.8909,-4.8874,-4.8874,-4.8874,-4.8855,-4.882,-4.882,-4.882,-4.882,-4.882,-4.882,-4.882,-4.882,-4.882,-4.8678,-4.8249,-4.8229,-4.8035,-4.7548,-4.7115,-4.6863,-4.6863,-4.6429,-4.6122,-4.5972,-4.5972,-4.5424,-4.4446,-4.5266,-4.5319,-4.4652,-4.5213,-4.5563,0.0,0.0,0.0,0.0,0.0,0.0,0.0,-3.7275,-3.8668,-3.9769,-4.0201,-4.0643,-4.151,-4.2269,-4.2764,-4.2807,-4.2807,-4.2789,-4.285,-4.2695,-4.2714,-4.327,-4.3385,-4.3669,-4.4307,-4.4628,-4.5003,-4.5455,-4.5243,-4.5455,-4.6221,-4.5955,-4.6009,-4.6494,-4.6494,-4.6722,-4.7186,-4.7777,-4.8185,-4.8462,-4.8731,-4.9142,-4.9679,-4.9798,-5.0164,-5.0702,-5.0702,-5.0702,-5.0702,-5.0758,-5.0808,-5.0887,-5.0887,-5.0887,-5.0887,-5.0841,-5.0757,-5.0702,-5.0702,-5.0702,-5.0702,-5.0702,-5.0702,-5.0702,-5.0702,-5.0702,-5.0702,-5.0702,-5.0702,-5.0702,-5.0702,-5.0604,-5.0483,-5.0249,-5.0062,-4.9776,-4.9334,-4.9061,-4.8909,-4.8909,-4.8909,-4.8909,-4.8909,-4.8909,-4.8909,-4.8909,-4.8909,-4.8909,-4.8909,-4.8909,-4.8909,-4.8909,-4.8909,-4.875,-4.8344,-4.8306,-4.8093,-4.7632,-4.7464,-4.7335,-4.7335,-4.6817,-4.6631,-4.6873,-4.6613,-4.6052,-4.5336,-4.5953,-4.6133,-4.585,-4.6389,-4.6671,0.0,0.0,0.0,0.0,0.0,0.0,-3.3185,0.0,-3.6851,-3.851,-3.9298,-4.0035,-4.1124,-4.1814,-4.2287,-4.251,-4.2523,-4.2562,-4.26,-4.2422,-4.2458,-4.2977,-4.3148,-4.3427,-4.4093,-4.4367,-4.4729,-4.518,-4.493,-4.5002,-4.5626,-4.5389,-4.5337,-4.5658,-4.5996,-4.6338,-4.6619,-4.7195,-4.7613,-4.7871,-4.8049,-4.8432,-4.8952,-4.8952,-4.9279,-4.9817,-4.9856,-5.0183,-5.0702,-5.074,-5.0822,-5.0937,-5.0937,-5.0965,-5.0992,-5.0913,-5.0841,-5.0758,-5.0721,-5.0702,-5.0702,-5.0702,-5.0702,-5.0702,-5.0702,-5.0702,-5.0702,-5.0702,-5.0702,-5.0702,-5.0702,-5.0702,-5.0624,-5.0272,-5.0206,-5.0062,-4.9518,-4.9225,-4.9027,-4.8943,-4.8909,-4.8909,-4.8909,-4.8909,-4.8909,-4.8909,-4.8909,-4.8909,-4.8909,-4.8909,-4.8909,-4.8909,-4.8909,-4.8785,-4.8532,-4.8495,-4.8364,-4.8038,-4.7937,-4.7856,-4.7856,-4.7291,-4.7142,-4.7446,-4.7142,-4.6799,-4.6394,-4.6689,-4.6873,-4.6809,-4.7106,-4.7281,0.0,0.0,0.0,0.0,0.0,0.0,-3.0714,0.0,-3.3647,-3.6961,-3.8303,-3.9406,-4.1181,-4.1497,-4.1754,-4.2429,-4.2569,-4.2643,-4.2774,-4.2811,-4.2774,-4.2792,-4.281,-4.2996,-4.3353,-4.3406,-4.3594,-4.3955,-4.4005,-4.4005,-4.4005,-4.4005,-4.4005,-4.3986,-4.4998,-4.5741,-4.6079,-4.7185,-4.7855,-4.8139,-4.8139,-4.8103,-4.8067,-4.8067,-4.8086,-4.8105,-4.8179,-4.9124,-5.0645,-5.0803,-5.0918,-5.0996,-5.0996,-5.1074,-5.1187,-5.0978,-5.0902,-5.0871,-5.0758,-5.0721,-5.0721,-5.0683,-5.0702,-5.0702,-5.0702,-5.0702,-5.0702,-5.0702,-5.0702,-5.0702,-5.0702,-5.0702,-5.0624,-5.0294,-5.0206,-5.0062,-4.9529,-4.9427,-4.9302,-4.8978,-4.8909,-4.8909,-4.8909,-4.8909,-4.8909,-4.8909,-4.8909,-4.8909,-4.8909,-4.8909,-4.8909,-4.8909,-4.8909,-4.8909,-4.8909,-4.8909,-4.8909,-4.8909,-4.8532,-4.8306,-4.8306,-4.7856,-4.7632,-4.7632,-4.7632,-4.7632,-4.7632,-4.7632,-4.753,-4.7428,-4.7428,-4.7428,-1.8384,0.0,0.0,0.0,0.0,0.0,0.0,0.0,-3.1163,-3.3807,-3.4971,-3.6215,-3.8507,-3.9398,-4.0065,-4.0892,-4.1507,-4.2097,-4.2719,-4.2543,-4.2573,-4.3175,-4.3248,-4.3283,-4.3406,-4.366,-4.3892,-4.4005,-4.4005,-4.4005,-4.4005,-4.4005,-4.4109,-4.426,-4.4599,-4.499,-4.5526,-4.5837,-4.6129,-4.6397,-4.6397,-4.6709,-4.7289,-4.7289,-4.7636,-4.8234,-4.8251,-4.8561,-4.9084,-4.9639,-5.0364,-5.1076,-5.1017,-5.1074,-5.1196,-5.1141,-5.1064,-5.0953,-5.0867,-5.0841,-5.0844,-5.074,-5.0702,-5.0702,-5.0702,-5.0702,-5.0702,-5.0702,-5.0702,-5.0702,-5.0702,-5.0702,-5.0683,-5.0565,-5.0565,-5.0442,-5.0062,-4.9987,-4.9757,-4.9042,-4.8909,-4.8909,-4.8909,-4.8909,-4.8909,-4.8909,-4.8909,-4.8909,-4.8909,-4.8909,-4.8909,-4.8909,-4.8909,-4.8909,-4.8909,-4.8909,-4.8909,-4.8909,-4.8804,-4.8714,-4.8714,-4.8326,-4.8231,-4.8532,-4.8269,-4.8231,-4.8532,-4.8231,-4.8075,-4.8075,-4.8327,-4.8477,0.0,0.0,0.0,0.0,0.0,0.0,-2.611,-2.7508,-2.9157,0.0,-3.2637,-3.3844,-3.5962,-3.6742,-3.7336,-3.8209,-3.9027,-4.0197,-4.2036,-4.2075,-4.2115,-4.2608,-4.2664,-4.2793,-4.3144,-4.336,-4.3633,-4.3968,-4.4005,-4.4005,-4.4005,-4.4109,-4.425,-4.4402,-4.4624,-4.4919,-4.5302,-4.5419,-4.5565,-4.57,-4.5731,-4.5986,-4.6471,-4.6471,-4.6741,-4.7224,-4.724,-4.7494,-4.794,-4.8347,-4.9167,-5.0078,-5.0054,-5.0118,-5.0273,-5.0559,-5.0614,-5.0587,-5.0815,-5.0887,-5.089,-5.074,-5.0702,-5.0702,-5.0702,-5.0702,-5.0702,-5.0702,-5.0702,-5.0702,-5.0702,-5.0702,-5.0702,-5.0702,-5.0702,-5.0604,-5.0272,-5.0206,-5.0019,-4.9401,-4.9265,-4.9265,-4.9265,-4.9265,-4.9265,-4.9265,-4.9265,-4.9265,-4.9265,-4.9265,-4.9265,-4.9265,-4.9265,-4.9265,-4.9265,-4.9174,-4.9127,-4.9127,-4.8978,-4.8909,-4.8909,-4.8678,-4.8642,-4.8909,-4.8678,-4.8678,-4.8909,-4.8678,-4.8569,-4.8569,-4.8785,-4.8909,0.0,0.0,0.0,0.0,-2.4736,0.0,-2.6531,-2.6962,-2.7638,0.0,-3.0788,-3.1793,-3.3413,-3.3785,-3.4102,-3.4865,-3.5833,-3.7612,-4.0866,-4.1404,-4.1497,-4.159,-4.159,-4.1898,-4.2634,-4.2709,-4.3007,-4.3744,-4.3904,-4.3998,-4.4091,-4.4318,-4.4465,-4.4501,-4.4966,-4.5243,-4.5362,-4.5563,-4.5696,-4.5696,-4.5781,-4.5781,-4.5715,-4.5715,-4.5715,-4.5696,-4.5781,-4.6283,-4.7059,-4.7071,-4.7725,-4.8701,-4.8697,-4.8775,-4.8977,-4.9567,-4.9774,-4.985,-5.046,-5.0642,-5.0616,-5.0585,-5.0568,-5.0567,-5.0664,-5.0702,-5.0702,-5.0702,-5.0702,-5.0702,-5.0702,-5.0702,-5.0702,-5.0702,-5.0702,-5.0624,-5.0317,-5.0272,-5.0202,-4.9962,-4.9857,-4.9803,-4.9803,-4.9803,-4.9803,-4.9803,-4.9803,-4.9803,-4.9803,-4.9803,-4.9803,-4.9803,-4.9803,-4.9803,-4.9803,-4.9569,-4.9457,-4.9457,-4.9174,-4.8974,-4.8974,-4.8974,-4.8974,-4.8974,-4.8974,-4.8974,-4.8974,-4.8925,-4.8909,-4.8909,-4.8943,-4.8978,-2.4764,-2.6032,-2.7289,-2.4908,-2.6214,0.0,-2.503,-2.5546,-2.6806,0.0,-2.8075,-2.868,-3.0358,-3.1186,-3.1676,-3.1845,-3.3728,-3.6197,-3.9175,-4.0178,-4.0866,-4.1516,-4.159,-4.1715,-4.2033,-4.2079,-4.2224,-4.261,-4.3326,-4.4037,-4.4687,-4.4762,-4.49,-4.5125,-4.5163,-4.5362,-4.57,-4.57,-4.5746,-4.5786,-4.5786,-4.5786,-4.5786,-4.5786,-4.5786,-4.5786,-4.5786,-4.5974,-4.6239,-4.6289,-4.7253,-4.8687,-4.8694,-4.8787,-4.8925,-4.9057,-4.9065,-4.9025,-4.9103,-4.907,-4.9065,-4.9629,-4.9753,-4.9779,-5.0491,-5.0702,-5.0702,-5.0702,-5.0702,-5.0702,-5.0702,-5.0702,-5.0702,-5.0702,-5.0702,-5.0683,-5.0624,-5.0604,-5.0604,-5.0523,-5.013,-4.9803,-4.9803,-4.9803,-4.9803,-4.9803,-4.9803,-4.9803,-4.9803,-4.9803,-4.9803,-4.9803,-4.9803,-4.9803,-4.9803,-4.9749,-4.9721,-4.9721,-4.9665,-4.9618,-4.9618,-4.9618,-4.9618,-4.9618,-4.9618,-4.9618,-4.9618,-4.9123,-4.8909,-4.8909,-4.9193,-4.9321,-2.7178,-2.7533,-2.8176,-2.6909,-2.7225,0.0,0.0,-2.6051,-2.6289,-2.8211,-2.7597,-2.7354,-2.9455,-2.9817,-2.9933,-3.0349,-3.2164,-3.4054,-3.5514,-3.7515,-3.9027,-3.9464,-3.9521,-3.9852,-4.0816,-4.0892,-4.1302,-4.2272,-4.2791,-4.3425,-4.4262,-4.4426,-4.4744,-4.5285,-4.5399,-4.5545,-4.575,-4.575,-4.5781,-4.5791,-4.58,-4.58,-4.58,-4.58,-4.58,-4.58,-4.58,-4.5877,-4.6007,-4.6069,-4.6639,-4.7459,-4.7485,-4.7546,-4.7656,-4.8085,-4.8233,-4.8248,-4.8577,-4.8658,-4.8633,-4.8875,-4.891,-4.8906,-4.9297,-4.9702,-5.0048,-5.0048,-5.0356,-5.0702,-5.0702,-5.0702,-5.0702,-5.0702,-5.0702,-5.0702,-5.0702,-5.0702,-5.0721,-5.074,-5.0526,-5.0298,-5.0252,-5.0252,-5.0252,-5.0298,-5.0272,-5.0268,-5.0252,-5.0249,-5.0245,-5.0245,-5.0245,-5.0245,-5.0245,-5.0135,-5.0043,-5.0043,-4.9905,-4.9853,-4.9853,-4.9853,-4.9853,-4.9853,-4.9853,-4.9846,-4.9857,-4.955,-4.937,-4.934,-4.951,-4.9598,-2.9467,-2.9102,-2.9313,-2.914,0.0,-2.8099,0.0,0.0,0.0,-2.8808,-2.7756,-2.7091,0.0,0.0,0.0,-2.9076,0.0,0.0,0.0,-3.4224,0.0,-3.6594,-3.6804,-3.7527,-3.9089,-3.9128,-3.9834,-4.1684,-4.1684,-4.2124,-4.3307,-4.3886,-4.4477,-4.513,-4.55,-4.5715,-4.5731,-4.5781,-4.5795,-4.5795,-4.5786,-4.58,-4.5838,-4.58,-4.58,-4.5838,-4.58,-4.5858,-4.5969,-4.6065,-4.6123,-4.6187,-4.6269,-4.6308,-4.6387,-4.709,-4.7359,-4.7422,-4.8021,-4.8226,-4.8195,-4.8108,-4.8193,-4.8269,-4.8157,-4.8641,-4.9238,-4.9375,-4.9933,-5.051,-5.0683,-5.0721,-5.0721,-5.0721,-5.0721,-5.0721,-5.072,-5.072,-5.0739,-5.0793,-5.081,-5.0793,-5.072,-5.0701,-5.072,-5.0793,-5.074,-5.0683,-5.072,-5.0721,-5.0702,-5.0721,-5.0721,-5.0721,-5.0721,-5.0526,-5.0404,-5.0404,-5.0195,-5.0064,-5.0064,-5.0064,-5.0064,-5.0064,-5.0064,-5.0059,-5.0068,-5.0068,-4.9968,-4.9784,-4.9838,-4.9884,0.0,0.0,0.0,0.0,-3.1237,-3.2006,-2.6869,0.0,-2.833,-2.7212,0.0,0.0,0.0,0.0,0.0,0.0,0.0,0.0,-2.8499,-3.0657,-3.2732,-3.3809,-3.4661,-3.5608,-3.6682,-3.6368,-3.7102,-3.9552,-3.9077,-3.9721,-4.2077,-4.3627,-4.4515,-4.4675,-4.5345,-4.5727,-4.5786,-4.5795,-4.581,-4.58,-4.58,-4.5858,-4.5969,-4.5838,-4.5858,-4.5969,-4.5838,-4.58,-4.5838,-4.6027,-4.6102,-4.6117,-4.6245,-4.6308,-4.6308,-4.6403,-4.6442,-4.6464,-4.6544,-4.6491,-4.6489,-4.7126,-4.7759,-4.8299,-4.8284,-4.8396,-4.8647,-4.9311,-4.9563,-4.9811,-5.0582,-5.0775,-5.0775,-5.0775,-5.0775,-5.0793,-5.0793,-5.0793,-5.0793,-5.0793,-5.0846,-5.0863,-5.0793,-5.0738,-5.072,-5.0793,-5.074,-5.0721,-5.0775,-5.0739,-5.072,-5.0775,-5.0775,-5.0775,-5.0775,-5.0775,-5.0738,-5.0738,-5.07,-5.07,-5.07,-5.07,-5.07,-5.07,-5.07,-5.07,-5.0701,-5.0701,-5.0385,-4.9803,-5.0043,-5.0159,0.0,0.0,0.0,0.0,-3.1314,-3.1218,-2.8198,-2.7198,-2.7255,-2.8544,0.0,0.0,0.0,0.0,0.0,0.0,-2.7981,0.0,0.0,0.0,-2.9564,-3.1465,0.0,0.0,-3.4334,-3.4735,-3.5566,-3.7131,-3.693,-3.7851,-4.0404,-4.1706,-4.304,-4.4562,-4.4901,-4.5307,-4.58,-4.5805,-4.5805,-4.58,-4.5877,-4.5949,-4.6007,-4.5983,-4.5972,-4.6007,-4.5949,-4.593,-4.593,-4.6046,-4.6113,-4.6162,-4.6251,-4.6308,-4.6308,-4.63,-4.6295,-4.6297,-4.6306,-4.6261,-4.6249,-4.6493,-4.6721,-4.6906,-4.6906,-4.7279,-4.7761,-4.8073,-4.8885,-4.9734,-5.0021,-5.054,-5.0947,-5.0871,-5.0928,-5.0984,-5.0984,-5.0984,-5.0984,-5.1015,-5.1048,-5.1067,-5.1032,-5.0904,-5.0846,-5.0841,-5.0793,-5.0776,-5.0846,-5.0793,-5.0775,-5.0793,-5.0793,-5.0793,-5.0793,-5.0846,-5.0863,-5.0863,-5.0861,-5.0858,-5.0858,-5.0935,-5.0974,-5.0974,-5.1013,-5.1013,-5.0974,-5.0974,-5.0834,-5.0558,-5.0545,-5.0547,-3.4083,0.0,0.0,-3.2006,-3.1064,-3.0275,-2.8467,-2.7351,-2.7264,-2.9313,-2.8967,0.0,0.0,0.0,0.0,0.0,0.0,-2.7398,0.0,-2.6223,0.0,0.0,0.0,0.0,0.0,-3.2444,-3.3227,-3.4554,-3.4438,-3.5521,-3.8307,-3.9707,-4.1409,-4.3518,-4.4253,-4.491,-4.5529,-4.5742,-4.5858,-4.5877,-4.5988,-4.6046,-4.6046,-4.6084,-4.608,-4.6046,-4.6016,-4.6007,-4.6027,-4.6087,-4.6132,-4.6216,-4.6277,-4.6308,-4.6308,-4.6293,-4.63,-4.63,-4.63,-4.6284,-4.6241,-4.6176,-4.6065,-4.5959,-4.5946,-4.6415,-4.6971,-4.7157,-4.8145,-4.9156,-4.9292,-5.0043,-5.0748,-5.0654,-5.0879,-5.1126,-5.1126,-5.1126,-5.1141,-5.1197,-5.1211,-5.1211,-5.1211,-5.1053,-5.0951,-5.0967,-5.0883,-5.0868,-5.0974,-5.0904,-5.0887,-5.0904,-5.0904,-5.0904,-5.0904,-5.0957,-5.0974,-5.0974,-5.0929,-5.0925,-5.0983,-5.1061,-5.1106,-5.112,-5.1192,-5.1192,-5.1133,-5.1133,-5.1125,-5.1106,-5.0957,-5.0887,0.0,-3.6622,-3.668,-3.1698,-3.1064,-3.0564,-2.6379,-2.7918,-2.9813,-2.8294,-3.0506,-3.2237,0.0,0.0,0.0,0.0,0.0,0.0,0.0,0.0,0.0,0.0,0.0,0.0,0.0,-2.8772,-2.9351,-3.1835,-3.1245,-3.2242,-3.5646,-3.8179,-4.001,-4.0996,-4.3343,-4.4664,-4.4838,-4.5606,-4.6027,-4.6085,-4.6085,-4.6123,-4.6195,-4.6143,-4.6123,-4.619,-4.6056,-4.6046,-4.6098,-4.6104,-4.6144,-4.6216,-4.6277,-4.6308,-4.6308,-4.6293,-4.63,-4.63,-4.63,-4.6215,-4.6126,-4.6241,-4.6192,-4.6088,-4.6088,-4.6161,-4.6384,-4.7097,-4.7334,-4.7572,-4.8413,-4.9283,-4.9926,-4.9936,-5.0583,-5.1195,-5.1195,-5.1195,-5.1195,-5.1195,-5.1195,-5.1195,-5.1195,-5.1088,-5.1041,-5.1177,-5.102,-5.0966,-5.1161,-5.1131,-5.1134,-5.118,-5.1196,-5.1196,-5.1196,-5.1196,-5.1196,-5.1196,-5.1022,-5.1003,-5.1177,-5.1138,-5.1127,-5.1206,-5.1195,-5.1195,-5.1195,-5.1195,-5.1195,-5.1206,-5.1136,-5.1099,-3.7357,-3.8031,-3.7916,-3.3968,-3.2774,-3.1588,-2.7881,-2.8396,-2.9323,-2.8142,-3.0202,-3.1882,-3.0694,0.0,0.0,0.0,0.0,0.0,0.0,0.0,0.0,0.0,0.0,0.0,0.0,0.0,-2.7874,-2.9279,-2.9656,-3.1292,-3.473,-3.682,-3.8829,-4.0842,-4.284,-4.4169,-4.478,-4.5645,-4.6075,-4.6105,-4.6125,-4.6181,-4.6195,-4.6228,-4.6225,-4.6191,-4.6147,-4.6158,-4.6162,-4.6169,-4.6203,-4.6274,-4.6296,-4.6308,-4.6308,-4.6307,-4.6297,-4.63,-4.63,-4.6278,-4.6249,-4.6288,-4.6262,-4.6234,-4.6228,-4.6249,-4.6326,-4.6569,-4.7054,-4.7564,-4.7818,-4.856,-4.9224,-4.914,-4.9403,-4.9673,-4.9673,-5.0122,-5.0532,-5.0532,-5.0971,-5.1339,-5.1339,-5.1269,-5.1202,-5.1208,-5.1147,-5.1109,-5.12,-5.1189,-5.1159,-5.12,-5.12,-5.12,-5.12,-5.12,-5.121,-5.1212,-5.1146,-5.1132,-5.1212,-5.1215,-5.1242,-5.1276,-5.131,-5.1333,-5.1333,-5.1333,-5.1327,-5.1339,-5.1317,-5.1256,-3.8238,-3.8695,-3.8612,-3.5528,-3.4333,-3.3041,-2.9597,-2.9988,-3.0743,-2.9541,-3.0869,-3.2288,-3.2383,0.0,0.0,0.0,0.0,0.0,0.0,-2.3998,0.0,0.0,0.0,0.0,0.0,0.0,-2.647,-2.7585,-2.8184,0.0,0.0,-3.5363,-3.7531,-3.9518,-4.1824,-4.3486,-4.4403,-4.5249,-4.5835,-4.6162,-4.622,-4.624,-4.623,-4.6273,-4.6289,-4.623,-4.6211,-4.6202,-4.6231,-4.6203,-4.624,-4.6305,-4.6295,-4.6308,-4.6308,-4.6308,-4.6307,-4.6297,-4.6297,-4.6305,-4.6308,-4.6308,-4.6308,-4.6308,-4.6308,-4.6308,-4.6308,-4.6308,-4.6699,-4.7129,-4.707,-4.7754,-4.8412,-4.8338,-4.8621,-4.8906,-4.8906,-4.9336,-4.9746,-4.9746,-5.0415,-5.0962,-5.0962,-5.1177,-5.133,-5.1279,-5.1238,-5.1249,-5.1263,-5.1274,-5.1274,-5.1274,-5.1274,-5.1274,-5.1274,-5.1255,-5.1239,-5.1269,-5.1228,-5.1217,-5.1278,-5.1294,-5.13,-5.1327,-5.1382,-5.1406,-5.1406,-5.1406,-5.14,-5.1391,-5.1391,-5.1352]}]]